Wetterdaten: Montag, 19.06.2023
Datum Zeit Temp. 2m Temp +5 cm Feuchte A. Luftdruck Regen Wind Richtung Richtung Sonnenschein UV Solar Taupunkt Windchill Windben
19.06.2023 00:00 20,8 C 19,4 C 61 % 1012,5 hPa 0,0 l/m 8,0 km/h (2 Bft) S 180 0 min 0,0 UV-I 0 W/m 13,0 C 20,2 C 16,1 km/h (3 Bft)
19.06.2023 00:01 20,8 C 19,4 C 61 % 1012,6 hPa 0,0 l/m 8,0 km/h (2 Bft) S-SO 157 0 min 0,0 UV-I 0 W/m 13,0 C 20,2 C 11,3 km/h (2 Bft)
19.06.2023 00:02 20,7 C 19,4 C 60 % 1012,5 hPa 0,0 l/m 9,7 km/h (2 Bft) S-SO 157 0 min 0,0 UV-I 0 W/m 12,7 C 19,5 C 19,3 km/h (3 Bft)
19.06.2023 00:03 20,8 C 19,4 C 60 % 1012,5 hPa 0,0 l/m 9,7 km/h (2 Bft) S 180 0 min 0,0 UV-I 0 W/m 12,7 C 19,6 C 17,7 km/h (3 Bft)
19.06.2023 00:04 20,8 C 19,4 C 60 % 1012,6 hPa 0,0 l/m 8,0 km/h (2 Bft) S-SO 157 0 min 0,0 UV-I 0 W/m 12,7 C 20,2 C 14,5 km/h (3 Bft)
19.06.2023 00:05 20,8 C 20,0 C 60 % 1012,5 hPa 0,0 l/m 6,4 km/h (2 Bft) S 180 0 min 0,0 UV-I 0 W/m 12,7 C 20,8 C 12,9 km/h (3 Bft)
19.06.2023 00:06 20,8 C 20,0 C 60 % 1012,5 hPa 0,0 l/m 9,7 km/h (2 Bft) S-SO 157 0 min 0,0 UV-I 0 W/m 12,7 C 19,6 C 11,3 km/h (2 Bft)
19.06.2023 00:07 20,9 C 20,0 C 60 % 1012,5 hPa 0,0 l/m 8,0 km/h (2 Bft) S-SO 157 0 min 0,0 UV-I 0 W/m 12,8 C 20,3 C 11,3 km/h (2 Bft)
19.06.2023 00:08 20,9 C 20,0 C 60 % 1012,5 hPa 0,0 l/m 6,4 km/h (2 Bft) S-SO 157 0 min 0,0 UV-I 0 W/m 12,8 C 20,9 C 16,1 km/h (3 Bft)
19.06.2023 00:09 20,9 C 20,0 C 60 % 1012,4 hPa 0,0 l/m 11,3 km/h (2 Bft) S 180 0 min 0,0 UV-I 0 W/m 12,8 C 19,3 C 16,1 km/h (3 Bft)
19.06.2023 00:10 20,9 C 20,0 C 59 % 1012,3 hPa 0,0 l/m 9,7 km/h (2 Bft) S-SO 157 0 min 0,0 UV-I 0 W/m 12,6 C 19,7 C 17,7 km/h (3 Bft)
19.06.2023 00:11 20,9 C 20,0 C 59 % 1012,3 hPa 0,0 l/m 11,3 km/h (2 Bft) S-SO 157 0 min 0,0 UV-I 0 W/m 12,6 C 19,3 C 16,1 km/h (3 Bft)
19.06.2023 00:12 21,0 C 20,0 C 59 % 1012,2 hPa 0,0 l/m 11,3 km/h (2 Bft) S-SO 157 0 min 0,0 UV-I 0 W/m 12,7 C 19,4 C 14,5 km/h (3 Bft)
19.06.2023 00:13 21,1 C 20,0 C 59 % 1012,3 hPa 0,0 l/m 8,0 km/h (2 Bft) S-SO 157 0 min 0,0 UV-I 0 W/m 12,8 C 20,5 C 11,3 km/h (2 Bft)
19.06.2023 00:14 21,1 C 20,0 C 59 % 1012,2 hPa 0,0 l/m 9,7 km/h (2 Bft) S-SO 157 0 min 0,0 UV-I 0 W/m 12,8 C 19,9 C 14,5 km/h (3 Bft)
19.06.2023 00:15 21,1 C 20,0 C 59 % 1012,3 hPa 0,0 l/m 8,0 km/h (2 Bft) S-SO 157 0 min 0,0 UV-I 0 W/m 12,8 C 20,5 C 14,5 km/h (3 Bft)
19.06.2023 00:16 21,1 C 20,0 C 59 % 1012,2 hPa 0,0 l/m 8,0 km/h (2 Bft) S-SO 157 0 min 0,0 UV-I 0 W/m 12,8 C 20,5 C 14,5 km/h (3 Bft)
19.06.2023 00:17 21,1 C 20,0 C 59 % 1012,2 hPa 0,0 l/m 11,3 km/h (2 Bft) SO 135 0 min 0,0 UV-I 0 W/m 12,8 C 19,5 C 17,7 km/h (3 Bft)
19.06.2023 00:18 21,1 C 20,0 C 59 % 1012,2 hPa 0,0 l/m 9,7 km/h (2 Bft) S-SO 157 0 min 0,0 UV-I 0 W/m 12,8 C 19,9 C 14,5 km/h (3 Bft)
19.06.2023 00:19 21,1 C 20,0 C 59 % 1012,1 hPa 0,0 l/m 6,4 km/h (2 Bft) S-SO 157 0 min 0,0 UV-I 0 W/m 12,8 C 21,1 C 9,7 km/h (2 Bft)
19.06.2023 00:20 21,0 C 20,0 C 59 % 1012,1 hPa 0,0 l/m 8,0 km/h (2 Bft) SO 135 0 min 0,0 UV-I 0 W/m 12,7 C 20,4 C 12,9 km/h (3 Bft)
19.06.2023 00:21 20,9 C 19,4 C 59 % 1012,0 hPa 0,0 l/m 4,8 km/h (1 Bft) SO 135 0 min 0,0 UV-I 0 W/m 12,6 C 20,9 C 8,0 km/h (2 Bft)
19.06.2023 00:22 20,8 C 19,4 C 60 % 1012,1 hPa 0,0 l/m 9,7 km/h (2 Bft) S-SO 157 0 min 0,0 UV-I 0 W/m 12,7 C 19,6 C 16,1 km/h (3 Bft)
19.06.2023 00:23 20,8 C 19,4 C 60 % 1012,1 hPa 0,0 l/m 9,7 km/h (2 Bft) SO 135 0 min 0,0 UV-I 0 W/m 12,7 C 19,6 C 12,9 km/h (3 Bft)
19.06.2023 00:24 20,8 C 19,4 C 60 % 1012,0 hPa 0,0 l/m 9,7 km/h (2 Bft) SO 135 0 min 0,0 UV-I 0 W/m 12,7 C 19,6 C 16,1 km/h (3 Bft)
19.06.2023 00:25 20,8 C 19,4 C 60 % 1012,1 hPa 0,0 l/m 6,4 km/h (2 Bft) SO 135 0 min 0,0 UV-I 0 W/m 12,7 C 20,8 C 12,9 km/h (3 Bft)
19.06.2023 00:26 20,7 C 19,4 C 60 % 1012,0 hPa 0,0 l/m 8,0 km/h (2 Bft) SO 135 0 min 0,0 UV-I 0 W/m 12,7 C 20,1 C 12,9 km/h (3 Bft)
19.06.2023 00:27 20,7 C 19,4 C 60 % 1012,1 hPa 0,0 l/m 8,0 km/h (2 Bft) SO 135 0 min 0,0 UV-I 0 W/m 12,7 C 20,1 C 9,7 km/h (2 Bft)
19.06.2023 00:28 20,7 C 19,4 C 61 % 1012,1 hPa 0,0 l/m 6,4 km/h (2 Bft) SO 135 0 min 0,0 UV-I 0 W/m 12,9 C 20,7 C 9,7 km/h (2 Bft)
19.06.2023 00:29 20,6 C 19,4 C 61 % 1012,0 hPa 0,0 l/m 9,7 km/h (2 Bft) SO 135 0 min 0,0 UV-I 0 W/m 12,8 C 19,4 C 14,5 km/h (3 Bft)
19.06.2023 00:30 20,6 C 19,4 C 61 % 1012,1 hPa 0,0 l/m 9,7 km/h (2 Bft) SO 135 0 min 0,0 UV-I 0 W/m 12,8 C 19,4 C 14,5 km/h (3 Bft)
19.06.2023 00:31 20,6 C 19,4 C 61 % 1012,0 hPa 0,0 l/m 8,0 km/h (2 Bft) SO 135 0 min 0,0 UV-I 0 W/m 12,8 C 20,0 C 12,9 km/h (3 Bft)
19.06.2023 00:32 20,5 C 19,4 C 61 % 1012,1 hPa 0,0 l/m 9,7 km/h (2 Bft) SO 135 0 min 0,0 UV-I 0 W/m 12,7 C 19,3 C 17,7 km/h (3 Bft)
19.06.2023 00:33 20,5 C 19,4 C 61 % 1012,1 hPa 0,0 l/m 11,3 km/h (2 Bft) SO 135 0 min 0,0 UV-I 0 W/m 12,7 C 18,8 C 16,1 km/h (3 Bft)
19.06.2023 00:34 20,5 C 19,4 C 61 % 1012,1 hPa 0,0 l/m 12,9 km/h (3 Bft) SO 135 0 min 0,0 UV-I 0 W/m 12,7 C 18,4 C 16,1 km/h (3 Bft)
19.06.2023 00:35 20,4 C 19,4 C 61 % 1012,1 hPa 0,0 l/m 11,3 km/h (2 Bft) SO 135 0 min 0,0 UV-I 0 W/m 12,6 C 18,7 C 16,1 km/h (3 Bft)
19.06.2023 00:36 20,4 C 19,4 C 61 % 1012,1 hPa 0,0 l/m 9,7 km/h (2 Bft) SO 135 0 min 0,0 UV-I 0 W/m 12,6 C 19,2 C 12,9 km/h (3 Bft)
19.06.2023 00:37 20,4 C 19,4 C 61 % 1012,0 hPa 0,0 l/m 11,3 km/h (2 Bft) SO 135 0 min 0,0 UV-I 0 W/m 12,6 C 18,7 C 14,5 km/h (3 Bft)
19.06.2023 00:38 20,4 C 19,4 C 61 % 1012,0 hPa 0,0 l/m 12,9 km/h (3 Bft) SO 135 0 min 0,0 UV-I 0 W/m 12,6 C 18,2 C 16,1 km/h (3 Bft)
19.06.2023 00:39 20,4 C 19,4 C 62 % 1012,1 hPa 0,0 l/m 9,7 km/h (2 Bft) SO 135 0 min 0,0 UV-I 0 W/m 12,9 C 19,2 C 14,5 km/h (3 Bft)
19.06.2023 00:40 20,3 C 19,4 C 62 % 1012,1 hPa 0,0 l/m 8,0 km/h (2 Bft) SO 135 0 min 0,0 UV-I 0 W/m 12,8 C 19,7 C 11,3 km/h (2 Bft)
19.06.2023 00:41 20,3 C 19,4 C 62 % 1012,1 hPa 0,0 l/m 9,7 km/h (2 Bft) S-SO 157 0 min 0,0 UV-I 0 W/m 12,8 C 19,1 C 16,1 km/h (3 Bft)
19.06.2023 00:42 20,3 C 19,4 C 62 % 1012,0 hPa 0,0 l/m 9,7 km/h (2 Bft) S-SO 157 0 min 0,0 UV-I 0 W/m 12,8 C 19,1 C 14,5 km/h (3 Bft)
19.06.2023 00:43 20,3 C 19,4 C 62 % 1012,0 hPa 0,0 l/m 9,7 km/h (2 Bft) SO 135 0 min 0,0 UV-I 0 W/m 12,8 C 19,1 C 16,1 km/h (3 Bft)
19.06.2023 00:44 20,3 C 19,4 C 62 % 1012,0 hPa 0,0 l/m 8,0 km/h (2 Bft) SO 135 0 min 0,0 UV-I 0 W/m 12,8 C 19,7 C 12,9 km/h (3 Bft)
19.06.2023 00:45 20,2 C 19,4 C 62 % 1012,1 hPa 0,0 l/m 8,0 km/h (2 Bft) SO 135 0 min 0,0 UV-I 0 W/m 12,7 C 19,6 C 11,3 km/h (2 Bft)
19.06.2023 00:46 20,2 C 18,9 C 62 % 1012,1 hPa 0,0 l/m 8,0 km/h (2 Bft) S-SO 157 0 min 0,0 UV-I 0 W/m 12,7 C 19,6 C 12,9 km/h (3 Bft)
19.06.2023 00:47 20,2 C 18,9 C 62 % 1012,0 hPa 0,0 l/m 8,0 km/h (2 Bft) SO 135 0 min 0,0 UV-I 0 W/m 12,7 C 19,6 C 11,3 km/h (2 Bft)
19.06.2023 00:48 20,2 C 18,9 C 62 % 1011,9 hPa 0,0 l/m 9,7 km/h (2 Bft) SO 135 0 min 0,0 UV-I 0 W/m 12,7 C 19,0 C 14,5 km/h (3 Bft)
19.06.2023 00:49 20,2 C 18,9 C 62 % 1011,9 hPa 0,0 l/m 11,3 km/h (2 Bft) S-SO 157 0 min 0,0 UV-I 0 W/m 12,7 C 18,5 C 16,1 km/h (3 Bft)
19.06.2023 00:50 20,2 C 18,9 C 62 % 1011,9 hPa 0,0 l/m 6,4 km/h (2 Bft) SO 135 0 min 0,0 UV-I 0 W/m 12,7 C 20,2 C 8,0 km/h (2 Bft)
19.06.2023 00:51 20,2 C 18,9 C 62 % 1011,9 hPa 0,0 l/m 6,4 km/h (2 Bft) S-SO 157 0 min 0,0 UV-I 0 W/m 12,7 C 20,2 C 9,7 km/h (2 Bft)
19.06.2023 00:52 20,1 C 18,9 C 63 % 1011,9 hPa 0,0 l/m 9,7 km/h (2 Bft) S-SO 157 0 min 0,0 UV-I 0 W/m 12,8 C 18,8 C 11,3 km/h (2 Bft)
19.06.2023 00:53 20,1 C 18,9 C 62 % 1011,9 hPa 0,0 l/m 6,4 km/h (2 Bft) S-SO 157 0 min 0,0 UV-I 0 W/m 12,6 C 20,1 C 8,0 km/h (2 Bft)
19.06.2023 00:54 20,1 C 18,9 C 62 % 1011,9 hPa 0,0 l/m 6,4 km/h (2 Bft) S-SO 157 0 min 0,0 UV-I 0 W/m 12,6 C 20,1 C 9,7 km/h (2 Bft)
19.06.2023 00:55 20,1 C 18,9 C 63 % 1011,9 hPa 0,0 l/m 6,4 km/h (2 Bft) S-SO 157 0 min 0,0 UV-I 0 W/m 12,8 C 20,1 C 11,3 km/h (2 Bft)
19.06.2023 00:56 20,1 C 18,9 C 63 % 1011,8 hPa 0,0 l/m 6,4 km/h (2 Bft) SO 135 0 min 0,0 UV-I 0 W/m 12,8 C 20,1 C 6,4 km/h (2 Bft)
19.06.2023 00:57 20,0 C 18,9 C 63 % 1011,8 hPa 0,0 l/m 4,8 km/h (1 Bft) S-SO 157 0 min 0,0 UV-I 0 W/m 12,7 C 20,0 C 8,0 km/h (2 Bft)
19.06.2023 00:58 20,0 C 18,9 C 63 % 1011,8 hPa 0,0 l/m 4,8 km/h (1 Bft) SO 135 0 min 0,0 UV-I 0 W/m 12,7 C 20,0 C 8,0 km/h (2 Bft)
19.06.2023 00:59 20,0 C 18,9 C 63 % 1011,8 hPa 0,0 l/m 6,4 km/h (2 Bft) S-SO 157 0 min 0,0 UV-I 0 W/m 12,7 C 20,0 C 9,7 km/h (2 Bft)
19.06.2023 01:00 19,9 C 18,9 C 63 % 1011,7 hPa 0,0 l/m 8,0 km/h (2 Bft) S-SO 157 0 min 0,0 UV-I 0 W/m 12,6 C 19,2 C 9,7 km/h (2 Bft)
19.06.2023 01:01 19,9 C 18,9 C 63 % 1011,8 hPa 0,0 l/m 6,4 km/h (2 Bft) SO 135 0 min 0,0 UV-I 0 W/m 12,6 C 19,9 C 11,3 km/h (2 Bft)
19.06.2023 01:02 19,9 C 18,9 C 63 % 1011,8 hPa 0,0 l/m 8,0 km/h (2 Bft) S-SO 157 0 min 0,0 UV-I 0 W/m 12,6 C 19,2 C 9,7 km/h (2 Bft)
19.06.2023 01:03 19,9 C 18,9 C 63 % 1011,8 hPa 0,0 l/m 8,0 km/h (2 Bft) S-SO 157 0 min 0,0 UV-I 0 W/m 12,6 C 19,2 C 9,7 km/h (2 Bft)
19.06.2023 01:04 19,8 C 18,9 C 63 % 1011,7 hPa 0,0 l/m 8,0 km/h (2 Bft) S-SO 157 0 min 0,0 UV-I 0 W/m 12,5 C 19,1 C 9,7 km/h (2 Bft)
19.06.2023 01:05 19,8 C 18,3 C 64 % 1011,7 hPa 0,0 l/m 8,0 km/h (2 Bft) S-SO 157 0 min 0,0 UV-I 0 W/m 12,8 C 19,1 C 12,9 km/h (3 Bft)
19.06.2023 01:06 19,8 C 18,3 C 64 % 1011,7 hPa 0,0 l/m 8,0 km/h (2 Bft) S-SO 157 0 min 0,0 UV-I 0 W/m 12,8 C 19,1 C 11,3 km/h (2 Bft)
19.06.2023 01:07 19,8 C 18,3 C 64 % 1011,7 hPa 0,0 l/m 6,4 km/h (2 Bft) S-SO 157 0 min 0,0 UV-I 0 W/m 12,8 C 19,8 C 11,3 km/h (2 Bft)
19.06.2023 01:08 19,8 C 18,3 C 64 % 1011,7 hPa 0,0 l/m 4,8 km/h (1 Bft) S 180 0 min 0,0 UV-I 0 W/m 12,8 C 19,8 C 4,8 km/h (1 Bft)
19.06.2023 01:09 19,7 C 18,3 C 64 % 1011,7 hPa 0,0 l/m 4,8 km/h (1 Bft) S 180 0 min 0,0 UV-I 0 W/m 12,7 C 19,7 C 8,0 km/h (2 Bft)
19.06.2023 01:10 19,7 C 18,3 C 64 % 1011,7 hPa 0,0 l/m 4,8 km/h (1 Bft) S 180 0 min 0,0 UV-I 0 W/m 12,7 C 19,7 C 9,7 km/h (2 Bft)
19.06.2023 01:11 19,7 C 18,3 C 64 % 1011,6 hPa 0,0 l/m 4,8 km/h (1 Bft) S 180 0 min 0,0 UV-I 0 W/m 12,7 C 19,7 C 8,0 km/h (2 Bft)
19.06.2023 01:12 19,7 C 18,3 C 64 % 1011,6 hPa 0,0 l/m 4,8 km/h (1 Bft) S 180 0 min 0,0 UV-I 0 W/m 12,7 C 19,7 C 6,4 km/h (2 Bft)
19.06.2023 01:13 19,7 C 18,3 C 64 % 1011,6 hPa 0,0 l/m 6,4 km/h (2 Bft) S 180 0 min 0,0 UV-I 0 W/m 12,7 C 19,7 C 9,7 km/h (2 Bft)
19.06.2023 01:14 19,6 C 18,3 C 64 % 1011,6 hPa 0,0 l/m 6,4 km/h (2 Bft) S-SW 202 0 min 0,0 UV-I 0 W/m 12,6 C 19,6 C 8,0 km/h (2 Bft)
19.06.2023 01:15 19,6 C 18,3 C 64 % 1011,6 hPa 0,0 l/m 6,4 km/h (2 Bft) S 180 0 min 0,0 UV-I 0 W/m 12,6 C 19,6 C 9,7 km/h (2 Bft)
19.06.2023 01:16 19,6 C 18,3 C 64 % 1011,6 hPa 0,0 l/m 6,4 km/h (2 Bft) S 180 0 min 0,0 UV-I 0 W/m 12,6 C 19,6 C 8,0 km/h (2 Bft)
19.06.2023 01:17 19,6 C 18,3 C 64 % 1011,6 hPa 0,0 l/m 4,8 km/h (1 Bft) S 180 0 min 0,0 UV-I 0 W/m 12,6 C 19,6 C 8,0 km/h (2 Bft)
19.06.2023 01:18 19,6 C 18,3 C 64 % 1011,6 hPa 0,0 l/m 6,4 km/h (2 Bft) S 180 0 min 0,0 UV-I 0 W/m 12,6 C 19,6 C 9,7 km/h (2 Bft)
19.06.2023 01:19 19,6 C 18,3 C 64 % 1011,7 hPa 0,0 l/m 6,4 km/h (2 Bft) S 180 0 min 0,0 UV-I 0 W/m 12,6 C 19,6 C 8,0 km/h (2 Bft)
19.06.2023 01:20 19,6 C 18,3 C 64 % 1011,6 hPa 0,0 l/m 8,0 km/h (2 Bft) S-SO 157 0 min 0,0 UV-I 0 W/m 12,6 C 18,9 C 9,7 km/h (2 Bft)
19.06.2023 01:21 19,6 C 18,3 C 64 % 1011,6 hPa 0,0 l/m 6,4 km/h (2 Bft) S-SO 157 0 min 0,0 UV-I 0 W/m 12,6 C 19,6 C 8,0 km/h (2 Bft)
19.06.2023 01:22 19,6 C 18,3 C 64 % 1011,6 hPa 0,0 l/m 8,0 km/h (2 Bft) S-SO 157 0 min 0,0 UV-I 0 W/m 12,6 C 18,9 C 11,3 km/h (2 Bft)
19.06.2023 01:23 19,7 C 18,3 C 64 % 1011,6 hPa 0,0 l/m 8,0 km/h (2 Bft) S-SO 157 0 min 0,0 UV-I 0 W/m 12,7 C 19,0 C 11,3 km/h (2 Bft)
19.06.2023 01:24 19,7 C 18,3 C 64 % 1011,6 hPa 0,0 l/m 6,4 km/h (2 Bft) S-SO 157 0 min 0,0 UV-I 0 W/m 12,7 C 19,7 C 8,0 km/h (2 Bft)
19.06.2023 01:25 19,7 C 18,3 C 65 % 1011,6 hPa 0,0 l/m 4,8 km/h (1 Bft) S-SO 157 0 min 0,0 UV-I 0 W/m 12,9 C 19,7 C 8,0 km/h (2 Bft)
19.06.2023 01:26 19,6 C 18,3 C 65 % 1011,6 hPa 0,0 l/m 4,8 km/h (1 Bft) S-SO 157 0 min 0,0 UV-I 0 W/m 12,8 C 19,6 C 8,0 km/h (2 Bft)
19.06.2023 01:27 19,6 C 18,3 C 65 % 1011,6 hPa 0,0 l/m 3,2 km/h (1 Bft) S-SO 157 0 min 0,0 UV-I 0 W/m 12,8 C 19,6 C 6,4 km/h (2 Bft)
19.06.2023 01:28 19,6 C 18,3 C 65 % 1011,6 hPa 0,0 l/m 3,2 km/h (1 Bft) S-SO 157 0 min 0,0 UV-I 0 W/m 12,8 C 19,6 C 6,4 km/h (2 Bft)
19.06.2023 01:29 19,5 C 18,3 C 65 % 1011,5 hPa 0,0 l/m 3,2 km/h (1 Bft) S-SO 157 0 min 0,0 UV-I 0 W/m 12,7 C 19,5 C 6,4 km/h (2 Bft)
19.06.2023 01:30 19,5 C 17,8 C 65 % 1011,5 hPa 0,0 l/m 4,8 km/h (1 Bft) S-SO 157 0 min 0,0 UV-I 0 W/m 12,7 C 19,5 C 8,0 km/h (2 Bft)
19.06.2023 01:31 19,4 C 17,8 C 65 % 1011,5 hPa 0,0 l/m 4,8 km/h (1 Bft) S-SO 157 0 min 0,0 UV-I 0 W/m 12,6 C 19,4 C 8,0 km/h (2 Bft)
19.06.2023 01:32 19,4 C 17,8 C 65 % 1011,5 hPa 0,0 l/m 3,2 km/h (1 Bft) S-SO 157 0 min 0,0 UV-I 0 W/m 12,6 C 19,4 C 6,4 km/h (2 Bft)
19.06.2023 01:33 19,3 C 17,8 C 65 % 1011,5 hPa 0,0 l/m 3,2 km/h (1 Bft) S-SO 157 0 min 0,0 UV-I 0 W/m 12,6 C 19,3 C 6,4 km/h (2 Bft)
19.06.2023 01:34 19,3 C 17,2 C 66 % 1011,4 hPa 0,0 l/m 6,4 km/h (2 Bft) S-SO 157 0 min 0,0 UV-I 0 W/m 12,8 C 19,3 C 8,0 km/h (2 Bft)
19.06.2023 01:35 19,3 C 17,2 C 66 % 1011,4 hPa 0,0 l/m 6,4 km/h (2 Bft) S-SO 157 0 min 0,0 UV-I 0 W/m 12,8 C 19,3 C 8,0 km/h (2 Bft)
19.06.2023 01:36 19,2 C 17,2 C 66 % 1011,4 hPa 0,0 l/m 8,0 km/h (2 Bft) S-SO 157 0 min 0,0 UV-I 0 W/m 12,7 C 18,5 C 11,3 km/h (2 Bft)
19.06.2023 01:37 19,3 C 17,2 C 66 % 1011,4 hPa 0,0 l/m 4,8 km/h (1 Bft) S 180 0 min 0,0 UV-I 0 W/m 12,8 C 19,3 C 9,7 km/h (2 Bft)
19.06.2023 01:38 19,3 C 17,2 C 66 % 1011,4 hPa 0,0 l/m 8,0 km/h (2 Bft) S-SO 157 0 min 0,0 UV-I 0 W/m 12,8 C 18,6 C 8,0 km/h (2 Bft)
19.06.2023 01:39 19,3 C 17,8 C 66 % 1011,4 hPa 0,0 l/m 6,4 km/h (2 Bft) S-SO 157 0 min 0,0 UV-I 0 W/m 12,8 C 19,3 C 8,0 km/h (2 Bft)
19.06.2023 01:40 19,3 C 17,8 C 66 % 1011,4 hPa 0,0 l/m 4,8 km/h (1 Bft) S-SO 157 0 min 0,0 UV-I 0 W/m 12,8 C 19,3 C 6,4 km/h (2 Bft)
19.06.2023 01:41 19,2 C 17,8 C 66 % 1011,4 hPa 0,0 l/m 4,8 km/h (1 Bft) S-SO 157 0 min 0,0 UV-I 0 W/m 12,7 C 19,2 C 6,4 km/h (2 Bft)
19.06.2023 01:42 19,1 C 17,8 C 66 % 1011,3 hPa 0,0 l/m 6,4 km/h (2 Bft) S-SO 157 0 min 0,0 UV-I 0 W/m 12,6 C 19,1 C 8,0 km/h (2 Bft)
19.06.2023 01:43 19,1 C 17,2 C 66 % 1011,4 hPa 0,0 l/m 6,4 km/h (2 Bft) S-SO 157 0 min 0,0 UV-I 0 W/m 12,6 C 19,1 C 8,0 km/h (2 Bft)
19.06.2023 01:44 18,9 C 17,2 C 67 % 1011,4 hPa 0,0 l/m 4,8 km/h (1 Bft) S-SO 157 0 min 0,0 UV-I 0 W/m 12,6 C 18,9 C 8,0 km/h (2 Bft)
19.06.2023 01:45 18,9 C 17,2 C 67 % 1011,4 hPa 0,0 l/m 6,4 km/h (2 Bft) S-SO 157 0 min 0,0 UV-I 0 W/m 12,6 C 18,9 C 8,0 km/h (2 Bft)
19.06.2023 01:46 18,8 C 17,2 C 67 % 1011,5 hPa 0,0 l/m 6,4 km/h (2 Bft) S-SO 157 0 min 0,0 UV-I 0 W/m 12,5 C 18,8 C 8,0 km/h (2 Bft)
19.06.2023 01:47 18,8 C 17,2 C 67 % 1011,5 hPa 0,0 l/m 6,4 km/h (2 Bft) S-SO 157 0 min 0,0 UV-I 0 W/m 12,5 C 18,8 C 8,0 km/h (2 Bft)
19.06.2023 01:48 18,8 C 17,2 C 67 % 1011,5 hPa 0,0 l/m 6,4 km/h (2 Bft) S-SO 157 0 min 0,0 UV-I 0 W/m 12,5 C 18,8 C 9,7 km/h (2 Bft)
19.06.2023 01:49 18,8 C 17,2 C 67 % 1011,5 hPa 0,0 l/m 6,4 km/h (2 Bft) S 180 0 min 0,0 UV-I 0 W/m 12,5 C 18,8 C 9,7 km/h (2 Bft)
19.06.2023 01:50 18,8 C 17,2 C 67 % 1011,5 hPa 0,0 l/m 8,0 km/h (2 Bft) S-SO 157 0 min 0,0 UV-I 0 W/m 12,5 C 18,1 C 8,0 km/h (2 Bft)
19.06.2023 01:51 18,8 C 17,2 C 67 % 1011,4 hPa 0,0 l/m 8,0 km/h (2 Bft) S-SO 157 0 min 0,0 UV-I 0 W/m 12,5 C 18,1 C 11,3 km/h (2 Bft)
19.06.2023 01:52 18,9 C 17,2 C 67 % 1011,3 hPa 0,0 l/m 8,0 km/h (2 Bft) S 180 0 min 0,0 UV-I 0 W/m 12,6 C 18,2 C 9,7 km/h (2 Bft)
19.06.2023 01:53 18,9 C 17,2 C 67 % 1011,4 hPa 0,0 l/m 6,4 km/h (2 Bft) S 180 0 min 0,0 UV-I 0 W/m 12,6 C 18,9 C 9,7 km/h (2 Bft)
19.06.2023 01:54 18,9 C 17,2 C 67 % 1011,3 hPa 0,0 l/m 6,4 km/h (2 Bft) S-SO 157 0 min 0,0 UV-I 0 W/m 12,6 C 18,9 C 11,3 km/h (2 Bft)
19.06.2023 01:55 18,9 C 17,8 C 67 % 1011,3 hPa 0,0 l/m 6,4 km/h (2 Bft) S-SO 157 0 min 0,0 UV-I 0 W/m 12,6 C 18,9 C 8,0 km/h (2 Bft)
19.06.2023 01:56 18,9 C 17,8 C 67 % 1011,2 hPa 0,0 l/m 4,8 km/h (1 Bft) SO 135 0 min 0,0 UV-I 0 W/m 12,6 C 18,9 C 6,4 km/h (2 Bft)
19.06.2023 01:57 18,9 C 17,8 C 67 % 1011,2 hPa 0,0 l/m 4,8 km/h (1 Bft) SO 135 0 min 0,0 UV-I 0 W/m 12,6 C 18,9 C 8,0 km/h (2 Bft)
19.06.2023 01:58 18,8 C 17,8 C 67 % 1011,3 hPa 0,0 l/m 6,4 km/h (2 Bft) SO 135 0 min 0,0 UV-I 0 W/m 12,5 C 18,8 C 8,0 km/h (2 Bft)
19.06.2023 01:59 18,9 C 17,8 C 67 % 1011,4 hPa 0,0 l/m 6,4 km/h (2 Bft) S-SO 157 0 min 0,0 UV-I 0 W/m 12,6 C 18,9 C 8,0 km/h (2 Bft)
19.06.2023 02:00 18,8 C 17,8 C 67 % 1011,3 hPa 0,0 l/m 8,0 km/h (2 Bft) S-SO 157 0 min 0,0 UV-I 0 W/m 12,5 C 18,1 C 11,3 km/h (2 Bft)
19.06.2023 02:01 18,9 C 17,8 C 67 % 1011,3 hPa 0,0 l/m 8,0 km/h (2 Bft) S-SO 157 0 min 0,0 UV-I 0 W/m 12,6 C 18,2 C 8,0 km/h (2 Bft)
19.06.2023 02:02 18,9 C 17,8 C 67 % 1011,3 hPa 0,0 l/m 4,8 km/h (1 Bft) S-SO 157 0 min 0,0 UV-I 0 W/m 12,6 C 18,9 C 9,7 km/h (2 Bft)
19.06.2023 02:03 18,8 C 17,8 C 67 % 1011,4 hPa 0,0 l/m 8,0 km/h (2 Bft) S-SO 157 0 min 0,0 UV-I 0 W/m 12,5 C 18,1 C 12,9 km/h (3 Bft)
19.06.2023 02:04 18,8 C 17,8 C 67 % 1011,3 hPa 0,0 l/m 6,4 km/h (2 Bft) S 180 0 min 0,0 UV-I 0 W/m 12,5 C 18,8 C 9,7 km/h (2 Bft)
19.06.2023 02:05 18,9 C 17,8 C 67 % 1011,3 hPa 0,0 l/m 4,8 km/h (1 Bft) S 180 0 min 0,0 UV-I 0 W/m 12,6 C 18,9 C 8,0 km/h (2 Bft)
19.06.2023 02:06 18,9 C 17,8 C 67 % 1011,3 hPa 0,0 l/m 8,0 km/h (2 Bft) S-SO 157 0 min 0,0 UV-I 0 W/m 12,6 C 18,2 C 11,3 km/h (2 Bft)
19.06.2023 02:07 18,9 C 17,8 C 67 % 1011,3 hPa 0,0 l/m 8,0 km/h (2 Bft) S-SO 157 0 min 0,0 UV-I 0 W/m 12,6 C 18,2 C 9,7 km/h (2 Bft)
19.06.2023 02:08 18,9 C 17,8 C 67 % 1011,4 hPa 0,0 l/m 8,0 km/h (2 Bft) S 180 0 min 0,0 UV-I 0 W/m 12,6 C 18,2 C 9,7 km/h (2 Bft)
19.06.2023 02:09 18,8 C 17,8 C 68 % 1011,4 hPa 0,0 l/m 8,0 km/h (2 Bft) S-SW 202 0 min 0,0 UV-I 0 W/m 12,8 C 18,1 C 14,5 km/h (3 Bft)
19.06.2023 02:10 18,8 C 17,8 C 68 % 1011,3 hPa 0,0 l/m 8,0 km/h (2 Bft) S-SW 202 0 min 0,0 UV-I 0 W/m 12,8 C 18,1 C 11,3 km/h (2 Bft)
19.06.2023 02:11 18,8 C 17,8 C 68 % 1011,4 hPa 0,0 l/m 9,7 km/h (2 Bft) S-SW 202 0 min 0,0 UV-I 0 W/m 12,8 C 17,4 C 12,9 km/h (3 Bft)
19.06.2023 02:12 18,9 C 17,8 C 68 % 1011,4 hPa 0,0 l/m 8,0 km/h (2 Bft) S 180 0 min 0,0 UV-I 0 W/m 12,9 C 18,2 C 11,3 km/h (2 Bft)
19.06.2023 02:13 18,9 C 17,8 C 68 % 1011,3 hPa 0,0 l/m 8,0 km/h (2 Bft) S 180 0 min 0,0 UV-I 0 W/m 12,9 C 18,2 C 11,3 km/h (2 Bft)
19.06.2023 02:14 18,8 C 17,8 C 68 % 1011,5 hPa 0,0 l/m 6,4 km/h (2 Bft) S-SW 202 0 min 0,0 UV-I 0 W/m 12,8 C 18,8 C 8,0 km/h (2 Bft)
19.06.2023 02:15 18,8 C 17,8 C 68 % 1011,4 hPa 0,0 l/m 8,0 km/h (2 Bft) S-SW 202 0 min 0,0 UV-I 0 W/m 12,8 C 18,1 C 9,7 km/h (2 Bft)
19.06.2023 02:16 18,8 C 17,8 C 68 % 1011,5 hPa 0,0 l/m 9,7 km/h (2 Bft) S-SW 202 0 min 0,0 UV-I 0 W/m 12,8 C 17,4 C 11,3 km/h (2 Bft)
19.06.2023 02:17 18,8 C 17,8 C 68 % 1011,5 hPa 0,0 l/m 9,7 km/h (2 Bft) S-SW 202 0 min 0,0 UV-I 0 W/m 12,8 C 17,4 C 12,9 km/h (3 Bft)
19.06.2023 02:18 18,8 C 17,8 C 68 % 1011,4 hPa 0,0 l/m 8,0 km/h (2 Bft) S-SW 202 0 min 0,0 UV-I 0 W/m 12,8 C 18,1 C 12,9 km/h (3 Bft)
19.06.2023 02:19 18,8 C 17,8 C 68 % 1011,4 hPa 0,0 l/m 9,7 km/h (2 Bft) S-SW 202 0 min 0,0 UV-I 0 W/m 12,8 C 17,4 C 12,9 km/h (3 Bft)
19.06.2023 02:20 18,8 C 17,8 C 68 % 1011,5 hPa 0,0 l/m 12,9 km/h (3 Bft) S 180 0 min 0,0 UV-I 0 W/m 12,8 C 16,4 C 19,3 km/h (3 Bft)
19.06.2023 02:21 18,8 C 17,8 C 68 % 1011,5 hPa 0,0 l/m 11,3 km/h (2 Bft) S 180 0 min 0,0 UV-I 0 W/m 12,8 C 16,9 C 16,1 km/h (3 Bft)
19.06.2023 02:22 18,8 C 17,8 C 68 % 1011,4 hPa 0,0 l/m 8,0 km/h (2 Bft) S-SO 157 0 min 0,0 UV-I 0 W/m 12,8 C 18,1 C 11,3 km/h (2 Bft)
19.06.2023 02:23 18,8 C 17,8 C 68 % 1011,5 hPa 0,0 l/m 8,0 km/h (2 Bft) S 180 0 min 0,0 UV-I 0 W/m 12,8 C 18,1 C 9,7 km/h (2 Bft)
19.06.2023 02:24 18,8 C 17,8 C 68 % 1011,4 hPa 0,0 l/m 8,0 km/h (2 Bft) S-SO 157 0 min 0,0 UV-I 0 W/m 12,8 C 18,1 C 12,9 km/h (3 Bft)
19.06.2023 02:25 18,8 C 17,8 C 68 % 1011,4 hPa 0,0 l/m 9,7 km/h (2 Bft) S-SO 157 0 min 0,0 UV-I 0 W/m 12,8 C 17,4 C 11,3 km/h (2 Bft)
19.06.2023 02:26 18,8 C 17,8 C 68 % 1011,4 hPa 0,0 l/m 8,0 km/h (2 Bft) S-SO 157 0 min 0,0 UV-I 0 W/m 12,8 C 18,1 C 11,3 km/h (2 Bft)
19.06.2023 02:27 18,8 C 17,8 C 68 % 1011,4 hPa 0,0 l/m 8,0 km/h (2 Bft) S-SO 157 0 min 0,0 UV-I 0 W/m 12,8 C 18,1 C 11,3 km/h (2 Bft)
19.06.2023 02:28 18,8 C 17,8 C 68 % 1011,4 hPa 0,0 l/m 9,7 km/h (2 Bft) S-SO 157 0 min 0,0 UV-I 0 W/m 12,8 C 17,4 C 11,3 km/h (2 Bft)
19.06.2023 02:29 18,8 C 17,8 C 69 % 1011,4 hPa 0,0 l/m 6,4 km/h (2 Bft) S-SO 157 0 min 0,0 UV-I 0 W/m 13,0 C 18,8 C 9,7 km/h (2 Bft)
19.06.2023 02:30 18,8 C 17,8 C 69 % 1011,4 hPa 0,0 l/m 4,8 km/h (1 Bft) S-SO 157 0 min 0,0 UV-I 0 W/m 13,0 C 18,8 C 6,4 km/h (2 Bft)
19.06.2023 02:31 18,8 C 17,8 C 69 % 1011,4 hPa 0,0 l/m 6,4 km/h (2 Bft) S-SO 157 0 min 0,0 UV-I 0 W/m 13,0 C 18,8 C 9,7 km/h (2 Bft)
19.06.2023 02:32 18,7 C 17,8 C 69 % 1011,4 hPa 0,0 l/m 4,8 km/h (1 Bft) S-SO 157 0 min 0,0 UV-I 0 W/m 12,9 C 18,7 C 8,0 km/h (2 Bft)
19.06.2023 02:33 18,7 C 17,8 C 69 % 1011,4 hPa 0,0 l/m 3,2 km/h (1 Bft) S-SO 157 0 min 0,0 UV-I 0 W/m 12,9 C 18,7 C 8,0 km/h (2 Bft)
19.06.2023 02:34 18,7 C 17,8 C 69 % 1011,4 hPa 0,0 l/m 3,2 km/h (1 Bft) S-SO 157 0 min 0,0 UV-I 0 W/m 12,9 C 18,7 C 4,8 km/h (1 Bft)
19.06.2023 02:35 18,6 C 17,2 C 69 % 1011,4 hPa 0,0 l/m 4,8 km/h (1 Bft) S-SO 157 0 min 0,0 UV-I 0 W/m 12,8 C 18,6 C 8,0 km/h (2 Bft)
19.06.2023 02:36 18,6 C 17,2 C 69 % 1011,4 hPa 0,0 l/m 8,0 km/h (2 Bft) SO 135 0 min 0,0 UV-I 0 W/m 12,8 C 17,9 C 11,3 km/h (2 Bft)
19.06.2023 02:37 18,6 C 17,2 C 69 % 1011,4 hPa 0,0 l/m 8,0 km/h (2 Bft) S-SO 157 0 min 0,0 UV-I 0 W/m 12,8 C 17,9 C 11,3 km/h (2 Bft)
19.06.2023 02:38 18,5 C 17,2 C 70 % 1011,4 hPa 0,0 l/m 9,7 km/h (2 Bft) S-SO 157 0 min 0,0 UV-I 0 W/m 12,9 C 17,1 C 14,5 km/h (3 Bft)
19.06.2023 02:39 18,5 C 17,2 C 70 % 1011,4 hPa 0,0 l/m 6,4 km/h (2 Bft) S-SO 157 0 min 0,0 UV-I 0 W/m 12,9 C 18,5 C 11,3 km/h (2 Bft)
19.06.2023 02:40 18,5 C 17,2 C 70 % 1011,5 hPa 0,0 l/m 6,4 km/h (2 Bft) S-SO 157 0 min 0,0 UV-I 0 W/m 12,9 C 18,5 C 8,0 km/h (2 Bft)
19.06.2023 02:41 18,4 C 17,2 C 70 % 1011,5 hPa 0,0 l/m 6,4 km/h (2 Bft) S-SO 157 0 min 0,0 UV-I 0 W/m 12,8 C 18,4 C 9,7 km/h (2 Bft)
19.06.2023 02:42 18,4 C 17,2 C 70 % 1011,5 hPa 0,0 l/m 3,2 km/h (1 Bft) S-SO 157 0 min 0,0 UV-I 0 W/m 12,8 C 18,4 C 6,4 km/h (2 Bft)
19.06.2023 02:43 18,4 C 16,7 C 70 % 1011,5 hPa 0,0 l/m 1,6 km/h (1 Bft) S-SO 157 0 min 0,0 UV-I 0 W/m 12,8 C 18,4 C 3,2 km/h (1 Bft)
19.06.2023 02:44 18,3 C 16,7 C 70 % 1011,4 hPa 0,0 l/m 4,8 km/h (1 Bft) S-SO 157 0 min 0,0 UV-I 0 W/m 12,7 C 18,3 C 9,7 km/h (2 Bft)
19.06.2023 02:45 18,3 C 16,7 C 70 % 1011,4 hPa 0,0 l/m 6,4 km/h (2 Bft) S-SO 157 0 min 0,0 UV-I 0 W/m 12,7 C 18,3 C 11,3 km/h (2 Bft)
19.06.2023 02:46 18,3 C 16,7 C 70 % 1011,5 hPa 0,0 l/m 6,4 km/h (2 Bft) S 180 0 min 0,0 UV-I 0 W/m 12,7 C 18,3 C 8,0 km/h (2 Bft)
19.06.2023 02:47 18,3 C 16,7 C 70 % 1011,5 hPa 0,0 l/m 6,4 km/h (2 Bft) S 180 0 min 0,0 UV-I 0 W/m 12,7 C 18,3 C 11,3 km/h (2 Bft)
19.06.2023 02:48 18,3 C 16,7 C 70 % 1011,5 hPa 0,0 l/m 6,4 km/h (2 Bft) S 180 0 min 0,0 UV-I 0 W/m 12,7 C 18,3 C 11,3 km/h (2 Bft)
19.06.2023 02:49 18,3 C 16,7 C 71 % 1011,5 hPa 0,0 l/m 4,8 km/h (1 Bft) S 180 0 min 0,0 UV-I 0 W/m 12,9 C 18,3 C 6,4 km/h (2 Bft)
19.06.2023 02:50 18,2 C 16,1 C 71 % 1011,5 hPa 0,0 l/m 6,4 km/h (2 Bft) S 180 0 min 0,0 UV-I 0 W/m 12,9 C 18,2 C 11,3 km/h (2 Bft)
19.06.2023 02:51 18,2 C 16,1 C 71 % 1011,5 hPa 0,0 l/m 4,8 km/h (1 Bft) S 180 0 min 0,0 UV-I 0 W/m 12,9 C 18,2 C 9,7 km/h (2 Bft)
19.06.2023 02:52 18,2 C 16,1 C 71 % 1011,6 hPa 0,0 l/m 4,8 km/h (1 Bft) S 180 0 min 0,0 UV-I 0 W/m 12,9 C 18,2 C 9,7 km/h (2 Bft)
19.06.2023 02:53 18,1 C 16,1 C 71 % 1011,5 hPa 0,0 l/m 6,4 km/h (2 Bft) S 180 0 min 0,0 UV-I 0 W/m 12,8 C 18,1 C 8,0 km/h (2 Bft)
19.06.2023 02:54 18,1 C 16,1 C 71 % 1011,4 hPa 0,0 l/m 6,4 km/h (2 Bft) S 180 0 min 0,0 UV-I 0 W/m 12,8 C 18,1 C 8,0 km/h (2 Bft)
19.06.2023 02:55 18,1 C 16,1 C 71 % 1011,6 hPa 0,0 l/m 4,8 km/h (1 Bft) S 180 0 min 0,0 UV-I 0 W/m 12,8 C 18,1 C 6,4 km/h (2 Bft)
19.06.2023 02:56 18,1 C 16,1 C 71 % 1011,6 hPa 0,0 l/m 6,4 km/h (2 Bft) S 180 0 min 0,0 UV-I 0 W/m 12,8 C 18,1 C 9,7 km/h (2 Bft)
19.06.2023 02:57 17,9 C 16,1 C 72 % 1011,5 hPa 0,0 l/m 6,4 km/h (2 Bft) S 180 0 min 0,0 UV-I 0 W/m 12,8 C 17,9 C 8,0 km/h (2 Bft)
19.06.2023 02:58 17,9 C 16,1 C 72 % 1011,5 hPa 0,0 l/m 6,4 km/h (2 Bft) S 180 0 min 0,0 UV-I 0 W/m 12,8 C 17,9 C 9,7 km/h (2 Bft)
19.06.2023 02:59 17,9 C 16,1 C 72 % 1011,4 hPa 0,0 l/m 6,4 km/h (2 Bft) S 180 0 min 0,0 UV-I 0 W/m 12,8 C 17,9 C 9,7 km/h (2 Bft)
19.06.2023 03:00 17,9 C 16,1 C 72 % 1011,5 hPa 0,0 l/m 6,4 km/h (2 Bft) S 180 0 min 0,0 UV-I 0 W/m 12,8 C 17,9 C 11,3 km/h (2 Bft)
19.06.2023 03:01 17,9 C 15,6 C 72 % 1011,6 hPa 0,0 l/m 8,0 km/h (2 Bft) S 180 0 min 0,0 UV-I 0 W/m 12,8 C 17,1 C 11,3 km/h (2 Bft)
19.06.2023 03:02 17,8 C 16,1 C 72 % 1011,5 hPa 0,0 l/m 8,0 km/h (2 Bft) S-SO 157 0 min 0,0 UV-I 0 W/m 12,7 C 17,0 C 9,7 km/h (2 Bft)
19.06.2023 03:03 17,8 C 16,1 C 72 % 1011,5 hPa 0,0 l/m 6,4 km/h (2 Bft) S-SO 157 0 min 0,0 UV-I 0 W/m 12,7 C 17,8 C 9,7 km/h (2 Bft)
19.06.2023 03:04 17,8 C 15,6 C 72 % 1011,4 hPa 0,0 l/m 6,4 km/h (2 Bft) S 180 0 min 0,0 UV-I 0 W/m 12,7 C 17,8 C 11,3 km/h (2 Bft)
19.06.2023 03:05 17,8 C 16,1 C 72 % 1011,5 hPa 0,0 l/m 8,0 km/h (2 Bft) S 180 0 min 0,0 UV-I 0 W/m 12,7 C 17,0 C 14,5 km/h (3 Bft)
19.06.2023 03:06 17,8 C 16,1 C 72 % 1011,4 hPa 0,0 l/m 3,2 km/h (1 Bft) S 180 0 min 0,0 UV-I 0 W/m 12,7 C 17,8 C 4,8 km/h (1 Bft)
19.06.2023 03:07 17,7 C 15,6 C 73 % 1011,4 hPa 0,0 l/m 6,4 km/h (2 Bft) S 180 0 min 0,0 UV-I 0 W/m 12,8 C 17,7 C 11,3 km/h (2 Bft)
19.06.2023 03:08 17,7 C 15,6 C 73 % 1011,4 hPa 0,0 l/m 3,2 km/h (1 Bft) S 180 0 min 0,0 UV-I 0 W/m 12,8 C 17,7 C 4,8 km/h (1 Bft)
19.06.2023 03:09 17,6 C 15,6 C 73 % 1011,4 hPa 0,0 l/m 4,8 km/h (1 Bft) S 180 0 min 0,0 UV-I 0 W/m 12,7 C 17,6 C 6,4 km/h (2 Bft)
19.06.2023 03:10 17,6 C 15,6 C 73 % 1011,5 hPa 0,0 l/m 3,2 km/h (1 Bft) S 180 0 min 0,0 UV-I 0 W/m 12,7 C 17,6 C 4,8 km/h (1 Bft)
19.06.2023 03:11 17,5 C 15,6 C 73 % 1011,4 hPa 0,0 l/m 3,2 km/h (1 Bft) S 180 0 min 0,0 UV-I 0 W/m 12,6 C 17,5 C 4,8 km/h (1 Bft)
19.06.2023 03:12 17,5 C 15,6 C 74 % 1011,4 hPa 0,0 l/m 3,2 km/h (1 Bft) S 180 0 min 0,0 UV-I 0 W/m 12,8 C 17,5 C 3,2 km/h (1 Bft)
19.06.2023 03:13 17,4 C 15,0 C 74 % 1011,5 hPa 0,0 l/m 3,2 km/h (1 Bft) S 180 0 min 0,0 UV-I 0 W/m 12,7 C 17,4 C 4,8 km/h (1 Bft)
19.06.2023 03:14 17,4 C 15,0 C 74 % 1011,5 hPa 0,0 l/m 3,2 km/h (1 Bft) S 180 0 min 0,0 UV-I 0 W/m 12,7 C 17,4 C 4,8 km/h (1 Bft)
19.06.2023 03:15 17,4 C 15,0 C 74 % 1011,5 hPa 0,0 l/m 3,2 km/h (1 Bft) S 180 0 min 0,0 UV-I 0 W/m 12,7 C 17,4 C 4,8 km/h (1 Bft)
19.06.2023 03:16 17,3 C 15,0 C 74 % 1011,5 hPa 0,0 l/m 4,8 km/h (1 Bft) S-SW 202 0 min 0,0 UV-I 0 W/m 12,6 C 17,3 C 8,0 km/h (2 Bft)
19.06.2023 03:17 17,3 C 15,0 C 74 % 1011,5 hPa 0,0 l/m 4,8 km/h (1 Bft) SW 225 0 min 0,0 UV-I 0 W/m 12,6 C 17,3 C 6,4 km/h (2 Bft)
19.06.2023 03:18 17,3 C 15,0 C 74 % 1011,5 hPa 0,0 l/m 3,2 km/h (1 Bft) SW 225 0 min 0,0 UV-I 0 W/m 12,6 C 17,3 C 4,8 km/h (1 Bft)
19.06.2023 03:19 17,2 C 15,0 C 74 % 1011,5 hPa 0,0 l/m 3,2 km/h (1 Bft) SW 225 0 min 0,0 UV-I 0 W/m 12,5 C 17,2 C 4,8 km/h (1 Bft)
19.06.2023 03:20 17,2 C 14,4 C 74 % 1011,6 hPa 0,0 l/m 1,6 km/h (1 Bft) SW 225 0 min 0,0 UV-I 0 W/m 12,5 C 17,2 C 3,2 km/h (1 Bft)
19.06.2023 03:21 17,2 C 14,4 C 74 % 1011,6 hPa 0,0 l/m 1,6 km/h (1 Bft) SW 225 0 min 0,0 UV-I 0 W/m 12,5 C 17,2 C 3,2 km/h (1 Bft)
19.06.2023 03:22 17,1 C 14,4 C 74 % 1011,6 hPa 0,0 l/m 1,6 km/h (1 Bft) SW 225 0 min 0,0 UV-I 0 W/m 12,4 C 17,1 C 3,2 km/h (1 Bft)
19.06.2023 03:23 16,9 C 14,4 C 74 % 1011,5 hPa 0,0 l/m 1,6 km/h (1 Bft) SW 225 0 min 0,0 UV-I 0 W/m 12,2 C 16,9 C 3,2 km/h (1 Bft)
19.06.2023 03:24 16,7 C 14,4 C 75 % 1011,5 hPa 0,0 l/m 1,6 km/h (1 Bft) SW 225 0 min 0,0 UV-I 0 W/m 12,2 C 16,7 C 3,2 km/h (1 Bft)
19.06.2023 03:25 16,6 C 13,9 C 75 % 1011,5 hPa 0,0 l/m 1,6 km/h (1 Bft) SW 225 0 min 0,0 UV-I 0 W/m 12,1 C 16,6 C 3,2 km/h (1 Bft)
19.06.2023 03:26 16,5 C 13,9 C 75 % 1011,5 hPa 0,0 l/m 1,6 km/h (1 Bft) SW 225 0 min 0,0 UV-I 0 W/m 12,1 C 16,5 C 1,6 km/h (1 Bft)
19.06.2023 03:27 16,4 C 13,9 C 76 % 1011,6 hPa 0,0 l/m 1,6 km/h (1 Bft) SW 225 0 min 0,0 UV-I 0 W/m 12,2 C 16,4 C 1,6 km/h (1 Bft)
19.06.2023 03:28 16,5 C 13,9 C 76 % 1011,6 hPa 0,0 l/m 1,6 km/h (1 Bft) SW 225 0 min 0,0 UV-I 0 W/m 12,3 C 16,5 C 3,2 km/h (1 Bft)
19.06.2023 03:29 16,5 C 13,9 C 76 % 1011,5 hPa 0,0 l/m 3,2 km/h (1 Bft) SW 225 0 min 0,0 UV-I 0 W/m 12,3 C 16,5 C 3,2 km/h (1 Bft)
19.06.2023 03:30 16,5 C 13,9 C 76 % 1011,4 hPa 0,0 l/m 1,6 km/h (1 Bft) SW 225 0 min 0,0 UV-I 0 W/m 12,3 C 16,5 C 3,2 km/h (1 Bft)
19.06.2023 03:31 16,6 C 13,9 C 76 % 1011,6 hPa 0,0 l/m 0,0 km/h (0 Bft) SW 225 0 min 0,0 UV-I 0 W/m 12,3 C 16,6 C 1,6 km/h (1 Bft)
19.06.2023 03:32 16,6 C 13,9 C 75 % 1011,6 hPa 0,0 l/m 1,6 km/h (1 Bft) SW 225 0 min 0,0 UV-I 0 W/m 12,1 C 16,6 C 1,6 km/h (1 Bft)
19.06.2023 03:33 16,6 C 13,9 C 75 % 1011,6 hPa 0,0 l/m 0,0 km/h (0 Bft) SW 225 0 min 0,0 UV-I 0 W/m 12,1 C 16,6 C 1,6 km/h (1 Bft)
19.06.2023 03:34 16,5 C 13,3 C 75 % 1011,5 hPa 0,0 l/m 1,6 km/h (1 Bft) SW 225 0 min 0,0 UV-I 0 W/m 12,1 C 16,5 C 3,2 km/h (1 Bft)
19.06.2023 03:35 16,4 C 13,3 C 76 % 1011,5 hPa 0,0 l/m 1,6 km/h (1 Bft) SW 225 0 min 0,0 UV-I 0 W/m 12,2 C 16,4 C 3,2 km/h (1 Bft)
19.06.2023 03:36 16,3 C 13,3 C 76 % 1011,4 hPa 0,0 l/m 1,6 km/h (1 Bft) SW 225 0 min 0,0 UV-I 0 W/m 12,1 C 16,3 C 1,6 km/h (1 Bft)
19.06.2023 03:37 16,2 C 13,3 C 76 % 1011,5 hPa 0,0 l/m 1,6 km/h (1 Bft) SW 225 0 min 0,0 UV-I 0 W/m 12,0 C 16,2 C 1,6 km/h (1 Bft)
19.06.2023 03:38 16,1 C 13,3 C 76 % 1011,4 hPa 0,0 l/m 0,0 km/h (0 Bft) SW 225 0 min 0,0 UV-I 0 W/m 11,9 C 16,1 C 1,6 km/h (1 Bft)
19.06.2023 03:39 15,9 C 13,3 C 76 % 1011,5 hPa 0,0 l/m 1,6 km/h (1 Bft) SW 225 0 min 0,0 UV-I 0 W/m 11,7 C 15,9 C 1,6 km/h (1 Bft)
19.06.2023 03:40 15,8 C 12,8 C 76 % 1011,4 hPa 0,0 l/m 0,0 km/h (0 Bft) SW 225 0 min 0,0 UV-I 0 W/m 11,6 C 15,8 C 1,6 km/h (1 Bft)
19.06.2023 03:41 15,8 C 12,8 C 77 % 1011,4 hPa 0,0 l/m 0,0 km/h (0 Bft) SW 225 0 min 0,0 UV-I 0 W/m 11,8 C 15,8 C 3,2 km/h (1 Bft)
19.06.2023 03:42 15,8 C 12,8 C 76 % 1011,5 hPa 0,0 l/m 1,6 km/h (1 Bft) SW 225 0 min 0,0 UV-I 0 W/m 11,6 C 15,8 C 3,2 km/h (1 Bft)
19.06.2023 03:43 15,7 C 12,8 C 77 % 1011,5 hPa 0,0 l/m 0,0 km/h (0 Bft) SW 225 0 min 0,0 UV-I 0 W/m 11,7 C 15,7 C 1,6 km/h (1 Bft)
19.06.2023 03:44 15,7 C 12,8 C 77 % 1011,6 hPa 0,0 l/m 1,6 km/h (1 Bft) SW 225 0 min 0,0 UV-I 0 W/m 11,7 C 15,7 C 3,2 km/h (1 Bft)
19.06.2023 03:45 15,6 C 12,8 C 77 % 1011,6 hPa 0,0 l/m 1,6 km/h (1 Bft) SW 225 0 min 0,0 UV-I 0 W/m 11,6 C 15,6 C 3,2 km/h (1 Bft)
19.06.2023 03:46 15,6 C 12,8 C 77 % 1011,6 hPa 0,0 l/m 1,6 km/h (1 Bft) SW 225 0 min 0,0 UV-I 0 W/m 11,6 C 15,6 C 3,2 km/h (1 Bft)
19.06.2023 03:47 15,6 C 12,8 C 78 % 1011,6 hPa 0,0 l/m 4,8 km/h (1 Bft) S-SO 157 0 min 0,0 UV-I 0 W/m 11,8 C 15,6 C 8,0 km/h (2 Bft)
19.06.2023 03:48 15,7 C 13,3 C 78 % 1011,6 hPa 0,0 l/m 4,8 km/h (1 Bft) S 180 0 min 0,0 UV-I 0 W/m 11,9 C 15,7 C 8,0 km/h (2 Bft)
19.06.2023 03:49 15,8 C 13,9 C 78 % 1011,7 hPa 0,0 l/m 3,2 km/h (1 Bft) S 180 0 min 0,0 UV-I 0 W/m 12,0 C 15,8 C 6,4 km/h (2 Bft)
19.06.2023 03:50 15,9 C 13,9 C 77 % 1011,6 hPa 0,0 l/m 3,2 km/h (1 Bft) S 180 0 min 0,0 UV-I 0 W/m 11,9 C 15,9 C 4,8 km/h (1 Bft)
19.06.2023 03:51 16,0 C 13,9 C 77 % 1011,7 hPa 0,0 l/m 6,4 km/h (2 Bft) S 180 0 min 0,0 UV-I 0 W/m 12,0 C 16,0 C 8,0 km/h (2 Bft)
19.06.2023 03:52 16,1 C 13,9 C 77 % 1011,8 hPa 0,0 l/m 6,4 km/h (2 Bft) S 180 0 min 0,0 UV-I 0 W/m 12,1 C 16,1 C 9,7 km/h (2 Bft)
19.06.2023 03:53 16,2 C 13,9 C 77 % 1011,8 hPa 0,0 l/m 6,4 km/h (2 Bft) S 180 0 min 0,0 UV-I 0 W/m 12,2 C 16,2 C 9,7 km/h (2 Bft)
19.06.2023 03:54 16,3 C 13,9 C 77 % 1011,8 hPa 0,0 l/m 4,8 km/h (1 Bft) S 180 0 min 0,0 UV-I 0 W/m 12,3 C 16,3 C 8,0 km/h (2 Bft)
19.06.2023 03:55 16,3 C 14,4 C 77 % 1011,9 hPa 0,0 l/m 9,7 km/h (2 Bft) S 180 0 min 0,0 UV-I 0 W/m 12,3 C 14,7 C 12,9 km/h (3 Bft)
19.06.2023 03:56 16,4 C 14,4 C 77 % 1011,8 hPa 0,0 l/m 9,7 km/h (2 Bft) S 180 0 min 0,0 UV-I 0 W/m 12,4 C 14,8 C 14,5 km/h (3 Bft)
19.06.2023 03:57 16,6 C 15,0 C 77 % 1011,8 hPa 0,0 l/m 9,7 km/h (2 Bft) S 180 0 min 0,0 UV-I 0 W/m 12,5 C 15,0 C 17,7 km/h (3 Bft)
19.06.2023 03:58 16,7 C 15,0 C 77 % 1011,8 hPa 0,0 l/m 8,0 km/h (2 Bft) S 180 0 min 0,0 UV-I 0 W/m 12,6 C 15,9 C 9,7 km/h (2 Bft)
19.06.2023 03:59 16,8 C 15,6 C 76 % 1011,8 hPa 0,0 l/m 14,5 km/h (3 Bft) S 180 0 min 0,0 UV-I 0 W/m 12,5 C 13,5 C 19,3 km/h (3 Bft)
19.06.2023 04:00 16,9 C 15,6 C 76 % 1011,8 hPa 0,0 l/m 9,7 km/h (2 Bft) S 180 0 min 0,0 UV-I 0 W/m 12,6 C 15,3 C 14,5 km/h (3 Bft)
19.06.2023 04:01 17,1 C 15,6 C 76 % 1011,8 hPa 0,0 l/m 9,7 km/h (2 Bft) S 180 0 min 0,0 UV-I 0 W/m 12,8 C 15,6 C 14,5 km/h (3 Bft)
19.06.2023 04:02 17,2 C 16,1 C 75 % 1011,9 hPa 0,0 l/m 12,9 km/h (3 Bft) S 180 0 min 0,0 UV-I 0 W/m 12,7 C 14,5 C 19,3 km/h (3 Bft)
19.06.2023 04:03 17,2 C 16,1 C 76 % 1011,8 hPa 0,0 l/m 9,7 km/h (2 Bft) S 180 0 min 0,0 UV-I 0 W/m 12,9 C 15,7 C 19,3 km/h (3 Bft)
19.06.2023 04:04 17,3 C 16,1 C 75 % 1011,7 hPa 0,0 l/m 9,7 km/h (2 Bft) S 180 0 min 0,0 UV-I 0 W/m 12,8 C 15,8 C 14,5 km/h (3 Bft)
19.06.2023 04:05 17,3 C 16,1 C 75 % 1011,8 hPa 0,0 l/m 8,0 km/h (2 Bft) S 180 0 min 0,0 UV-I 0 W/m 12,8 C 16,5 C 11,3 km/h (2 Bft)
19.06.2023 04:06 17,4 C 16,1 C 75 % 1011,7 hPa 0,0 l/m 9,7 km/h (2 Bft) S-SO 157 0 min 0,0 UV-I 0 W/m 12,9 C 15,9 C 17,7 km/h (3 Bft)
19.06.2023 04:07 17,4 C 16,1 C 75 % 1011,8 hPa 0,0 l/m 8,0 km/h (2 Bft) S 180 0 min 0,0 UV-I 0 W/m 12,9 C 16,6 C 11,3 km/h (2 Bft)
19.06.2023 04:08 17,4 C 16,1 C 75 % 1011,8 hPa 0,0 l/m 9,7 km/h (2 Bft) S 180 0 min 0,0 UV-I 0 W/m 12,9 C 15,9 C 12,9 km/h (3 Bft)
19.06.2023 04:09 17,4 C 16,1 C 75 % 1011,9 hPa 0,0 l/m 12,9 km/h (3 Bft) S 180 0 min 0,0 UV-I 0 W/m 12,9 C 14,7 C 19,3 km/h (3 Bft)
19.06.2023 04:10 17,4 C 16,1 C 75 % 1011,8 hPa 0,0 l/m 12,9 km/h (3 Bft) S 180 0 min 0,0 UV-I 0 W/m 12,9 C 14,7 C 19,3 km/h (3 Bft)
19.06.2023 04:11 17,4 C 16,1 C 75 % 1011,9 hPa 0,0 l/m 11,3 km/h (2 Bft) S-SW 202 0 min 0,0 UV-I 0 W/m 12,9 C 15,3 C 14,5 km/h (3 Bft)
19.06.2023 04:12 17,5 C 16,1 C 75 % 1011,8 hPa 0,0 l/m 11,3 km/h (2 Bft) S 180 0 min 0,0 UV-I 0 W/m 13,0 C 15,4 C 14,5 km/h (3 Bft)
19.06.2023 04:13 17,5 C 16,1 C 75 % 1011,8 hPa 0,0 l/m 8,0 km/h (2 Bft) S 180 0 min 0,0 UV-I 0 W/m 13,0 C 16,7 C 11,3 km/h (2 Bft)
19.06.2023 04:14 17,5 C 16,1 C 75 % 1011,8 hPa 0,0 l/m 6,4 km/h (2 Bft) S 180 0 min 0,0 UV-I 0 W/m 13,0 C 17,5 C 9,7 km/h (2 Bft)
19.06.2023 04:15 17,4 C 16,1 C 75 % 1011,8 hPa 0,0 l/m 9,7 km/h (2 Bft) S 180 0 min 0,0 UV-I 0 W/m 12,9 C 15,9 C 12,9 km/h (3 Bft)
19.06.2023 04:16 17,4 C 16,1 C 75 % 1011,9 hPa 0,0 l/m 9,7 km/h (2 Bft) S-SW 202 0 min 0,0 UV-I 0 W/m 12,9 C 15,9 C 14,5 km/h (3 Bft)
19.06.2023 04:17 17,4 C 16,1 C 75 % 1011,9 hPa 0,0 l/m 12,9 km/h (3 Bft) S 180 0 min 0,0 UV-I 0 W/m 12,9 C 14,7 C 17,7 km/h (3 Bft)
19.06.2023 04:18 17,4 C 16,1 C 75 % 1012,0 hPa 0,0 l/m 16,1 km/h (3 Bft) S 180 0 min 0,0 UV-I 0 W/m 12,9 C 13,8 C 22,5 km/h (4 Bft)
19.06.2023 04:19 17,5 C 16,1 C 76 % 1011,9 hPa 0,0 l/m 12,9 km/h (3 Bft) S 180 0 min 0,0 UV-I 0 W/m 13,2 C 14,9 C 22,5 km/h (4 Bft)
19.06.2023 04:20 17,5 C 16,1 C 75 % 1011,9 hPa 0,0 l/m 8,0 km/h (2 Bft) S 180 0 min 0,0 UV-I 0 W/m 13,0 C 16,7 C 22,5 km/h (4 Bft)
19.06.2023 04:21 17,5 C 16,1 C 75 % 1012,0 hPa 0,0 l/m 6,4 km/h (2 Bft) S 180 0 min 0,0 UV-I 0 W/m 13,0 C 17,5 C 9,7 km/h (2 Bft)
19.06.2023 04:22 17,4 C 16,1 C 76 % 1011,9 hPa 0,0 l/m 12,9 km/h (3 Bft) S-SW 202 0 min 0,0 UV-I 0 W/m 13,1 C 14,7 C 17,7 km/h (3 Bft)
19.06.2023 04:23 17,4 C 16,1 C 76 % 1012,0 hPa 0,0 l/m 9,7 km/h (2 Bft) S 180 0 min 0,0 UV-I 0 W/m 13,1 C 15,9 C 14,5 km/h (3 Bft)
19.06.2023 04:24 17,4 C 16,1 C 76 % 1012,0 hPa 0,0 l/m 9,7 km/h (2 Bft) S 180 0 min 0,0 UV-I 0 W/m 13,1 C 15,9 C 12,9 km/h (3 Bft)
19.06.2023 04:25 17,4 C 16,1 C 76 % 1012,1 hPa 0,0 l/m 12,9 km/h (3 Bft) S 180 0 min 0,0 UV-I 0 W/m 13,1 C 14,7 C 19,3 km/h (3 Bft)
19.06.2023 04:26 17,4 C 16,1 C 76 % 1012,0 hPa 0,0 l/m 12,9 km/h (3 Bft) S 180 0 min 0,0 UV-I 0 W/m 13,1 C 14,7 C 19,3 km/h (3 Bft)
19.06.2023 04:27 17,4 C 16,1 C 76 % 1012,0 hPa 0,0 l/m 9,7 km/h (2 Bft) S 180 0 min 0,0 UV-I 0 W/m 13,1 C 15,9 C 16,1 km/h (3 Bft)
19.06.2023 04:28 17,4 C 16,1 C 76 % 1012,1 hPa 0,0 l/m 11,3 km/h (2 Bft) S 180 0 min 0,0 UV-I 0 W/m 13,1 C 15,3 C 19,3 km/h (3 Bft)
19.06.2023 04:29 17,3 C 16,1 C 76 % 1012,0 hPa 0,0 l/m 9,7 km/h (2 Bft) S 180 0 min 0,0 UV-I 0 W/m 13,0 C 15,8 C 16,1 km/h (3 Bft)
19.06.2023 04:30 17,3 C 16,1 C 76 % 1011,9 hPa 0,0 l/m 9,7 km/h (2 Bft) S 180 0 min 0,0 UV-I 0 W/m 13,0 C 15,8 C 17,7 km/h (3 Bft)
19.06.2023 04:31 17,3 C 16,1 C 77 % 1011,9 hPa 0,0 l/m 12,9 km/h (3 Bft) S 180 0 min 0,0 UV-I 0 W/m 13,2 C 14,6 C 17,7 km/h (3 Bft)
19.06.2023 04:32 17,3 C 16,1 C 77 % 1011,9 hPa 0,0 l/m 16,1 km/h (3 Bft) S 180 0 min 0,0 UV-I 0 W/m 13,2 C 13,7 C 24,1 km/h (4 Bft)
19.06.2023 04:33 17,3 C 16,1 C 77 % 1011,9 hPa 0,0 l/m 11,3 km/h (2 Bft) S 180 0 min 0,0 UV-I 0 W/m 13,2 C 15,2 C 19,3 km/h (3 Bft)
19.06.2023 04:34 17,3 C 16,1 C 77 % 1012,0 hPa 0,0 l/m 14,5 km/h (3 Bft) S-SW 202 0 min 0,0 UV-I 0 W/m 13,2 C 14,1 C 25,7 km/h (4 Bft)
19.06.2023 04:35 17,2 C 16,1 C 77 % 1012,0 hPa 0,0 l/m 11,3 km/h (2 Bft) S 180 0 min 0,0 UV-I 0 W/m 13,1 C 15,1 C 24,1 km/h (4 Bft)
19.06.2023 04:36 17,2 C 16,1 C 77 % 1012,0 hPa 0,0 l/m 9,7 km/h (2 Bft) S 180 0 min 0,0 UV-I 0 W/m 13,1 C 15,7 C 11,3 km/h (2 Bft)
19.06.2023 04:37 17,2 C 16,1 C 77 % 1012,0 hPa 0,0 l/m 12,9 km/h (3 Bft) S 180 0 min 0,0 UV-I 0 W/m 13,1 C 14,5 C 19,3 km/h (3 Bft)
19.06.2023 04:38 17,2 C 16,1 C 77 % 1012,1 hPa 0,0 l/m 14,5 km/h (3 Bft) S 180 0 min 0,0 UV-I 0 W/m 13,1 C 14,0 C 24,1 km/h (4 Bft)
19.06.2023 04:39 17,1 C 16,1 C 78 % 1012,0 hPa 0,0 l/m 9,7 km/h (2 Bft) S 180 0 min 0,0 UV-I 0 W/m 13,2 C 15,6 C 17,7 km/h (3 Bft)
19.06.2023 04:40 17,1 C 16,1 C 78 % 1012,1 hPa 0,0 l/m 12,9 km/h (3 Bft) S 180 0 min 0,0 UV-I 0 W/m 13,2 C 14,4 C 22,5 km/h (4 Bft)
19.06.2023 04:41 17,1 C 16,1 C 78 % 1012,1 hPa 0,0 l/m 9,7 km/h (2 Bft) S 180 0 min 0,0 UV-I 0 W/m 13,2 C 15,6 C 16,1 km/h (3 Bft)
19.06.2023 04:42 17,1 C 16,1 C 78 % 1012,0 hPa 0,0 l/m 11,3 km/h (2 Bft) S 180 0 min 0,0 UV-I 0 W/m 13,2 C 14,9 C 17,7 km/h (3 Bft)
19.06.2023 04:43 17,0 C 16,1 C 78 % 1012,1 hPa 0,0 l/m 8,0 km/h (2 Bft) S-SW 202 0 min 0,0 UV-I 0 W/m 13,1 C 16,2 C 11,3 km/h (2 Bft)
19.06.2023 04:44 16,9 C 15,6 C 78 % 1012,2 hPa 0,0 l/m 11,3 km/h (2 Bft) S 180 0 min 0,0 UV-I 0 W/m 13,0 C 14,7 C 14,5 km/h (3 Bft)
19.06.2023 04:45 16,9 C 15,6 C 78 % 1012,1 hPa 0,0 l/m 9,7 km/h (2 Bft) S-SW 202 0 min 0,0 UV-I 0 W/m 13,0 C 15,3 C 12,9 km/h (3 Bft)
19.06.2023 04:46 16,9 C 15,6 C 79 % 1012,2 hPa 0,0 l/m 9,7 km/h (2 Bft) S-SW 202 0 min 0,0 UV-I 0 W/m 13,2 C 15,3 C 14,5 km/h (3 Bft)
19.06.2023 04:47 16,8 C 15,6 C 79 % 1012,2 hPa 0,0 l/m 9,7 km/h (2 Bft) S-SW 202 0 min 0,0 UV-I 0 W/m 13,1 C 15,2 C 14,5 km/h (3 Bft)
19.06.2023 04:48 16,8 C 15,6 C 79 % 1012,1 hPa 0,0 l/m 9,7 km/h (2 Bft) S-SW 202 0 min 0,0 UV-I 0 W/m 13,1 C 15,2 C 14,5 km/h (3 Bft)
19.06.2023 04:49 16,8 C 15,6 C 79 % 1012,0 hPa 0,0 l/m 12,9 km/h (3 Bft) S 180 0 min 0,0 UV-I 0 W/m 13,1 C 14,0 C 17,7 km/h (3 Bft)
19.06.2023 04:50 16,8 C 15,6 C 80 % 1012,1 hPa 0,0 l/m 11,3 km/h (2 Bft) S-SW 202 0 min 0,0 UV-I 0 W/m 13,3 C 14,6 C 16,1 km/h (3 Bft)
19.06.2023 04:51 16,8 C 15,6 C 80 % 1012,0 hPa 0,0 l/m 12,9 km/h (3 Bft) S 180 0 min 0,0 UV-I 0 W/m 13,3 C 14,0 C 17,7 km/h (3 Bft)
19.06.2023 04:52 16,7 C 15,6 C 80 % 1012,1 hPa 0,0 l/m 8,0 km/h (2 Bft) S-SW 202 0 min 0,0 UV-I 0 W/m 13,2 C 15,9 C 14,5 km/h (3 Bft)
19.06.2023 04:53 16,7 C 15,6 C 80 % 1012,1 hPa 0,0 l/m 11,3 km/h (2 Bft) S 180 0 min 0,0 UV-I 0 W/m 13,2 C 14,5 C 16,1 km/h (3 Bft)
19.06.2023 04:54 16,7 C 15,6 C 80 % 1012,0 hPa 0,0 l/m 12,9 km/h (3 Bft) S-SW 202 0 min 0,0 UV-I 0 W/m 13,2 C 13,9 C 16,1 km/h (3 Bft)
19.06.2023 04:55 16,7 C 15,6 C 80 % 1012,1 hPa 0,0 l/m 14,5 km/h (3 Bft) S 180 0 min 0,0 UV-I 0 W/m 13,2 C 13,4 C 19,3 km/h (3 Bft)
19.06.2023 04:56 16,7 C 15,6 C 80 % 1012,1 hPa 0,0 l/m 16,1 km/h (3 Bft) S-SW 202 0 min 0,0 UV-I 0 W/m 13,2 C 12,9 C 25,7 km/h (4 Bft)
19.06.2023 04:57 16,7 C 15,6 C 80 % 1012,1 hPa 0,0 l/m 12,9 km/h (3 Bft) S 180 0 min 0,0 UV-I 0 W/m 13,2 C 13,9 C 16,1 km/h (3 Bft)
19.06.2023 04:58 16,7 C 15,6 C 81 % 1012,2 hPa 0,0 l/m 11,3 km/h (2 Bft) S 180 0 min 0,0 UV-I 0 W/m 13,4 C 14,5 C 14,5 km/h (3 Bft)
19.06.2023 04:59 16,6 C 15,6 C 81 % 1012,1 hPa 0,0 l/m 12,9 km/h (3 Bft) S 180 0 min 0,0 UV-I 0 W/m 13,3 C 13,8 C 16,1 km/h (3 Bft)
19.06.2023 05:00 16,6 C 15,6 C 81 % 1012,2 hPa 0,0 l/m 12,9 km/h (3 Bft) S 180 0 min 0,0 UV-I 0 W/m 13,3 C 13,8 C 19,3 km/h (3 Bft)
19.06.2023 05:01 16,6 C 15,6 C 81 % 1012,3 hPa 0,0 l/m 9,7 km/h (2 Bft) S-SW 202 0 min 0,0 UV-I 0 W/m 13,3 C 15,0 C 17,7 km/h (3 Bft)
19.06.2023 05:02 16,6 C 15,6 C 81 % 1012,3 hPa 0,0 l/m 12,9 km/h (3 Bft) S 180 0 min 0,0 UV-I 0 W/m 13,3 C 13,8 C 16,1 km/h (3 Bft)
19.06.2023 05:03 16,5 C 15,6 C 81 % 1012,2 hPa 0,0 l/m 11,3 km/h (2 Bft) S-SW 202 0 min 0,0 UV-I 0 W/m 13,2 C 14,3 C 17,7 km/h (3 Bft)
19.06.2023 05:04 16,5 C 15,6 C 81 % 1012,1 hPa 0,0 l/m 9,7 km/h (2 Bft) S-SW 202 0 min 0,0 UV-I 0 W/m 13,2 C 14,9 C 12,9 km/h (3 Bft)
19.06.2023 05:05 16,4 C 15,6 C 82 % 1012,1 hPa 0,0 l/m 11,3 km/h (2 Bft) S 180 0 min 0,0 UV-I 0 W/m 13,3 C 14,1 C 16,1 km/h (3 Bft)
19.06.2023 05:06 16,4 C 15,6 C 82 % 1012,1 hPa 0,0 l/m 9,7 km/h (2 Bft) S 180 0 min 0,0 UV-I 0 W/m 13,3 C 14,8 C 17,7 km/h (3 Bft)
19.06.2023 05:07 16,4 C 15,0 C 82 % 1012,2 hPa 0,0 l/m 11,3 km/h (2 Bft) S 180 0 min 0,0 UV-I 0 W/m 13,3 C 14,1 C 19,3 km/h (3 Bft)
19.06.2023 05:08 16,4 C 15,6 C 82 % 1012,2 hPa 0,0 l/m 12,9 km/h (3 Bft) S 180 0 min 0,0 UV-I 0 W/m 13,3 C 13,6 C 16,1 km/h (3 Bft)
19.06.2023 05:09 16,4 C 15,0 C 82 % 1012,3 hPa 0,0 l/m 8,0 km/h (2 Bft) S 180 0 min 0,0 UV-I 0 W/m 13,3 C 15,6 C 12,9 km/h (3 Bft)
19.06.2023 05:10 16,4 C 15,0 C 82 % 1012,2 hPa 0,0 l/m 8,0 km/h (2 Bft) S 180 0 min 0,0 UV-I 0 W/m 13,3 C 15,6 C 12,9 km/h (3 Bft)
19.06.2023 05:11 16,3 C 15,0 C 82 % 1012,3 hPa 0,0 l/m 11,3 km/h (2 Bft) S-SW 202 0 min 0,0 UV-I 0 W/m 13,2 C 14,0 C 17,7 km/h (3 Bft)
19.06.2023 05:12 16,3 C 15,0 C 82 % 1012,4 hPa 0,0 l/m 8,0 km/h (2 Bft) S 180 0 min 0,0 UV-I 0 W/m 13,2 C 15,5 C 17,7 km/h (3 Bft)
19.06.2023 05:13 16,3 C 15,0 C 82 % 1012,3 hPa 0,0 l/m 9,7 km/h (2 Bft) S-SW 202 0 min 0,0 UV-I 0 W/m 13,2 C 14,7 C 16,1 km/h (3 Bft)
19.06.2023 05:14 16,3 C 15,0 C 82 % 1012,3 hPa 0,0 l/m 8,0 km/h (2 Bft) S 180 0 min 0,0 UV-I 0 W/m 13,2 C 15,5 C 14,5 km/h (3 Bft)
19.06.2023 05:15 16,3 C 15,0 C 82 % 1012,3 hPa 0,0 l/m 11,3 km/h (2 Bft) S-SW 202 0 min 0,0 UV-I 0 W/m 13,2 C 14,0 C 16,1 km/h (3 Bft)
19.06.2023 05:16 16,2 C 15,0 C 83 % 1012,4 hPa 0,0 l/m 9,7 km/h (2 Bft) S 180 0 min 0,0 UV-I 0 W/m 13,3 C 14,6 C 12,9 km/h (3 Bft)
19.06.2023 05:17 16,2 C 15,0 C 83 % 1012,4 hPa 0,0 l/m 11,3 km/h (2 Bft) S 180 0 min 0,0 UV-I 0 W/m 13,3 C 13,9 C 16,1 km/h (3 Bft)
19.06.2023 05:18 16,2 C 15,0 C 83 % 1012,4 hPa 0,0 l/m 8,0 km/h (2 Bft) S 180 0 min 0,0 UV-I 0 W/m 13,3 C 15,4 C 14,5 km/h (3 Bft)
19.06.2023 05:19 16,2 C 15,0 C 83 % 1012,5 hPa 0,0 l/m 6,4 km/h (2 Bft) S 180 0 min 0,0 UV-I 0 W/m 13,3 C 16,2 C 12,9 km/h (3 Bft)
19.06.2023 05:20 16,2 C 15,0 C 83 % 1012,4 hPa 0,0 l/m 8,0 km/h (2 Bft) S 180 0 min 0,0 UV-I 0 W/m 13,3 C 15,4 C 12,9 km/h (3 Bft)
19.06.2023 05:21 16,2 C 15,0 C 83 % 1012,4 hPa 0,0 l/m 9,7 km/h (2 Bft) S 180 0 min 0,0 UV-I 0 W/m 13,3 C 14,6 C 12,9 km/h (3 Bft)
19.06.2023 05:22 16,2 C 15,0 C 83 % 1012,5 hPa 0,0 l/m 12,9 km/h (3 Bft) S 180 0 min 0,0 UV-I 0 W/m 13,3 C 13,3 C 19,3 km/h (3 Bft)
19.06.2023 05:23 16,1 C 15,0 C 83 % 1012,5 hPa 0,0 l/m 12,9 km/h (3 Bft) S-SW 202 0 min 0,0 UV-I 0 W/m 13,2 C 13,2 C 16,1 km/h (3 Bft)
19.06.2023 05:24 16,1 C 15,0 C 83 % 1012,5 hPa 0,0 l/m 11,3 km/h (2 Bft) S 180 0 min 0,0 UV-I 0 W/m 13,2 C 13,8 C 16,1 km/h (3 Bft)
19.06.2023 05:25 16,2 C 15,0 C 83 % 1012,5 hPa 0,0 l/m 11,3 km/h (2 Bft) S 180 0 min 0,0 UV-I 0 W/m 13,3 C 13,9 C 19,3 km/h (3 Bft)
19.06.2023 05:26 16,1 C 15,6 C 83 % 1012,6 hPa 0,0 l/m 8,0 km/h (2 Bft) S 180 0 min 0,0 UV-I 0 W/m 13,2 C 15,3 C 12,9 km/h (3 Bft)
19.06.2023 05:27 16,1 C 15,6 C 84 % 1012,6 hPa 0,0 l/m 8,0 km/h (2 Bft) S 180 0 min 0,0 UV-I 0 W/m 13,4 C 15,3 C 9,7 km/h (2 Bft)
19.06.2023 05:28 16,1 C 15,6 C 84 % 1012,6 hPa 0,0 l/m 6,4 km/h (2 Bft) S 180 0 min 0,0 UV-I 0 W/m 13,4 C 16,1 C 11,3 km/h (2 Bft)
19.06.2023 05:29 16,1 C 15,6 C 84 % 1012,6 hPa 0,0 l/m 8,0 km/h (2 Bft) S 180 0 min 0,0 UV-I 0 W/m 13,4 C 15,3 C 14,5 km/h (3 Bft)
19.06.2023 05:30 16,1 C 15,6 C 84 % 1012,6 hPa 0,0 l/m 11,3 km/h (2 Bft) S 180 0 min 0,0 UV-I 0 W/m 13,4 C 13,8 C 17,7 km/h (3 Bft)
19.06.2023 05:31 16,1 C 15,6 C 84 % 1012,7 hPa 0,0 l/m 9,7 km/h (2 Bft) S 180 0 min 0,0 UV-I 0 W/m 13,4 C 14,5 C 16,1 km/h (3 Bft)
19.06.2023 05:32 16,1 C 15,6 C 84 % 1012,7 hPa 0,0 l/m 12,9 km/h (3 Bft) S 180 0 min 0,0 UV-I 0 W/m 13,4 C 13,2 C 16,1 km/h (3 Bft)
19.06.2023 05:33 16,2 C 15,6 C 84 % 1012,7 hPa 0,0 l/m 9,7 km/h (2 Bft) S 180 0 min 0,0 UV-I 0 W/m 13,5 C 14,6 C 14,5 km/h (3 Bft)
19.06.2023 05:34 16,2 C 15,6 C 84 % 1012,8 hPa 0,0 l/m 14,5 km/h (3 Bft) S 180 0 min 0,0 UV-I 0 W/m 13,5 C 12,8 C 19,3 km/h (3 Bft)
19.06.2023 05:35 16,2 C 15,6 C 84 % 1012,7 hPa 0,0 l/m 12,9 km/h (3 Bft) S 180 0 min 0,0 UV-I 0 W/m 13,5 C 13,3 C 17,7 km/h (3 Bft)
19.06.2023 05:36 16,3 C 15,6 C 84 % 1012,8 hPa 0,0 l/m 14,5 km/h (3 Bft) S-SW 202 0 min 0,0 UV-I 0 W/m 13,6 C 12,9 C 19,3 km/h (3 Bft)
19.06.2023 05:37 16,2 C 15,6 C 84 % 1012,7 hPa 0,0 l/m 12,9 km/h (3 Bft) S-SW 202 0 min 0,0 UV-I 0 W/m 13,5 C 13,3 C 16,1 km/h (3 Bft)
19.06.2023 05:38 16,3 C 15,6 C 84 % 1012,8 hPa 0,0 l/m 14,5 km/h (3 Bft) S 180 0 min 0,0 UV-I 0 W/m 13,6 C 12,9 C 17,7 km/h (3 Bft)
19.06.2023 05:39 16,3 C 15,6 C 84 % 1012,8 hPa 0,0 l/m 12,9 km/h (3 Bft) S-SO 157 0 min 0,0 UV-I 0 W/m 13,6 C 13,4 C 17,7 km/h (3 Bft)
19.06.2023 05:40 16,3 C 15,6 C 84 % 1012,7 hPa 0,0 l/m 11,3 km/h (2 Bft) S 180 0 min 0,0 UV-I 0 W/m 13,6 C 14,0 C 22,5 km/h (4 Bft)
19.06.2023 05:41 16,3 C 15,6 C 84 % 1012,8 hPa 0,0 l/m 14,5 km/h (3 Bft) S 180 0 min 0,0 UV-I 0 W/m 13,6 C 12,9 C 20,9 km/h (4 Bft)
19.06.2023 05:42 16,3 C 15,6 C 84 % 1012,8 hPa 0,0 l/m 11,3 km/h (2 Bft) S 180 0 min 0,0 UV-I 5 W/m 13,6 C 14,0 C 16,1 km/h (3 Bft)
19.06.2023 05:43 16,3 C 15,6 C 84 % 1012,8 hPa 0,0 l/m 14,5 km/h (3 Bft) S-SW 202 0 min 0,0 UV-I 5 W/m 13,6 C 12,9 C 22,5 km/h (4 Bft)
19.06.2023 05:44 16,3 C 15,6 C 84 % 1012,8 hPa 0,0 l/m 20,9 km/h (4 Bft) S-SW 202 0 min 0,0 UV-I 5 W/m 13,6 C 11,2 C 33,8 km/h (5 Bft)
19.06.2023 05:45 16,3 C 15,6 C 84 % 1012,8 hPa 0,0 l/m 20,9 km/h (4 Bft) S-SW 202 0 min 0,0 UV-I 5 W/m 13,6 C 11,2 C 30,6 km/h (5 Bft)
19.06.2023 05:46 16,3 C 15,6 C 85 % 1012,8 hPa 0,0 l/m 17,7 km/h (3 Bft) S 180 0 min 0,0 UV-I 5 W/m 13,8 C 12,0 C 29,0 km/h (5 Bft)
19.06.2023 05:47 16,3 C 15,6 C 85 % 1012,8 hPa 0,0 l/m 16,1 km/h (3 Bft) S 180 0 min 0,0 UV-I 5 W/m 13,8 C 12,4 C 22,5 km/h (4 Bft)
19.06.2023 05:48 16,3 C 15,6 C 85 % 1012,8 hPa 0,0 l/m 14,5 km/h (3 Bft) S-SW 202 0 min 0,0 UV-I 5 W/m 13,8 C 12,9 C 19,3 km/h (3 Bft)
19.06.2023 05:49 16,3 C 15,6 C 85 % 1012,8 hPa 0,0 l/m 16,1 km/h (3 Bft) S 180 0 min 0,0 UV-I 5 W/m 13,8 C 12,4 C 24,1 km/h (4 Bft)
19.06.2023 05:50 16,3 C 15,6 C 85 % 1012,8 hPa 0,0 l/m 11,3 km/h (2 Bft) S 180 0 min 0,0 UV-I 5 W/m 13,8 C 14,0 C 17,7 km/h (3 Bft)
19.06.2023 05:51 16,3 C 16,1 C 85 % 1012,8 hPa 0,0 l/m 11,3 km/h (2 Bft) S-SW 202 0 min 0,0 UV-I 5 W/m 13,8 C 14,0 C 19,3 km/h (3 Bft)
19.06.2023 05:52 16,3 C 16,1 C 85 % 1012,7 hPa 0,0 l/m 14,5 km/h (3 Bft) S-SW 202 0 min 0,0 UV-I 5 W/m 13,8 C 12,9 C 19,3 km/h (3 Bft)
19.06.2023 05:53 16,3 C 16,1 C 85 % 1012,8 hPa 0,0 l/m 14,5 km/h (3 Bft) S 180 0 min 0,0 UV-I 5 W/m 13,8 C 12,9 C 19,3 km/h (3 Bft)
19.06.2023 05:54 16,3 C 16,1 C 85 % 1012,8 hPa 0,0 l/m 14,5 km/h (3 Bft) S-SW 202 0 min 0,0 UV-I 5 W/m 13,8 C 12,9 C 20,9 km/h (4 Bft)
19.06.2023 05:55 16,3 C 15,6 C 85 % 1012,7 hPa 0,0 l/m 17,7 km/h (3 Bft) S-SW 202 0 min 0,0 UV-I 5 W/m 13,8 C 12,0 C 25,7 km/h (4 Bft)
19.06.2023 05:56 16,3 C 15,6 C 86 % 1012,8 hPa 0,0 l/m 12,9 km/h (3 Bft) S-SW 202 0 min 0,0 UV-I 7 W/m 14,0 C 13,4 C 19,3 km/h (3 Bft)
19.06.2023 05:57 16,3 C 16,1 C 86 % 1012,8 hPa 0,0 l/m 16,1 km/h (3 Bft) S-SW 202 0 min 0,0 UV-I 7 W/m 14,0 C 12,4 C 22,5 km/h (4 Bft)
19.06.2023 05:58 16,3 C 16,1 C 86 % 1012,8 hPa 0,0 l/m 16,1 km/h (3 Bft) S-SW 202 0 min 0,0 UV-I 7 W/m 14,0 C 12,4 C 20,9 km/h (4 Bft)
19.06.2023 05:59 16,3 C 15,6 C 86 % 1012,7 hPa 0,0 l/m 11,3 km/h (2 Bft) S 180 0 min 0,0 UV-I 5 W/m 14,0 C 14,0 C 16,1 km/h (3 Bft)
19.06.2023 06:00 16,3 C 16,1 C 86 % 1012,9 hPa 0,0 l/m 8,0 km/h (2 Bft) S 180 0 min 0,0 UV-I 5 W/m 14,0 C 15,5 C 12,9 km/h (3 Bft)
19.06.2023 06:01 16,3 C 16,1 C 86 % 1012,9 hPa 0,0 l/m 14,5 km/h (3 Bft) S 180 0 min 0,0 UV-I 5 W/m 14,0 C 12,9 C 19,3 km/h (3 Bft)
19.06.2023 06:02 16,3 C 16,1 C 86 % 1013,0 hPa 0,0 l/m 12,9 km/h (3 Bft) S 180 0 min 0,0 UV-I 5 W/m 14,0 C 13,4 C 20,9 km/h (4 Bft)
19.06.2023 06:03 16,3 C 16,1 C 86 % 1012,9 hPa 0,0 l/m 14,5 km/h (3 Bft) S 180 0 min 0,0 UV-I 5 W/m 14,0 C 12,9 C 25,7 km/h (4 Bft)
19.06.2023 06:04 16,3 C 16,1 C 87 % 1012,8 hPa 0,0 l/m 11,3 km/h (2 Bft) S-SW 202 0 min 0,0 UV-I 0 W/m 14,1 C 14,0 C 12,9 km/h (3 Bft)
19.06.2023 06:05 16,3 C 16,1 C 87 % 1012,9 hPa 0,0 l/m 8,0 km/h (2 Bft) S-SW 202 0 min 0,0 UV-I 0 W/m 14,1 C 15,5 C 12,9 km/h (3 Bft)
19.06.2023 06:06 16,3 C 16,1 C 87 % 1012,9 hPa 0,0 l/m 16,1 km/h (3 Bft) S-SW 202 0 min 0,0 UV-I 0 W/m 14,1 C 12,4 C 20,9 km/h (4 Bft)
19.06.2023 06:07 16,3 C 16,1 C 87 % 1012,8 hPa 0,0 l/m 16,1 km/h (3 Bft) S-SW 202 0 min 0,0 UV-I 5 W/m 14,1 C 12,4 C 22,5 km/h (4 Bft)
19.06.2023 06:08 16,3 C 16,1 C 87 % 1012,8 hPa 0,0 l/m 9,7 km/h (2 Bft) S-SW 202 0 min 0,0 UV-I 5 W/m 14,1 C 14,7 C 16,1 km/h (3 Bft)
19.06.2023 06:09 16,3 C 15,6 C 87 % 1012,9 hPa 0,0 l/m 12,9 km/h (3 Bft) S 180 0 min 0,0 UV-I 5 W/m 14,1 C 13,4 C 17,7 km/h (3 Bft)
19.06.2023 06:10 16,3 C 15,6 C 87 % 1012,8 hPa 0,0 l/m 16,1 km/h (3 Bft) S 180 0 min 0,0 UV-I 6 W/m 14,1 C 12,4 C 27,4 km/h (4 Bft)
19.06.2023 06:11 16,3 C 15,6 C 87 % 1012,9 hPa 0,0 l/m 17,7 km/h (3 Bft) S 180 0 min 0,0 UV-I 7 W/m 14,1 C 12,0 C 27,4 km/h (4 Bft)
19.06.2023 06:12 16,3 C 15,6 C 87 % 1012,9 hPa 0,0 l/m 17,7 km/h (3 Bft) S-SW 202 0 min 0,0 UV-I 7 W/m 14,1 C 12,0 C 22,5 km/h (4 Bft)
19.06.2023 06:13 16,2 C 15,6 C 87 % 1012,9 hPa 0,0 l/m 14,5 km/h (3 Bft) S-SW 202 0 min 0,0 UV-I 7 W/m 14,0 C 12,8 C 17,7 km/h (3 Bft)
19.06.2023 06:14 16,3 C 15,6 C 87 % 1012,9 hPa 0,0 l/m 12,9 km/h (3 Bft) S-SW 202 0 min 0,0 UV-I 5 W/m 14,1 C 13,4 C 19,3 km/h (3 Bft)
19.06.2023 06:15 16,3 C 15,6 C 87 % 1013,0 hPa 0,0 l/m 11,3 km/h (2 Bft) S 180 0 min 0,0 UV-I 7 W/m 14,1 C 14,0 C 14,5 km/h (3 Bft)
19.06.2023 06:16 16,2 C 15,6 C 87 % 1012,9 hPa 0,0 l/m 11,3 km/h (2 Bft) S-SW 202 0 min 0,0 UV-I 8 W/m 14,0 C 13,9 C 17,7 km/h (3 Bft)
19.06.2023 06:17 16,2 C 15,6 C 87 % 1013,0 hPa 0,0 l/m 17,7 km/h (3 Bft) S-SW 202 0 min 0,0 UV-I 7 W/m 14,0 C 11,9 C 27,4 km/h (4 Bft)
19.06.2023 06:18 16,2 C 15,6 C 88 % 1013,0 hPa 0,0 l/m 14,5 km/h (3 Bft) S-SW 202 0 min 0,0 UV-I 7 W/m 14,2 C 12,8 C 17,7 km/h (3 Bft)
19.06.2023 06:19 16,2 C 15,6 C 88 % 1012,9 hPa 0,0 l/m 14,5 km/h (3 Bft) S 180 0 min 0,0 UV-I 7 W/m 14,2 C 12,8 C 20,9 km/h (4 Bft)
19.06.2023 06:20 16,2 C 15,6 C 88 % 1013,0 hPa 0,0 l/m 14,5 km/h (3 Bft) S-SW 202 0 min 0,0 UV-I 11 W/m 14,2 C 12,8 C 19,3 km/h (3 Bft)
19.06.2023 06:21 16,2 C 15,0 C 88 % 1012,9 hPa 0,0 l/m 14,5 km/h (3 Bft) S 180 0 min 0,0 UV-I 11 W/m 14,2 C 12,8 C 22,5 km/h (4 Bft)
19.06.2023 06:22 16,2 C 15,0 C 88 % 1012,9 hPa 0,0 l/m 11,3 km/h (2 Bft) S-SW 202 0 min 0,0 UV-I 12 W/m 14,2 C 13,9 C 16,1 km/h (3 Bft)
19.06.2023 06:23 16,1 C 15,0 C 88 % 1012,9 hPa 0,0 l/m 8,0 km/h (2 Bft) S 180 0 min 0,0 UV-I 12 W/m 14,1 C 15,3 C 11,3 km/h (2 Bft)
19.06.2023 06:24 16,1 C 15,0 C 88 % 1013,0 hPa 0,0 l/m 11,3 km/h (2 Bft) S-SW 202 0 min 0,0 UV-I 14 W/m 14,1 C 13,8 C 14,5 km/h (3 Bft)
19.06.2023 06:25 16,1 C 15,0 C 88 % 1012,9 hPa 0,0 l/m 9,7 km/h (2 Bft) S 180 0 min 0,0 UV-I 16 W/m 14,1 C 14,5 C 14,5 km/h (3 Bft)
19.06.2023 06:26 16,1 C 15,0 C 88 % 1013,0 hPa 0,0 l/m 8,0 km/h (2 Bft) S-SW 202 0 min 0,0 UV-I 16 W/m 14,1 C 15,3 C 12,9 km/h (3 Bft)
19.06.2023 06:27 16,1 C 15,6 C 89 % 1013,1 hPa 0,0 l/m 16,1 km/h (3 Bft) S-SW 202 0 min 0,0 UV-I 13 W/m 14,3 C 12,2 C 20,9 km/h (4 Bft)
19.06.2023 06:28 16,1 C 15,0 C 89 % 1013,0 hPa 0,0 l/m 14,5 km/h (3 Bft) S 180 0 min 0,0 UV-I 12 W/m 14,3 C 12,7 C 22,5 km/h (4 Bft)
19.06.2023 06:29 16,1 C 15,6 C 89 % 1013,0 hPa 0,0 l/m 9,7 km/h (2 Bft) S-SW 202 0 min 0,0 UV-I 14 W/m 14,3 C 14,5 C 12,9 km/h (3 Bft)
19.06.2023 06:30 16,1 C 15,6 C 89 % 1013,1 hPa 0,0 l/m 12,9 km/h (3 Bft) S-SW 202 0 min 0,0 UV-I 16 W/m 14,3 C 13,2 C 19,3 km/h (3 Bft)
19.06.2023 06:31 16,1 C 15,6 C 89 % 1013,1 hPa 0,0 l/m 9,7 km/h (2 Bft) SW 225 0 min 0,0 UV-I 16 W/m 14,3 C 14,5 C 16,1 km/h (3 Bft)
19.06.2023 06:32 16,1 C 15,6 C 89 % 1013,1 hPa 0,0 l/m 9,7 km/h (2 Bft) S 180 0 min 0,0 UV-I 18 W/m 14,3 C 14,5 C 14,5 km/h (3 Bft)
19.06.2023 06:33 16,1 C 15,6 C 89 % 1013,1 hPa 0,0 l/m 6,4 km/h (2 Bft) S 180 0 min 0,0 UV-I 17 W/m 14,3 C 16,1 C 9,7 km/h (2 Bft)
19.06.2023 06:34 16,1 C 15,6 C 89 % 1013,0 hPa 0,0 l/m 8,0 km/h (2 Bft) S-SW 202 0 min 0,0 UV-I 23 W/m 14,3 C 15,3 C 11,3 km/h (2 Bft)
19.06.2023 06:35 16,1 C 15,6 C 89 % 1013,0 hPa 0,0 l/m 11,3 km/h (2 Bft) S-SW 202 0 min 0,0 UV-I 25 W/m 14,3 C 13,8 C 16,1 km/h (3 Bft)
19.06.2023 06:36 16,1 C 15,6 C 89 % 1013,0 hPa 0,0 l/m 9,7 km/h (2 Bft) SW 225 0 min 0,0 UV-I 26 W/m 14,3 C 14,5 C 16,1 km/h (3 Bft)
19.06.2023 06:37 16,1 C 15,6 C 89 % 1013,0 hPa 0,0 l/m 8,0 km/h (2 Bft) S-SW 202 0 min 0,0 UV-I 26 W/m 14,3 C 15,3 C 12,9 km/h (3 Bft)
19.06.2023 06:38 16,1 C 15,6 C 89 % 1013,1 hPa 0,0 l/m 11,3 km/h (2 Bft) S-SW 202 0 min 0,0 UV-I 30 W/m 14,3 C 13,8 C 16,1 km/h (3 Bft)
19.06.2023 06:39 16,1 C 15,6 C 89 % 1013,0 hPa 0,0 l/m 11,3 km/h (2 Bft) SW 225 0 min 0,0 UV-I 32 W/m 14,3 C 13,8 C 16,1 km/h (3 Bft)
19.06.2023 06:40 16,2 C 15,6 C 89 % 1013,0 hPa 0,0 l/m 12,9 km/h (3 Bft) S-SW 202 0 min 0,0 UV-I 30 W/m 14,4 C 13,3 C 19,3 km/h (3 Bft)
19.06.2023 06:41 16,2 C 15,6 C 89 % 1013,1 hPa 0,0 l/m 14,5 km/h (3 Bft) S-SW 202 0 min 0,0 UV-I 30 W/m 14,4 C 12,8 C 16,1 km/h (3 Bft)
19.06.2023 06:42 16,1 C 15,6 C 89 % 1013,0 hPa 0,0 l/m 9,7 km/h (2 Bft) S-SW 202 0 min 0,0 UV-I 30 W/m 14,3 C 14,5 C 14,5 km/h (3 Bft)
19.06.2023 06:43 16,1 C 15,6 C 89 % 1013,0 hPa 0,0 l/m 12,9 km/h (3 Bft) S-SW 202 0 min 0,0 UV-I 32 W/m 14,3 C 13,2 C 17,7 km/h (3 Bft)
19.06.2023 06:44 16,1 C 15,6 C 89 % 1013,0 hPa 0,0 l/m 12,9 km/h (3 Bft) S-SW 202 0 min 0,0 UV-I 35 W/m 14,3 C 13,2 C 16,1 km/h (3 Bft)
19.06.2023 06:45 16,2 C 15,6 C 89 % 1013,1 hPa 0,0 l/m 11,3 km/h (2 Bft) SW 225 0 min 0,0 UV-I 41 W/m 14,4 C 13,9 C 16,1 km/h (3 Bft)
19.06.2023 06:46 16,2 C 15,6 C 89 % 1013,0 hPa 0,0 l/m 6,4 km/h (2 Bft) S-SW 202 0 min 0,0 UV-I 40 W/m 14,4 C 16,2 C 8,0 km/h (2 Bft)
19.06.2023 06:47 16,2 C 15,6 C 89 % 1013,0 hPa 0,0 l/m 9,7 km/h (2 Bft) S-SW 202 0 min 0,0 UV-I 44 W/m 14,4 C 14,6 C 12,9 km/h (3 Bft)
19.06.2023 06:48 16,2 C 15,6 C 89 % 1013,0 hPa 0,0 l/m 9,7 km/h (2 Bft) S 180 0 min 0,0 UV-I 53 W/m 14,4 C 14,6 C 17,7 km/h (3 Bft)
19.06.2023 06:49 16,2 C 15,6 C 89 % 1013,0 hPa 0,0 l/m 12,9 km/h (3 Bft) S-SW 202 0 min 0,0 UV-I 60 W/m 14,4 C 13,3 C 16,1 km/h (3 Bft)
19.06.2023 06:50 16,2 C 15,6 C 89 % 1013,1 hPa 0,0 l/m 12,9 km/h (3 Bft) S-SW 202 0 min 0,0 UV-I 47 W/m 14,4 C 13,3 C 19,3 km/h (3 Bft)
19.06.2023 06:51 16,2 C 15,6 C 89 % 1013,1 hPa 0,0 l/m 14,5 km/h (3 Bft) S 180 0 min 0,0 UV-I 40 W/m 14,4 C 12,8 C 16,1 km/h (3 Bft)
19.06.2023 06:52 16,2 C 15,6 C 88 % 1013,1 hPa 0,0 l/m 14,5 km/h (3 Bft) S-SW 202 0 min 0,0 UV-I 40 W/m 14,2 C 12,8 C 24,1 km/h (4 Bft)
19.06.2023 06:53 16,2 C 15,6 C 88 % 1013,0 hPa 0,0 l/m 14,5 km/h (3 Bft) S-SW 202 0 min 0,0 UV-I 42 W/m 14,2 C 12,8 C 17,7 km/h (3 Bft)
19.06.2023 06:54 16,2 C 16,1 C 88 % 1012,9 hPa 0,0 l/m 14,5 km/h (3 Bft) S-SW 202 0 min 0,0 UV-I 47 W/m 14,2 C 12,8 C 19,3 km/h (3 Bft)
19.06.2023 06:55 16,2 C 16,1 C 88 % 1012,9 hPa 0,0 l/m 14,5 km/h (3 Bft) S-SW 202 0 min 0,0 UV-I 54 W/m 14,2 C 12,8 C 17,7 km/h (3 Bft)
19.06.2023 06:56 16,3 C 16,1 C 88 % 1012,9 hPa 0,0 l/m 8,0 km/h (2 Bft) S 180 0 min 0,0 UV-I 53 W/m 14,3 C 15,5 C 12,9 km/h (3 Bft)
19.06.2023 06:57 16,3 C 16,1 C 88 % 1013,0 hPa 0,0 l/m 12,9 km/h (3 Bft) S 180 0 min 0,0 UV-I 57 W/m 14,3 C 13,4 C 19,3 km/h (3 Bft)
19.06.2023 06:58 16,3 C 16,1 C 88 % 1012,9 hPa 0,0 l/m 11,3 km/h (2 Bft) S-SW 202 0 min 0,0 UV-I 63 W/m 14,3 C 14,0 C 16,1 km/h (3 Bft)
19.06.2023 06:59 16,3 C 16,1 C 88 % 1012,9 hPa 0,0 l/m 12,9 km/h (3 Bft) S-SW 202 0 min 0,0 UV-I 67 W/m 14,3 C 13,4 C 19,3 km/h (3 Bft)
19.06.2023 07:00 16,3 C 16,1 C 88 % 1013,0 hPa 0,0 l/m 16,1 km/h (3 Bft) S-SW 202 0 min 0,0 UV-I 67 W/m 14,3 C 12,4 C 19,3 km/h (3 Bft)
19.06.2023 07:01 16,3 C 16,1 C 88 % 1013,1 hPa 0,0 l/m 9,7 km/h (2 Bft) S 180 0 min 0,0 UV-I 60 W/m 14,3 C 14,7 C 14,5 km/h (3 Bft)
19.06.2023 07:02 16,3 C 16,1 C 88 % 1013,1 hPa 0,0 l/m 8,0 km/h (2 Bft) S 180 0 min 0,0 UV-I 56 W/m 14,3 C 15,5 C 14,5 km/h (3 Bft)
19.06.2023 07:03 16,4 C 16,1 C 88 % 1013,0 hPa 0,0 l/m 12,9 km/h (3 Bft) S-SW 202 0 min 0,0 UV-I 67 W/m 14,4 C 13,6 C 16,1 km/h (3 Bft)
19.06.2023 07:04 16,4 C 16,1 C 87 % 1013,0 hPa 0,0 l/m 12,9 km/h (3 Bft) S 180 0 min 0,0 UV-I 63 W/m 14,2 C 13,6 C 17,7 km/h (3 Bft)
19.06.2023 07:05 16,4 C 16,1 C 87 % 1013,0 hPa 0,0 l/m 9,7 km/h (2 Bft) S-SW 202 0 min 0,0 UV-I 63 W/m 14,2 C 14,8 C 12,9 km/h (3 Bft)
19.06.2023 07:06 16,4 C 16,1 C 87 % 1013,0 hPa 0,0 l/m 14,5 km/h (3 Bft) S-SW 202 0 min 0,0 UV-I 67 W/m 14,2 C 13,0 C 25,7 km/h (4 Bft)
19.06.2023 07:07 16,4 C 16,1 C 87 % 1013,1 hPa 0,0 l/m 16,1 km/h (3 Bft) S-SO 157 0 min 0,0 UV-I 69 W/m 14,2 C 12,6 C 27,4 km/h (4 Bft)
19.06.2023 07:08 16,4 C 16,1 C 86 % 1013,0 hPa 0,0 l/m 14,5 km/h (3 Bft) S 180 0 min 0,0 UV-I 64 W/m 14,1 C 13,0 C 19,3 km/h (3 Bft)
19.06.2023 07:09 16,4 C 16,7 C 86 % 1013,1 hPa 0,0 l/m 14,5 km/h (3 Bft) S 180 0 min 0,0 UV-I 53 W/m 14,1 C 13,0 C 19,3 km/h (3 Bft)
19.06.2023 07:10 16,5 C 16,7 C 86 % 1013,2 hPa 0,0 l/m 16,1 km/h (3 Bft) S-SW 202 0 min 0,0 UV-I 53 W/m 14,1 C 12,7 C 22,5 km/h (4 Bft)
19.06.2023 07:11 16,4 C 16,1 C 86 % 1013,2 hPa 0,0 l/m 11,3 km/h (2 Bft) SW 225 0 min 0,0 UV-I 53 W/m 14,1 C 14,1 C 16,1 km/h (3 Bft)
19.06.2023 07:12 16,5 C 16,7 C 86 % 1013,1 hPa 0,0 l/m 11,3 km/h (2 Bft) S 180 0 min 0,0 UV-I 53 W/m 14,1 C 14,3 C 20,9 km/h (4 Bft)
19.06.2023 07:13 16,6 C 16,7 C 86 % 1013,1 hPa 0,0 l/m 9,7 km/h (2 Bft) S 180 0 min 0,0 UV-I 54 W/m 14,2 C 15,0 C 16,1 km/h (3 Bft)
19.06.2023 07:14 16,6 C 16,7 C 86 % 1013,1 hPa 0,0 l/m 11,3 km/h (2 Bft) S-SW 202 0 min 0,0 UV-I 56 W/m 14,2 C 14,4 C 16,1 km/h (3 Bft)
19.06.2023 07:15 16,6 C 16,7 C 85 % 1013,1 hPa 0,0 l/m 8,0 km/h (2 Bft) SW 225 0 min 0,0 UV-I 56 W/m 14,1 C 15,8 C 11,3 km/h (2 Bft)
19.06.2023 07:16 16,6 C 16,7 C 85 % 1013,2 hPa 0,0 l/m 8,0 km/h (2 Bft) S 180 0 min 0,0 UV-I 53 W/m 14,1 C 15,8 C 12,9 km/h (3 Bft)
19.06.2023 07:17 16,6 C 16,7 C 85 % 1013,1 hPa 0,0 l/m 9,7 km/h (2 Bft) S-SW 202 0 min 0,0 UV-I 47 W/m 14,1 C 15,0 C 14,5 km/h (3 Bft)
19.06.2023 07:18 16,6 C 16,7 C 85 % 1013,2 hPa 0,0 l/m 12,9 km/h (3 Bft) S-SW 202 0 min 0,0 UV-I 40 W/m 14,1 C 13,8 C 19,3 km/h (3 Bft)
19.06.2023 07:19 16,6 C 16,7 C 85 % 1013,2 hPa 0,0 l/m 12,9 km/h (3 Bft) S 180 0 min 0,0 UV-I 49 W/m 14,1 C 13,8 C 17,7 km/h (3 Bft)
19.06.2023 07:20 16,6 C 16,7 C 85 % 1013,1 hPa 0,0 l/m 14,5 km/h (3 Bft) S 180 0 min 0,0 UV-I 52 W/m 14,1 C 13,3 C 17,7 km/h (3 Bft)
19.06.2023 07:21 16,6 C 16,7 C 85 % 1013,2 hPa 0,0 l/m 8,0 km/h (2 Bft) SW 225 0 min 0,0 UV-I 51 W/m 14,1 C 15,8 C 12,9 km/h (3 Bft)
19.06.2023 07:22 16,6 C 16,7 C 85 % 1013,1 hPa 0,0 l/m 8,0 km/h (2 Bft) S 180 0 min 0,0 UV-I 53 W/m 14,1 C 15,8 C 9,7 km/h (2 Bft)
19.06.2023 07:23 16,6 C 16,7 C 85 % 1013,1 hPa 0,0 l/m 9,7 km/h (2 Bft) SW 225 0 min 0,0 UV-I 53 W/m 14,1 C 15,0 C 14,5 km/h (3 Bft)
19.06.2023 07:24 16,6 C 16,7 C 84 % 1013,2 hPa 0,0 l/m 9,7 km/h (2 Bft) S 180 0 min 0,0 UV-I 49 W/m 13,9 C 15,0 C 14,5 km/h (3 Bft)
19.06.2023 07:25 16,6 C 16,7 C 84 % 1013,1 hPa 0,0 l/m 12,9 km/h (3 Bft) S 180 0 min 0,0 UV-I 51 W/m 13,9 C 13,8 C 19,3 km/h (3 Bft)
19.06.2023 07:26 16,6 C 16,7 C 84 % 1013,2 hPa 0,0 l/m 11,3 km/h (2 Bft) S-SW 202 0 min 0,0 UV-I 53 W/m 13,9 C 14,4 C 16,1 km/h (3 Bft)
19.06.2023 07:27 16,6 C 16,7 C 84 % 1013,2 hPa 0,0 l/m 6,4 km/h (2 Bft) S 180 0 min 0,0 UV-I 53 W/m 13,9 C 16,6 C 11,3 km/h (2 Bft)
19.06.2023 07:28 16,7 C 16,7 C 84 % 1013,2 hPa 0,0 l/m 12,9 km/h (3 Bft) SW 225 0 min 0,0 UV-I 53 W/m 14,0 C 13,9 C 24,1 km/h (4 Bft)
19.06.2023 07:29 16,6 C 16,7 C 84 % 1013,1 hPa 0,0 l/m 11,3 km/h (2 Bft) S-SW 202 0 min 0,0 UV-I 63 W/m 13,9 C 14,4 C 17,7 km/h (3 Bft)
19.06.2023 07:30 16,6 C 16,7 C 84 % 1013,2 hPa 0,0 l/m 9,7 km/h (2 Bft) S-SW 202 0 min 0,0 UV-I 70 W/m 13,9 C 15,0 C 16,1 km/h (3 Bft)
19.06.2023 07:31 16,7 C 16,7 C 84 % 1013,2 hPa 0,0 l/m 9,7 km/h (2 Bft) SW 225 0 min 0,0 UV-I 83 W/m 14,0 C 15,1 C 16,1 km/h (3 Bft)
19.06.2023 07:32 16,7 C 16,7 C 84 % 1013,2 hPa 0,0 l/m 11,3 km/h (2 Bft) SW 225 0 min 0,0 UV-I 99 W/m 14,0 C 14,5 C 16,1 km/h (3 Bft)
19.06.2023 07:33 16,7 C 16,7 C 84 % 1013,2 hPa 0,0 l/m 8,0 km/h (2 Bft) W-SW 247 0 min 0,0 UV-I 107 W/m 14,0 C 15,9 C 14,5 km/h (3 Bft)
19.06.2023 07:34 16,7 C 16,7 C 84 % 1013,2 hPa 0,0 l/m 6,4 km/h (2 Bft) S-SW 202 0 min 0,0 UV-I 102 W/m 14,0 C 16,7 C 9,7 km/h (2 Bft)
19.06.2023 07:35 16,7 C 17,2 C 83 % 1013,1 hPa 0,0 l/m 8,0 km/h (2 Bft) S-SW 202 0 min 0,0 UV-I 88 W/m 13,8 C 15,9 C 9,7 km/h (2 Bft)
19.06.2023 07:36 16,7 C 17,2 C 84 % 1013,2 hPa 0,0 l/m 6,4 km/h (2 Bft) S 180 0 min 0,0 UV-I 72 W/m 14,0 C 16,7 C 9,7 km/h (2 Bft)
19.06.2023 07:37 16,8 C 17,2 C 83 % 1013,0 hPa 0,0 l/m 11,3 km/h (2 Bft) S-SW 202 0 min 0,0 UV-I 60 W/m 13,9 C 14,6 C 14,5 km/h (3 Bft)
19.06.2023 07:38 16,7 C 16,7 C 83 % 1013,1 hPa 0,0 l/m 12,9 km/h (3 Bft) S-SW 202 0 min 0,0 UV-I 53 W/m 13,8 C 13,9 C 19,3 km/h (3 Bft)
19.06.2023 07:45 16,7 C 16,7 C 83 % 1013,2 hPa 0,0 l/m 10,5 km/h (2 Bft) S 187 0 min 0,0 UV-I 42 W/m 13,8 C 14,8 C 16,1 km/h (3 Bft)
19.06.2023 07:48 16,7 C 16,7 C 83 % 1013,2 hPa 0,0 l/m 11,8 km/h (2 Bft) S-SW 202 0 min 0,0 UV-I 43 W/m 13,8 C 14,3 C 17,7 km/h (3 Bft)
19.06.2023 07:51 16,6 C 16,1 C 83 % 1013,3 hPa 0,0 l/m 13,8 km/h (3 Bft) W-SW 242 0 min 0,0 UV-I 36 W/m 13,7 C 13,5 C 19,3 km/h (3 Bft)
19.06.2023 07:54 16,6 C 16,1 C 83 % 1013,2 hPa 0,0 l/m 8,7 km/h (2 Bft) S-SW 196 0 min 0,0 UV-I 36 W/m 13,7 C 15,5 C 16,1 km/h (3 Bft)
19.06.2023 07:57 16,6 C 16,1 C 83 % 1013,3 hPa 0,0 l/m 6,4 km/h (2 Bft) S-SW 213 0 min 0,0 UV-I 37 W/m 13,7 C 16,6 C 11,3 km/h (2 Bft)
19.06.2023 08:00 16,6 C 16,7 C 83 % 1013,4 hPa 0,0 l/m 12,9 km/h (3 Bft) S-SW 210 0 min 0,0 UV-I 55 W/m 13,7 C 13,8 C 20,9 km/h (4 Bft)
19.06.2023 08:03 16,6 C 16,7 C 83 % 1013,4 hPa 0,0 l/m 10,0 km/h (2 Bft) S 188 0 min 0,3 UV-I 75 W/m 13,7 C 14,9 C 16,1 km/h (3 Bft)
19.06.2023 08:06 16,6 C 16,7 C 82 % 1013,4 hPa 0,0 l/m 11,5 km/h (2 Bft) S-SO 147 0 min 0,5 UV-I 87 W/m 13,5 C 14,3 C 19,3 km/h (3 Bft)
19.06.2023 08:09 16,7 C 16,7 C 82 % 1013,5 hPa 0,0 l/m 11,1 km/h (2 Bft) S-SW 211 0 min 0,5 UV-I 75 W/m 13,6 C 14,6 C 16,1 km/h (3 Bft)
19.06.2023 08:12 16,7 C 16,7 C 81 % 1013,4 hPa 0,0 l/m 9,7 km/h (2 Bft) S-SW 194 0 min 0,6 UV-I 77 W/m 13,4 C 15,1 C 17,7 km/h (3 Bft)
19.06.2023 08:15 16,8 C 17,2 C 81 % 1013,5 hPa 0,0 l/m 9,4 km/h (2 Bft) SW 215 0 min 0,7 UV-I 95 W/m 13,5 C 15,4 C 17,7 km/h (3 Bft)
19.06.2023 08:18 16,8 C 17,2 C 81 % 1013,5 hPa 0,0 l/m 13,0 km/h (3 Bft) S-SW 196 0 min 0,7 UV-I 96 W/m 13,5 C 14,0 C 24,1 km/h (4 Bft)
19.06.2023 08:21 16,8 C 17,2 C 80 % 1013,5 hPa 0,0 l/m 14,4 km/h (3 Bft) S-SW 201 0 min 0,7 UV-I 94 W/m 13,3 C 13,6 C 20,9 km/h (4 Bft)
19.06.2023 08:24 16,8 C 17,2 C 80 % 1013,6 hPa 0,0 l/m 12,2 km/h (2 Bft) S-SW 195 0 min 0,8 UV-I 116 W/m 13,3 C 14,3 C 17,7 km/h (3 Bft)
19.06.2023 08:27 16,9 C 17,8 C 79 % 1013,6 hPa 0,0 l/m 9,4 km/h (2 Bft) S-SW 200 0 min 1,0 UV-I 188 W/m 13,2 C 15,5 C 14,5 km/h (3 Bft)
19.06.2023 08:30 17,1 C 18,3 C 79 % 1013,6 hPa 0,0 l/m 10,9 km/h (2 Bft) S 191 0 min 1,1 UV-I 228 W/m 13,4 C 15,1 C 19,3 km/h (3 Bft)
19.06.2023 08:33 17,3 C 18,3 C 79 % 1013,6 hPa 0,0 l/m 8,7 km/h (2 Bft) S-SW 194 0 min 1,2 UV-I 228 W/m 13,6 C 16,2 C 17,7 km/h (3 Bft)
19.06.2023 08:36 17,3 C 18,9 C 78 % 1013,7 hPa 0,0 l/m 10,3 km/h (2 Bft) SW 214 0 min 1,2 UV-I 225 W/m 13,4 C 15,5 C 19,3 km/h (3 Bft)
19.06.2023 08:39 17,3 C 18,9 C 78 % 1013,8 hPa 0,0 l/m 12,0 km/h (2 Bft) S-SW 192 0 min 1,1 UV-I 229 W/m 13,4 C 14,9 C 17,7 km/h (3 Bft)
19.06.2023 08:42 17,3 C 18,3 C 78 % 1013,8 hPa 0,0 l/m 9,1 km/h (2 Bft) S-SW 198 0 min 1,0 UV-I 200 W/m 13,4 C 16,0 C 14,5 km/h (3 Bft)
19.06.2023 08:45 17,4 C 18,3 C 78 % 1013,9 hPa 0,0 l/m 11,3 km/h (2 Bft) S-SO 165 0 min 0,9 UV-I 185 W/m 13,5 C 15,3 C 16,1 km/h (3 Bft)
19.06.2023 08:48 17,4 C 18,3 C 78 % 1013,9 hPa 0,0 l/m 10,1 km/h (2 Bft) S-SW 213 0 min 1,0 UV-I 205 W/m 13,5 C 15,7 C 14,5 km/h (3 Bft)
19.06.2023 08:51 17,4 C 18,3 C 78 % 1014,0 hPa 0,0 l/m 10,0 km/h (2 Bft) S-SW 205 0 min 0,8 UV-I 161 W/m 13,5 C 15,8 C 19,3 km/h (3 Bft)
19.06.2023 08:54 17,3 C 18,3 C 77 % 1014,0 hPa 0,0 l/m 12,7 km/h (3 Bft) S 180 0 min 0,6 UV-I 116 W/m 13,2 C 14,7 C 19,3 km/h (3 Bft)
19.06.2023 08:57 17,3 C 17,8 C 77 % 1014,0 hPa 0,0 l/m 14,0 km/h (3 Bft) S-SW 213 0 min 0,6 UV-I 110 W/m 13,2 C 14,3 C 20,9 km/h (4 Bft)
19.06.2023 09:00 17,3 C 17,8 C 78 % 1014,0 hPa 0,0 l/m 13,1 km/h (3 Bft) SW 214 0 min 0,7 UV-I 134 W/m 13,4 C 14,6 C 19,3 km/h (3 Bft)
19.06.2023 09:03 17,3 C 18,3 C 78 % 1014,1 hPa 0,0 l/m 12,4 km/h (3 Bft) S-SW 196 0 min 0,9 UV-I 160 W/m 13,4 C 14,8 C 20,9 km/h (4 Bft)
19.06.2023 09:06 17,4 C 18,3 C 78 % 1014,1 hPa 0,0 l/m 12,2 km/h (2 Bft) W-SW 247 0 min 0,9 UV-I 165 W/m 13,5 C 15,0 C 20,9 km/h (4 Bft)
19.06.2023 09:09 17,4 C 18,3 C 77 % 1014,1 hPa 0,0 l/m 13,9 km/h (3 Bft) S-SW 194 0 min 1,1 UV-I 206 W/m 13,3 C 14,4 C 19,3 km/h (3 Bft)
19.06.2023 09:12 17,4 C 18,9 C 77 % 1014,1 hPa 0,0 l/m 12,5 km/h (3 Bft) S-SW 197 0 min 1,1 UV-I 206 W/m 13,3 C 14,9 C 20,9 km/h (4 Bft)
19.06.2023 09:15 17,6 C 18,9 C 77 % 1014,2 hPa 0,0 l/m 10,7 km/h (2 Bft) S-SW 200 0 min 1,1 UV-I 186 W/m 13,5 C 15,7 C 16,1 km/h (3 Bft)
19.06.2023 09:18 17,5 C 18,9 C 77 % 1014,1 hPa 0,0 l/m 13,1 km/h (3 Bft) S-SW 204 0 min 1,1 UV-I 173 W/m 13,4 C 14,8 C 17,7 km/h (3 Bft)
19.06.2023 09:21 17,5 C 18,3 C 77 % 1014,1 hPa 0,0 l/m 13,3 km/h (3 Bft) S 177 0 min 1,1 UV-I 178 W/m 13,4 C 14,7 C 20,9 km/h (4 Bft)
19.06.2023 09:24 17,6 C 18,9 C 77 % 1014,1 hPa 0,0 l/m 12,5 km/h (3 Bft) S 190 0 min 1,2 UV-I 190 W/m 13,5 C 15,1 C 19,3 km/h (3 Bft)
19.06.2023 09:27 17,6 C 18,9 C 77 % 1014,1 hPa 0,0 l/m 9,2 km/h (2 Bft) W-SW 255 0 min 1,2 UV-I 184 W/m 13,5 C 16,3 C 16,1 km/h (3 Bft)
19.06.2023 09:30 17,6 C 18,3 C 77 % 1014,3 hPa 0,0 l/m 10,3 km/h (2 Bft) W-SW 244 0 min 1,2 UV-I 173 W/m 13,5 C 15,9 C 22,5 km/h (4 Bft)
19.06.2023 09:33 17,7 C 18,9 C 77 % 1014,3 hPa 0,0 l/m 9,6 km/h (2 Bft) S 177 0 min 1,1 UV-I 182 W/m 13,6 C 16,3 C 17,7 km/h (3 Bft)
19.06.2023 09:36 17,7 C 18,9 C 77 % 1014,1 hPa 0,0 l/m 10,8 km/h (2 Bft) S-SO 167 0 min 1,1 UV-I 194 W/m 13,6 C 15,8 C 16,1 km/h (3 Bft)
19.06.2023 09:39 17,8 C 18,9 C 77 % 1014,3 hPa 0,0 l/m 8,2 km/h (2 Bft) SW 215 0 min 1,0 UV-I 149 W/m 13,7 C 17,0 C 14,5 km/h (3 Bft)
19.06.2023 09:42 17,6 C 18,3 C 76 % 1014,2 hPa 0,0 l/m 12,7 km/h (3 Bft) SW 219 0 min 1,2 UV-I 129 W/m 13,3 C 15,0 C 20,9 km/h (4 Bft)
19.06.2023 09:45 17,6 C 18,3 C 76 % 1014,1 hPa 0,0 l/m 12,1 km/h (2 Bft) S-SW 192 0 min 1,5 UV-I 180 W/m 13,3 C 15,2 C 16,1 km/h (3 Bft)
19.06.2023 09:48 17,6 C 18,3 C 77 % 1014,2 hPa 0,0 l/m 9,7 km/h (2 Bft) S 188 0 min 1,5 UV-I 176 W/m 13,5 C 16,1 C 16,1 km/h (3 Bft)
19.06.2023 09:51 17,8 C 19,4 C 76 % 1014,2 hPa 0,0 l/m 9,0 km/h (2 Bft) W-SW 242 0 min 1,9 UV-I 301 W/m 13,5 C 16,6 C 14,5 km/h (3 Bft)
19.06.2023 09:54 18,1 C 20,0 C 76 % 1014,2 hPa 0,0 l/m 8,4 km/h (2 Bft) S-SW 192 3 min 2,2 UV-I 376 W/m 13,8 C 17,2 C 12,9 km/h (3 Bft)
19.06.2023 09:57 18,4 C 20,6 C 74 % 1014,3 hPa 0,0 l/m 10,4 km/h (2 Bft) S 183 3 min 2,1 UV-I 384 W/m 13,7 C 16,7 C 17,7 km/h (3 Bft)
19.06.2023 10:00 18,4 C 20,6 C 73 % 1014,3 hPa 0,0 l/m 12,4 km/h (3 Bft) S-SW 207 0 min 2,3 UV-I 331 W/m 13,5 C 16,1 C 20,9 km/h (4 Bft)
19.06.2023 10:03 18,5 C 20,6 C 73 % 1014,4 hPa 0,0 l/m 12,2 km/h (2 Bft) S-SW 202 3 min 2,5 UV-I 475 W/m 13,6 C 16,2 C 20,9 km/h (4 Bft)
19.06.2023 10:06 18,4 C 20,0 C 73 % 1014,3 hPa 0,0 l/m 11,6 km/h (2 Bft) S-SW 209 0 min 2,1 UV-I 276 W/m 13,5 C 16,3 C 19,3 km/h (3 Bft)
19.06.2023 10:09 18,5 C 20,6 C 74 % 1014,3 hPa 0,0 l/m 8,0 km/h (2 Bft) S-SW 209 3 min 2,4 UV-I 376 W/m 13,8 C 17,8 C 16,1 km/h (3 Bft)
19.06.2023 10:12 18,7 C 20,6 C 73 % 1014,2 hPa 0,0 l/m 9,9 km/h (2 Bft) S-SW 196 0 min 2,4 UV-I 345 W/m 13,8 C 17,2 C 16,1 km/h (3 Bft)
19.06.2023 10:15 18,8 C 21,1 C 73 % 1014,3 hPa 0,0 l/m 13,0 km/h (3 Bft) S-SO 166 3 min 3,2 UV-I 482 W/m 13,9 C 16,3 C 20,9 km/h (4 Bft)
19.06.2023 10:18 19,3 C 21,7 C 72 % 1014,4 hPa 0,0 l/m 9,4 km/h (2 Bft) S-SW 206 3 min 3,5 UV-I 589 W/m 14,1 C 18,1 C 14,5 km/h (3 Bft)
19.06.2023 10:21 19,3 C 22,2 C 71 % 1014,5 hPa 0,0 l/m 12,5 km/h (3 Bft) S 189 3 min 2,7 UV-I 518 W/m 13,9 C 17,1 C 17,7 km/h (3 Bft)
19.06.2023 10:24 19,2 C 21,7 C 70 % 1014,4 hPa 0,0 l/m 12,9 km/h (3 Bft) S-SW 193 3 min 2,7 UV-I 441 W/m 13,6 C 16,8 C 22,5 km/h (4 Bft)
19.06.2023 10:27 19,0 C 21,1 C 70 % 1014,3 hPa 0,0 l/m 9,9 km/h (2 Bft) SW 227 0 min 2,1 UV-I 316 W/m 13,4 C 17,6 C 16,1 km/h (3 Bft)
19.06.2023 10:30 18,7 C 20,6 C 70 % 1014,3 hPa 0,0 l/m 10,4 km/h (2 Bft) S-SW 197 0 min 1,9 UV-I 268 W/m 13,1 C 17,1 C 17,7 km/h (3 Bft)
19.06.2023 10:33 18,6 C 20,6 C 71 % 1014,5 hPa 0,0 l/m 12,9 km/h (3 Bft) S-SW 203 0 min 2,0 UV-I 271 W/m 13,2 C 16,1 C 19,3 km/h (3 Bft)
19.06.2023 10:36 18,6 C 20,6 C 71 % 1014,4 hPa 0,0 l/m 9,5 km/h (2 Bft) S-SO 152 0 min 2,0 UV-I 276 W/m 13,2 C 17,3 C 17,7 km/h (3 Bft)
19.06.2023 10:39 18,7 C 20,6 C 71 % 1014,6 hPa 0,0 l/m 12,3 km/h (3 Bft) S-SW 194 0 min 2,2 UV-I 277 W/m 13,3 C 16,4 C 20,9 km/h (4 Bft)
19.06.2023 10:42 18,8 C 20,6 C 70 % 1014,6 hPa 0,0 l/m 13,4 km/h (3 Bft) S 174 3 min 2,8 UV-I 402 W/m 13,2 C 16,2 C 19,3 km/h (3 Bft)
19.06.2023 10:45 19,0 C 20,6 C 70 % 1014,5 hPa 0,0 l/m 13,4 km/h (3 Bft) S-SW 197 0 min 2,5 UV-I 286 W/m 13,4 C 16,5 C 20,9 km/h (4 Bft)
19.06.2023 10:48 19,1 C 20,6 C 70 % 1014,5 hPa 0,0 l/m 11,5 km/h (2 Bft) S 190 3 min 3,2 UV-I 428 W/m 13,5 C 17,1 C 22,5 km/h (4 Bft)
19.06.2023 10:51 19,4 C 21,7 C 69 % 1014,5 hPa 0,0 l/m 10,1 km/h (2 Bft) SW 221 3 min 3,6 UV-I 515 W/m 13,6 C 17,9 C 16,1 km/h (3 Bft)
19.06.2023 10:54 19,7 C 22,2 C 68 % 1014,4 hPa 0,0 l/m 11,6 km/h (2 Bft) S-SW 205 3 min 4,1 UV-I 701 W/m 13,6 C 17,8 C 17,7 km/h (3 Bft)
19.06.2023 10:57 19,6 C 22,2 C 67 % 1014,6 hPa 0,0 l/m 13,7 km/h (3 Bft) S 186 3 min 4,0 UV-I 680 W/m 13,3 C 17,1 C 22,5 km/h (4 Bft)
19.06.2023 11:00 19,8 C 22,8 C 67 % 1014,5 hPa 0,0 l/m 10,9 km/h (2 Bft) S 190 3 min 4,3 UV-I 649 W/m 13,5 C 18,1 C 17,7 km/h (3 Bft)
19.06.2023 11:03 20,2 C 23,9 C 67 % 1014,6 hPa 0,0 l/m 10,2 km/h (2 Bft) SW 227 3 min 4,3 UV-I 682 W/m 13,9 C 18,8 C 14,5 km/h (3 Bft)
19.06.2023 11:06 20,4 C 24,4 C 66 % 1014,6 hPa 0,0 l/m 9,7 km/h (2 Bft) S-SW 213 3 min 4,0 UV-I 703 W/m 13,8 C 19,2 C 19,3 km/h (3 Bft)
19.06.2023 11:09 20,2 C 25,0 C 67 % 1014,7 hPa 0,0 l/m 14,1 km/h (3 Bft) S-SW 192 3 min 4,4 UV-I 764 W/m 13,9 C 17,7 C 22,5 km/h (4 Bft)
19.06.2023 11:12 20,4 C 25,6 C 66 % 1014,6 hPa 0,0 l/m 12,6 km/h (3 Bft) S-SW 203 3 min 4,5 UV-I 784 W/m 13,8 C 18,3 C 19,3 km/h (3 Bft)
19.06.2023 11:15 20,5 C 26,1 C 66 % 1014,7 hPa 0,0 l/m 10,3 km/h (2 Bft) W-SW 254 3 min 4,8 UV-I 771 W/m 13,9 C 19,1 C 20,9 km/h (4 Bft)
19.06.2023 11:18 20,3 C 24,4 C 64 % 1014,6 hPa 0,0 l/m 10,2 km/h (2 Bft) W-SW 253 3 min 4,2 UV-I 812 W/m 13,3 C 18,9 C 19,3 km/h (3 Bft)
19.06.2023 11:21 20,3 C 25,6 C 63 % 1014,7 hPa 0,0 l/m 12,1 km/h (2 Bft) S-SW 201 3 min 4,9 UV-I 775 W/m 13,0 C 18,3 C 20,9 km/h (4 Bft)
19.06.2023 11:24 20,3 C 26,1 C 64 % 1014,7 hPa 0,0 l/m 12,4 km/h (3 Bft) SW 219 3 min 5,0 UV-I 780 W/m 13,3 C 18,3 C 19,3 km/h (3 Bft)
19.06.2023 11:27 20,7 C 26,7 C 64 % 1014,7 hPa 0,0 l/m 11,6 km/h (2 Bft) S-SW 205 3 min 5,1 UV-I 802 W/m 13,6 C 18,9 C 20,9 km/h (4 Bft)
19.06.2023 11:30 20,9 C 26,7 C 62 % 1014,7 hPa 0,0 l/m 11,9 km/h (2 Bft) S 178 3 min 5,1 UV-I 793 W/m 13,3 C 19,1 C 17,7 km/h (3 Bft)
19.06.2023 11:33 21,1 C 27,2 C 63 % 1014,6 hPa 0,0 l/m 6,4 km/h (2 Bft) W-SW 253 3 min 5,2 UV-I 792 W/m 13,8 C 21,1 C 12,9 km/h (3 Bft)
19.06.2023 11:36 21,3 C 27,8 C 62 % 1014,7 hPa 0,0 l/m 10,4 km/h (2 Bft) W-SW 241 3 min 5,1 UV-I 763 W/m 13,7 C 20,0 C 16,1 km/h (3 Bft)
19.06.2023 11:39 21,2 C 26,7 C 61 % 1014,7 hPa 0,0 l/m 10,9 km/h (2 Bft) S 191 3 min 4,6 UV-I 801 W/m 13,4 C 19,7 C 17,7 km/h (3 Bft)
19.06.2023 11:42 21,2 C 26,7 C 61 % 1014,6 hPa 0,0 l/m 8,6 km/h (2 Bft) SO 140 3 min 5,3 UV-I 793 W/m 13,4 C 20,4 C 16,1 km/h (3 Bft)
19.06.2023 11:45 21,6 C 26,7 C 61 % 1014,6 hPa 0,0 l/m 9,8 km/h (2 Bft) S-SW 193 3 min 5,3 UV-I 785 W/m 13,7 C 20,5 C 19,3 km/h (3 Bft)
19.06.2023 11:48 21,4 C 26,1 C 58 % 1014,6 hPa 0,0 l/m 9,8 km/h (2 Bft) S 190 3 min 4,4 UV-I 801 W/m 12,8 C 20,2 C 20,9 km/h (4 Bft)
19.06.2023 11:51 21,4 C 26,1 C 61 % 1014,8 hPa 0,0 l/m 11,8 km/h (2 Bft) S 174 3 min 5,0 UV-I 789 W/m 13,6 C 19,7 C 20,9 km/h (4 Bft)
19.06.2023 11:54 21,4 C 27,2 C 60 % 1014,6 hPa 0,0 l/m 11,9 km/h (2 Bft) S-SW 205 3 min 5,5 UV-I 818 W/m 13,3 C 19,7 C 17,7 km/h (3 Bft)
19.06.2023 11:57 21,2 C 25,6 C 60 % 1014,6 hPa 0,0 l/m 11,3 km/h (2 Bft) SW 227 3 min 4,3 UV-I 829 W/m 13,1 C 19,6 C 17,7 km/h (3 Bft)
19.06.2023 12:00 21,3 C 26,7 C 58 % 1014,7 hPa 0,0 l/m 11,5 km/h (2 Bft) S-SW 200 3 min 5,7 UV-I 834 W/m 12,7 C 19,7 C 17,7 km/h (3 Bft)
19.06.2023 12:03 21,7 C 27,8 C 60 % 1014,7 hPa 0,0 l/m 9,9 km/h (2 Bft) S 180 3 min 5,8 UV-I 849 W/m 13,6 C 20,5 C 14,5 km/h (3 Bft)
19.06.2023 12:06 21,8 C 27,2 C 60 % 1014,6 hPa 0,0 l/m 12,4 km/h (3 Bft) SW 218 3 min 5,8 UV-I 818 W/m 13,7 C 20,0 C 17,7 km/h (3 Bft)
19.06.2023 12:09 21,9 C 27,8 C 59 % 1014,6 hPa 0,0 l/m 10,0 km/h (2 Bft) S-SO 167 3 min 5,8 UV-I 831 W/m 13,5 C 20,7 C 14,5 km/h (3 Bft)
19.06.2023 12:12 22,1 C 27,2 C 58 % 1014,5 hPa 0,0 l/m 5,7 km/h (1 Bft) S 187 3 min 5,3 UV-I 824 W/m 13,4 C 22,1 C 11,3 km/h (2 Bft)
19.06.2023 12:15 21,7 C 27,8 C 58 % 1014,5 hPa 0,0 l/m 8,9 km/h (2 Bft) S-SW 209 3 min 5,8 UV-I 921 W/m 13,1 C 20,8 C 16,1 km/h (3 Bft)
19.06.2023 12:18 21,7 C 27,2 C 58 % 1014,5 hPa 0,0 l/m 9,7 km/h (2 Bft) S-SW 209 3 min 5,8 UV-I 906 W/m 13,1 C 20,6 C 16,1 km/h (3 Bft)
19.06.2023 12:21 22,2 C 27,8 C 58 % 1014,3 hPa 0,0 l/m 11,1 km/h (2 Bft) S 178 3 min 5,8 UV-I 829 W/m 13,5 C 20,8 C 17,7 km/h (3 Bft)
19.06.2023 12:24 22,3 C 27,8 C 58 % 1014,4 hPa 0,0 l/m 6,4 km/h (2 Bft) W-NW 294 3 min 5,7 UV-I 755 W/m 13,6 C 22,3 C 11,3 km/h (2 Bft)
19.06.2023 12:27 22,3 C 27,2 C 58 % 1014,4 hPa 0,0 l/m 5,0 km/h (1 Bft) W 259 3 min 4,2 UV-I 677 W/m 13,6 C 22,3 C 9,7 km/h (2 Bft)
19.06.2023 12:30 22,1 C 27,8 C 58 % 1014,5 hPa 0,0 l/m 5,4 km/h (1 Bft) W 261 3 min 4,9 UV-I 560 W/m 13,4 C 22,1 C 11,3 km/h (2 Bft)
19.06.2023 12:33 22,3 C 27,8 C 58 % 1014,4 hPa 0,0 l/m 11,2 km/h (2 Bft) S-SW 204 3 min 5,3 UV-I 784 W/m 13,6 C 20,9 C 22,5 km/h (4 Bft)
19.06.2023 12:36 22,2 C 27,8 C 56 % 1014,5 hPa 0,0 l/m 12,3 km/h (3 Bft) S-SW 208 3 min 5,8 UV-I 797 W/m 13,0 C 20,5 C 17,7 km/h (3 Bft)
19.06.2023 12:39 22,5 C 27,8 C 57 % 1014,6 hPa 0,0 l/m 11,2 km/h (2 Bft) S-SO 155 3 min 5,7 UV-I 813 W/m 13,5 C 21,1 C 17,7 km/h (3 Bft)
19.06.2023 12:42 22,2 C 26,1 C 57 % 1014,5 hPa 0,0 l/m 11,0 km/h (2 Bft) S-SW 203 3 min 4,2 UV-I 657 W/m 13,3 C 20,8 C 19,3 km/h (3 Bft)
19.06.2023 12:45 22,1 C 27,2 C 57 % 1014,5 hPa 0,0 l/m 9,9 km/h (2 Bft) S 170 3 min 5,8 UV-I 628 W/m 13,2 C 21,0 C 17,7 km/h (3 Bft)
19.06.2023 12:48 22,7 C 28,9 C 58 % 1014,5 hPa 0,0 l/m 6,6 km/h (2 Bft) W-SW 251 3 min 5,9 UV-I 720 W/m 14,0 C 22,6 C 17,7 km/h (3 Bft)
19.06.2023 12:51 22,9 C 30,0 C 56 % 1014,5 hPa 0,0 l/m 10,4 km/h (2 Bft) S-SW 193 3 min 6,4 UV-I 857 W/m 13,6 C 21,7 C 19,3 km/h (3 Bft)
19.06.2023 12:54 22,6 C 28,9 C 55 % 1014,5 hPa 0,0 l/m 11,4 km/h (2 Bft) SW 223 3 min 6,0 UV-I 743 W/m 13,1 C 21,2 C 22,5 km/h (4 Bft)
19.06.2023 12:57 22,9 C 29,4 C 56 % 1014,5 hPa 0,0 l/m 8,7 km/h (2 Bft) S-SW 212 3 min 6,6 UV-I 937 W/m 13,6 C 22,2 C 14,5 km/h (3 Bft)
19.06.2023 13:00 23,0 C 29,4 C 55 % 1014,5 hPa 0,0 l/m 14,0 km/h (3 Bft) S-SW 208 3 min 6,2 UV-I 839 W/m 13,5 C 21,1 C 19,3 km/h (3 Bft)
19.06.2023 13:03 22,8 C 30,0 C 55 % 1014,3 hPa 0,0 l/m 6,0 km/h (2 Bft) W-SW 247 3 min 6,0 UV-I 798 W/m 13,3 C 22,8 C 12,9 km/h (3 Bft)
19.06.2023 13:06 23,0 C 30,0 C 56 % 1014,4 hPa 0,0 l/m 5,2 km/h (1 Bft) S 171 3 min 5,9 UV-I 689 W/m 13,7 C 23,0 C 12,9 km/h (3 Bft)
19.06.2023 13:09 23,2 C 30,0 C 52 % 1014,3 hPa 0,0 l/m 12,7 km/h (3 Bft) SW 214 3 min 6,7 UV-I 921 W/m 12,8 C 21,6 C 17,7 km/h (3 Bft)
19.06.2023 13:12 23,4 C 30,6 C 53 % 1014,4 hPa 0,0 l/m 8,7 km/h (2 Bft) S-SO 152 3 min 6,8 UV-I 933 W/m 13,3 C 22,7 C 17,7 km/h (3 Bft)
19.06.2023 13:15 23,2 C 30,0 C 52 % 1014,5 hPa 0,0 l/m 9,6 km/h (2 Bft) S 188 3 min 6,1 UV-I 849 W/m 12,8 C 22,3 C 17,7 km/h (3 Bft)
19.06.2023 13:18 22,8 C 30,6 C 56 % 1014,5 hPa 0,0 l/m 7,8 km/h (2 Bft) SW 215 3 min 6,3 UV-I 863 W/m 13,6 C 22,4 C 16,1 km/h (3 Bft)
19.06.2023 13:21 23,1 C 30,0 C 55 % 1014,4 hPa 0,0 l/m 8,9 km/h (2 Bft) S-SW 212 3 min 6,2 UV-I 828 W/m 13,6 C 22,4 C 16,1 km/h (3 Bft)
19.06.2023 13:24 23,2 C 30,6 C 53 % 1014,5 hPa 0,0 l/m 10,1 km/h (2 Bft) S 189 3 min 6,1 UV-I 825 W/m 13,1 C 22,2 C 19,3 km/h (3 Bft)
19.06.2023 13:27 23,2 C 29,4 C 55 % 1014,4 hPa 0,0 l/m 5,3 km/h (1 Bft) SW 228 3 min 5,2 UV-I 823 W/m 13,6 C 23,2 C 9,7 km/h (2 Bft)
19.06.2023 13:30 22,9 C 27,2 C 54 % 1014,4 hPa 0,0 l/m 8,5 km/h (2 Bft) S-SW 200 0 min 4,0 UV-I 387 W/m 13,1 C 22,2 C 14,5 km/h (3 Bft)
19.06.2023 13:33 22,7 C 27,2 C 56 % 1014,4 hPa 0,0 l/m 10,3 km/h (2 Bft) W-SW 238 0 min 4,8 UV-I 407 W/m 13,5 C 21,5 C 14,5 km/h (3 Bft)
19.06.2023 13:36 23,3 C 29,4 C 55 % 1014,4 hPa 0,0 l/m 8,6 km/h (2 Bft) SW 232 3 min 6,4 UV-I 882 W/m 13,7 C 22,6 C 16,1 km/h (3 Bft)
19.06.2023 13:39 23,5 C 30,6 C 54 % 1014,4 hPa 0,0 l/m 9,1 km/h (2 Bft) W-NW 284 3 min 6,3 UV-I 919 W/m 13,6 C 22,7 C 16,1 km/h (3 Bft)
19.06.2023 13:42 23,3 C 30,6 C 53 % 1014,4 hPa 0,0 l/m 4,5 km/h (1 Bft) S 179 3 min 6,9 UV-I 879 W/m 13,2 C 23,3 C 8,0 km/h (2 Bft)
19.06.2023 13:45 23,6 C 32,2 C 54 % 1014,4 hPa 0,0 l/m 2,4 km/h (1 Bft) S 176 3 min 6,9 UV-I 891 W/m 13,7 C 23,6 C 4,8 km/h (1 Bft)
19.06.2023 13:48 23,8 C 32,8 C 54 % 1014,4 hPa 0,0 l/m 7,6 km/h (2 Bft) S 187 3 min 7,1 UV-I 1001 W/m 13,9 C 23,5 C 16,1 km/h (3 Bft)
19.06.2023 13:51 23,7 C 29,4 C 54 % 1014,2 hPa 0,0 l/m 7,9 km/h (2 Bft) SO 145 3 min 4,7 UV-I 682 W/m 13,8 C 23,3 C 14,5 km/h (3 Bft)
19.06.2023 13:54 23,1 C 28,3 C 54 % 1014,3 hPa 0,0 l/m 5,5 km/h (1 Bft) O 86 0 min 4,7 UV-I 403 W/m 13,3 C 23,1 C 11,3 km/h (2 Bft)
19.06.2023 13:57 23,9 C 32,8 C 55 % 1014,1 hPa 0,0 l/m 3,4 km/h (1 Bft) O 89 3 min 6,9 UV-I 996 W/m 14,3 C 23,9 C 6,4 km/h (2 Bft)
19.06.2023 14:00 23,3 C 30,6 C 53 % 1014,1 hPa 0,0 l/m 4,4 km/h (1 Bft) SO 124 3 min 5,1 UV-I 969 W/m 13,2 C 23,3 C 8,0 km/h (2 Bft)
19.06.2023 14:03 23,4 C 30,6 C 56 % 1014,2 hPa 0,0 l/m 4,9 km/h (1 Bft) S-SO 157 3 min 6,3 UV-I 830 W/m 14,1 C 23,4 C 9,7 km/h (2 Bft)
19.06.2023 14:06 23,8 C 31,7 C 53 % 1014,3 hPa 0,0 l/m 9,8 km/h (2 Bft) S 180 3 min 6,5 UV-I 944 W/m 13,6 C 22,9 C 16,1 km/h (3 Bft)
19.06.2023 14:09 24,5 C 33,3 C 53 % 1014,1 hPa 0,0 l/m 8,3 km/h (2 Bft) W-SW 239 3 min 7,3 UV-I 1061 W/m 14,3 C 24,0 C 19,3 km/h (3 Bft)
19.06.2023 14:12 24,5 C 32,8 C 52 % 1014,2 hPa 0,0 l/m 10,2 km/h (2 Bft) W 276 3 min 7,0 UV-I 1049 W/m 14,0 C 23,6 C 17,7 km/h (3 Bft)
19.06.2023 14:15 24,4 C 31,1 C 52 % 1014,2 hPa 0,0 l/m 8,4 km/h (2 Bft) W 265 3 min 5,3 UV-I 945 W/m 13,9 C 23,9 C 20,9 km/h (4 Bft)
19.06.2023 14:18 23,8 C 29,4 C 52 % 1014,2 hPa 0,0 l/m 4,6 km/h (1 Bft) W 266 0 min 4,0 UV-I 418 W/m 13,3 C 23,8 C 11,3 km/h (2 Bft)
19.06.2023 14:21 23,3 C 28,9 C 54 % 1014,2 hPa 0,0 l/m 4,7 km/h (1 Bft) SO 127 0 min 4,4 UV-I 449 W/m 13,5 C 23,3 C 11,3 km/h (2 Bft)
19.06.2023 14:24 23,7 C 30,0 C 55 % 1014,2 hPa 0,0 l/m 6,7 km/h (2 Bft) S-SO 151 3 min 6,2 UV-I 742 W/m 14,1 C 23,6 C 20,9 km/h (4 Bft)
19.06.2023 14:27 24,2 C 31,1 C 52 % 1014,2 hPa 0,0 l/m 12,4 km/h (3 Bft) W-SW 257 3 min 5,6 UV-I 903 W/m 13,7 C 22,8 C 16,1 km/h (3 Bft)
19.06.2023 14:30 24,1 C 30,0 C 52 % 1014,2 hPa 0,0 l/m 8,8 km/h (2 Bft) S 185 3 min 4,8 UV-I 716 W/m 13,6 C 23,5 C 14,5 km/h (3 Bft)
19.06.2023 14:33 24,2 C 30,6 C 53 % 1014,2 hPa 0,0 l/m 8,7 km/h (2 Bft) S 173 3 min 5,9 UV-I 774 W/m 14,0 C 23,6 C 19,3 km/h (3 Bft)
19.06.2023 14:36 24,2 C 28,3 C 51 % 1014,2 hPa 0,0 l/m 12,1 km/h (2 Bft) S-SO 161 3 min 4,5 UV-I 766 W/m 13,4 C 22,8 C 17,7 km/h (3 Bft)
19.06.2023 14:39 23,9 C 28,9 C 51 % 1014,2 hPa 0,0 l/m 12,7 km/h (3 Bft) S-SW 200 3 min 4,6 UV-I 531 W/m 13,1 C 22,4 C 19,3 km/h (3 Bft)
19.06.2023 14:42 23,9 C 30,0 C 52 % 1014,2 hPa 0,0 l/m 9,8 km/h (2 Bft) SW 214 3 min 5,3 UV-I 735 W/m 13,4 C 23,0 C 16,1 km/h (3 Bft)
19.06.2023 14:45 24,3 C 30,6 C 52 % 1014,1 hPa 0,0 l/m 10,2 km/h (2 Bft) S-SW 206 3 min 4,9 UV-I 632 W/m 13,8 C 23,3 C 14,5 km/h (3 Bft)
19.06.2023 14:48 24,2 C 29,4 C 53 % 1014,2 hPa 0,0 l/m 5,3 km/h (1 Bft) W-SW 241 3 min 4,3 UV-I 540 W/m 14,0 C 24,2 C 12,9 km/h (3 Bft)
19.06.2023 14:51 24,0 C 28,9 C 52 % 1014,1 hPa 0,0 l/m 6,0 km/h (2 Bft) SW 224 3 min 4,2 UV-I 494 W/m 13,5 C 24,0 C 12,9 km/h (3 Bft)
19.06.2023 14:54 24,1 C 30,0 C 53 % 1014,0 hPa 0,0 l/m 8,5 km/h (2 Bft) SW 235 3 min 4,9 UV-I 639 W/m 13,9 C 23,5 C 14,5 km/h (3 Bft)
19.06.2023 14:57 24,4 C 31,7 C 52 % 1014,0 hPa 0,0 l/m 5,5 km/h (1 Bft) W-SW 244 3 min 5,4 UV-I 778 W/m 13,9 C 24,4 C 12,9 km/h (3 Bft)
19.06.2023 15:00 24,6 C 32,8 C 52 % 1013,9 hPa 0,0 l/m 3,4 km/h (1 Bft) W 279 3 min 5,5 UV-I 774 W/m 14,1 C 24,6 C 6,4 km/h (2 Bft)
19.06.2023 15:03 24,2 C 32,2 C 51 % 1013,9 hPa 0,0 l/m 2,9 km/h (1 Bft) S 170 3 min 5,6 UV-I 774 W/m 13,4 C 24,2 C 11,3 km/h (2 Bft)
19.06.2023 15:06 24,6 C 32,2 C 49 % 1013,9 hPa 0,0 l/m 7,1 km/h (2 Bft) S-SW 208 3 min 5,3 UV-I 690 W/m 13,2 C 24,4 C 12,9 km/h (3 Bft)
19.06.2023 15:09 24,6 C 31,1 C 47 % 1013,9 hPa 0,0 l/m 8,6 km/h (2 Bft) W 273 3 min 4,8 UV-I 650 W/m 12,5 C 24,0 C 12,9 km/h (3 Bft)
19.06.2023 15:12 24,9 C 32,8 C 48 % 1013,9 hPa 0,0 l/m 7,6 km/h (2 Bft) SW 214 3 min 5,1 UV-I 649 W/m 13,1 C 24,6 C 12,9 km/h (3 Bft)
19.06.2023 15:15 24,9 C 31,7 C 49 % 1013,9 hPa 0,0 l/m 9,3 km/h (2 Bft) S-SW 211 3 min 5,2 UV-I 719 W/m 13,4 C 24,2 C 14,5 km/h (3 Bft)
19.06.2023 15:18 24,9 C 32,2 C 49 % 1013,8 hPa 0,0 l/m 6,7 km/h (2 Bft) S 175 3 min 5,2 UV-I 690 W/m 13,4 C 24,8 C 16,1 km/h (3 Bft)
19.06.2023 15:21 25,1 C 31,7 C 49 % 1014,0 hPa 0,0 l/m 12,7 km/h (3 Bft) SW 229 3 min 5,6 UV-I 788 W/m 13,6 C 23,8 C 17,7 km/h (3 Bft)
19.06.2023 15:24 24,9 C 31,1 C 47 % 1013,9 hPa 0,0 l/m 14,5 km/h (3 Bft) SW 218 3 min 5,6 UV-I 786 W/m 12,8 C 23,3 C 17,7 km/h (3 Bft)
19.06.2023 15:27 24,6 C 31,1 C 48 % 1013,9 hPa 0,0 l/m 10,0 km/h (2 Bft) S 186 3 min 5,4 UV-I 731 W/m 12,8 C 23,7 C 16,1 km/h (3 Bft)
19.06.2023 15:30 24,8 C 32,8 C 48 % 1013,9 hPa 0,0 l/m 10,5 km/h (2 Bft) S-SW 193 3 min 5,9 UV-I 857 W/m 13,0 C 23,8 C 16,1 km/h (3 Bft)
19.06.2023 15:33 24,7 C 32,8 C 47 % 1013,7 hPa 0,0 l/m 5,6 km/h (1 Bft) SW 223 3 min 5,8 UV-I 790 W/m 12,6 C 24,7 C 11,3 km/h (2 Bft)
19.06.2023 15:36 25,1 C 33,3 C 46 % 1013,7 hPa 0,0 l/m 11,0 km/h (2 Bft) W-NW 294 3 min 5,7 UV-I 830 W/m 12,7 C 24,1 C 16,1 km/h (3 Bft)
19.06.2023 15:39 25,2 C 34,4 C 46 % 1013,7 hPa 0,0 l/m 4,4 km/h (1 Bft) S 170 3 min 5,8 UV-I 840 W/m 12,7 C 25,2 C 9,7 km/h (2 Bft)
19.06.2023 15:42 25,6 C 33,9 C 45 % 1013,7 hPa 0,0 l/m 9,8 km/h (2 Bft) W-SW 254 3 min 5,7 UV-I 828 W/m 12,8 C 24,9 C 17,7 km/h (3 Bft)
19.06.2023 15:45 25,4 C 33,3 C 44 % 1013,8 hPa 0,0 l/m 8,7 km/h (2 Bft) SW 218 3 min 5,5 UV-I 781 W/m 12,2 C 24,9 C 12,9 km/h (3 Bft)
19.06.2023 15:48 25,4 C 33,9 C 45 % 1013,7 hPa 0,0 l/m 9,7 km/h (2 Bft) W-SW 244 3 min 5,5 UV-I 810 W/m 12,6 C 24,7 C 17,7 km/h (3 Bft)
19.06.2023 15:51 25,7 C 33,9 C 46 % 1013,7 hPa 0,0 l/m 6,4 km/h (2 Bft) W-NW 300 3 min 5,3 UV-I 812 W/m 13,2 C 25,7 C 16,1 km/h (3 Bft)
19.06.2023 15:54 26,3 C 35,6 C 45 % 1013,7 hPa 0,0 l/m 10,0 km/h (2 Bft) W 261 3 min 5,5 UV-I 801 W/m 13,4 C 25,6 C 17,7 km/h (3 Bft)
19.06.2023 15:57 25,8 C 36,1 C 43 % 1013,7 hPa 0,0 l/m 4,7 km/h (1 Bft) W 267 3 min 5,4 UV-I 797 W/m 12,3 C 25,8 C 11,3 km/h (2 Bft)
19.06.2023 16:00 25,5 C 36,1 C 45 % 1013,7 hPa 0,0 l/m 4,6 km/h (1 Bft) W-NW 289 3 min 5,2 UV-I 768 W/m 12,7 C 25,5 C 11,3 km/h (2 Bft)
19.06.2023 16:03 25,6 C 35,0 C 46 % 1013,5 hPa 0,0 l/m 6,3 km/h (2 Bft) W-SW 240 3 min 5,2 UV-I 759 W/m 13,1 C 25,6 C 19,3 km/h (3 Bft)
19.06.2023 16:06 25,4 C 34,4 C 45 % 1013,5 hPa 0,0 l/m 6,2 km/h (2 Bft) S 188 3 min 5,2 UV-I 773 W/m 12,6 C 25,4 C 11,3 km/h (2 Bft)
19.06.2023 16:09 25,7 C 34,4 C 46 % 1013,6 hPa 0,0 l/m 9,3 km/h (2 Bft) S-SW 194 3 min 5,3 UV-I 787 W/m 13,2 C 25,1 C 17,7 km/h (3 Bft)
19.06.2023 16:12 25,7 C 33,9 C 45 % 1013,5 hPa 0,0 l/m 11,7 km/h (2 Bft) S 169 3 min 5,2 UV-I 791 W/m 12,9 C 24,6 C 17,7 km/h (3 Bft)
19.06.2023 16:15 25,5 C 32,8 C 45 % 1013,7 hPa 0,0 l/m 8,8 km/h (2 Bft) S-SO 158 3 min 5,3 UV-I 793 W/m 12,7 C 25,0 C 17,7 km/h (3 Bft)
19.06.2023 16:18 25,6 C 33,3 C 46 % 1013,6 hPa 0,0 l/m 6,9 km/h (2 Bft) S-SO 148 3 min 4,9 UV-I 734 W/m 13,1 C 25,5 C 14,5 km/h (3 Bft)
19.06.2023 16:21 25,7 C 32,8 C 45 % 1013,8 hPa 0,0 l/m 8,0 km/h (2 Bft) S-SO 164 3 min 4,7 UV-I 690 W/m 12,9 C 25,3 C 14,5 km/h (3 Bft)
19.06.2023 16:24 25,6 C 31,7 C 45 % 1013,6 hPa 0,0 l/m 12,9 km/h (3 Bft) S-SO 162 3 min 4,7 UV-I 729 W/m 12,8 C 24,3 C 22,5 km/h (4 Bft)
19.06.2023 16:27 25,4 C 32,8 C 44 % 1013,6 hPa 0,0 l/m 9,8 km/h (2 Bft) S-SW 208 3 min 4,9 UV-I 767 W/m 12,2 C 24,6 C 17,7 km/h (3 Bft)
19.06.2023 16:30 25,4 C 32,8 C 44 % 1013,6 hPa 0,0 l/m 13,1 km/h (3 Bft) SW 228 3 min 4,3 UV-I 780 W/m 12,2 C 24,1 C 17,7 km/h (3 Bft)
19.06.2023 16:33 24,9 C 30,0 C 44 % 1013,5 hPa 0,0 l/m 7,9 km/h (2 Bft) SW 236 3 min 3,4 UV-I 622 W/m 11,8 C 24,5 C 14,5 km/h (3 Bft)
19.06.2023 16:36 24,7 C 30,6 C 47 % 1013,6 hPa 0,0 l/m 6,3 km/h (2 Bft) SW 221 3 min 4,0 UV-I 603 W/m 12,6 C 24,7 C 16,1 km/h (3 Bft)
19.06.2023 16:39 24,9 C 32,2 C 46 % 1013,5 hPa 0,0 l/m 6,5 km/h (2 Bft) O-SO 121 3 min 4,4 UV-I 705 W/m 12,5 C 24,9 C 11,3 km/h (2 Bft)
19.06.2023 16:42 25,1 C 32,8 C 47 % 1013,4 hPa 0,0 l/m 3,9 km/h (1 Bft) S-SW 197 3 min 4,1 UV-I 669 W/m 13,0 C 25,1 C 11,3 km/h (2 Bft)
19.06.2023 16:45 25,3 C 32,2 C 46 % 1013,5 hPa 0,0 l/m 10,1 km/h (2 Bft) SW 224 3 min 4,1 UV-I 624 W/m 12,8 C 24,5 C 17,7 km/h (3 Bft)
19.06.2023 16:48 25,3 C 32,2 C 46 % 1013,6 hPa 0,0 l/m 9,7 km/h (2 Bft) S-SW 203 3 min 4,2 UV-I 677 W/m 12,8 C 24,6 C 14,5 km/h (3 Bft)
19.06.2023 16:51 25,0 C 32,8 C 47 % 1013,5 hPa 0,0 l/m 6,6 km/h (2 Bft) SW 228 3 min 4,2 UV-I 701 W/m 12,9 C 25,0 C 12,9 km/h (3 Bft)
19.06.2023 16:54 24,9 C 32,8 C 46 % 1013,5 hPa 0,0 l/m 5,1 km/h (1 Bft) SW 234 3 min 4,1 UV-I 681 W/m 12,5 C 24,9 C 9,7 km/h (2 Bft)
19.06.2023 16:57 24,9 C 33,3 C 48 % 1013,5 hPa 0,0 l/m 5,6 km/h (1 Bft) S-SW 203 3 min 4,0 UV-I 666 W/m 13,1 C 24,9 C 11,3 km/h (2 Bft)
19.06.2023 17:00 24,8 C 33,9 C 47 % 1013,4 hPa 0,0 l/m 2,8 km/h (1 Bft) W-SW 243 3 min 4,1 UV-I 691 W/m 12,7 C 24,8 C 8,0 km/h (2 Bft)
19.06.2023 17:03 24,9 C 32,8 C 48 % 1013,5 hPa 0,0 l/m 7,0 km/h (2 Bft) S-SO 163 3 min 4,1 UV-I 673 W/m 13,1 C 24,7 C 12,9 km/h (3 Bft)
19.06.2023 17:06 25,3 C 32,8 C 49 % 1013,4 hPa 0,0 l/m 10,1 km/h (2 Bft) S 169 3 min 4,0 UV-I 688 W/m 13,8 C 24,5 C 16,1 km/h (3 Bft)
19.06.2023 17:09 25,7 C 33,3 C 49 % 1013,4 hPa 0,0 l/m 9,7 km/h (2 Bft) O 87 3 min 4,0 UV-I 695 W/m 14,2 C 25,0 C 16,1 km/h (3 Bft)
19.06.2023 17:12 25,6 C 33,9 C 47 % 1013,5 hPa 0,0 l/m 5,7 km/h (1 Bft) S-SW 192 3 min 3,8 UV-I 637 W/m 13,4 C 25,6 C 12,9 km/h (3 Bft)
19.06.2023 17:15 25,4 C 34,4 C 48 % 1013,4 hPa 0,0 l/m 5,7 km/h (1 Bft) O 93 3 min 3,4 UV-I 571 W/m 13,6 C 25,4 C 11,3 km/h (2 Bft)
19.06.2023 17:18 25,4 C 33,3 C 48 % 1013,4 hPa 0,0 l/m 6,7 km/h (2 Bft) S-SO 158 3 min 3,4 UV-I 562 W/m 13,6 C 25,3 C 12,9 km/h (3 Bft)
19.06.2023 17:21 24,9 C 28,3 C 50 % 1013,4 hPa 0,0 l/m 11,2 km/h (2 Bft) S 170 0 min 2,3 UV-I 290 W/m 13,7 C 23,8 C 19,3 km/h (3 Bft)
19.06.2023 17:24 24,6 C 27,2 C 52 % 1013,4 hPa 0,0 l/m 9,5 km/h (2 Bft) O-SO 119 0 min 2,0 UV-I 183 W/m 14,1 C 23,8 C 16,1 km/h (3 Bft)
19.06.2023 17:27 24,2 C 25,6 C 53 % 1013,2 hPa 0,0 l/m 7,6 km/h (2 Bft) O-SO 110 0 min 1,7 UV-I 159 W/m 14,0 C 23,9 C 14,5 km/h (3 Bft)
19.06.2023 17:30 23,9 C 25,6 C 54 % 1013,3 hPa 0,0 l/m 11,1 km/h (2 Bft) SO 145 0 min 1,7 UV-I 174 W/m 14,0 C 22,7 C 16,1 km/h (3 Bft)
19.06.2023 17:33 23,9 C 25,6 C 54 % 1013,1 hPa 0,0 l/m 8,5 km/h (2 Bft) SO 136 0 min 1,9 UV-I 208 W/m 14,0 C 23,3 C 14,5 km/h (3 Bft)
19.06.2023 17:36 23,9 C 25,6 C 54 % 1013,2 hPa 0,0 l/m 9,0 km/h (2 Bft) S-SO 155 0 min 1,8 UV-I 185 W/m 14,0 C 23,2 C 12,9 km/h (3 Bft)
19.06.2023 17:39 23,8 C 25,0 C 55 % 1013,2 hPa 0,0 l/m 9,2 km/h (2 Bft) SO 129 0 min 1,7 UV-I 152 W/m 14,2 C 23,0 C 16,1 km/h (3 Bft)
19.06.2023 17:42 23,8 C 24,4 C 55 % 1013,2 hPa 0,0 l/m 9,3 km/h (2 Bft) SO 128 0 min 1,6 UV-I 145 W/m 14,2 C 23,0 C 16,1 km/h (3 Bft)
19.06.2023 17:45 23,7 C 25,6 C 55 % 1013,2 hPa 0,0 l/m 11,3 km/h (2 Bft) SO 125 0 min 1,8 UV-I 181 W/m 14,1 C 22,4 C 16,1 km/h (3 Bft)
19.06.2023 17:48 24,4 C 30,0 C 55 % 1013,1 hPa 0,0 l/m 5,6 km/h (1 Bft) SO 132 3 min 2,9 UV-I 466 W/m 14,8 C 24,4 C 12,9 km/h (3 Bft)
19.06.2023 17:51 24,8 C 31,1 C 52 % 1013,0 hPa 0,0 l/m 9,4 km/h (2 Bft) S-SW 204 3 min 2,9 UV-I 565 W/m 14,3 C 24,1 C 16,1 km/h (3 Bft)
19.06.2023 17:54 25,1 C 31,7 C 53 % 1013,1 hPa 0,0 l/m 10,4 km/h (2 Bft) O-SO 115 3 min 2,9 UV-I 580 W/m 14,8 C 24,2 C 17,7 km/h (3 Bft)
19.06.2023 17:57 24,9 C 31,1 C 52 % 1013,1 hPa 0,0 l/m 11,4 km/h (2 Bft) O-SO 111 3 min 2,8 UV-I 561 W/m 14,4 C 23,8 C 16,1 km/h (3 Bft)
19.06.2023 18:00 24,7 C 31,1 C 53 % 1013,0 hPa 0,0 l/m 8,2 km/h (2 Bft) S-SO 147 3 min 2,8 UV-I 539 W/m 14,5 C 24,2 C 14,5 km/h (3 Bft)
19.06.2023 18:03 24,8 C 31,7 C 54 % 1013,0 hPa 0,0 l/m 6,9 km/h (2 Bft) O-SO 102 3 min 2,8 UV-I 550 W/m 14,8 C 24,7 C 12,9 km/h (3 Bft)
19.06.2023 18:06 24,9 C 31,7 C 53 % 1013,0 hPa 0,0 l/m 9,8 km/h (2 Bft) O-SO 107 3 min 2,7 UV-I 547 W/m 14,6 C 24,1 C 16,1 km/h (3 Bft)
19.06.2023 18:09 24,9 C 32,2 C 52 % 1013,1 hPa 0,0 l/m 9,2 km/h (2 Bft) O-SO 122 3 min 2,4 UV-I 558 W/m 14,4 C 24,2 C 16,1 km/h (3 Bft)
19.06.2023 18:12 24,7 C 30,0 C 53 % 1013,1 hPa 0,0 l/m 8,0 km/h (2 Bft) O-SO 122 3 min 2,1 UV-I 443 W/m 14,5 C 24,3 C 14,5 km/h (3 Bft)
19.06.2023 18:15 24,7 C 30,6 C 53 % 1013,1 hPa 0,0 l/m 7,4 km/h (2 Bft) S-SO 152 3 min 2,4 UV-I 502 W/m 14,5 C 24,4 C 12,9 km/h (3 Bft)
19.06.2023 18:18 24,9 C 31,7 C 52 % 1013,1 hPa 0,0 l/m 7,1 km/h (2 Bft) S-SO 147 3 min 2,3 UV-I 532 W/m 14,4 C 24,7 C 12,9 km/h (3 Bft)
19.06.2023 18:21 25,1 C 31,7 C 52 % 1013,1 hPa 0,0 l/m 10,2 km/h (2 Bft) O-SO 123 3 min 2,3 UV-I 545 W/m 14,5 C 24,2 C 17,7 km/h (3 Bft)
19.06.2023 18:24 25,1 C 30,6 C 51 % 1013,0 hPa 0,0 l/m 9,3 km/h (2 Bft) O-SO 117 3 min 2,2 UV-I 552 W/m 14,2 C 24,4 C 14,5 km/h (3 Bft)
19.06.2023 18:27 25,1 C 30,0 C 52 % 1013,1 hPa 0,0 l/m 6,3 km/h (2 Bft) SO 145 3 min 2,2 UV-I 550 W/m 14,5 C 25,1 C 11,3 km/h (2 Bft)
19.06.2023 18:30 25,0 C 28,3 C 51 % 1013,1 hPa 0,0 l/m 10,1 km/h (2 Bft) SO 134 3 min 2,1 UV-I 525 W/m 14,1 C 24,1 C 16,1 km/h (3 Bft)
19.06.2023 18:33 24,7 C 27,8 C 53 % 1013,1 hPa 0,0 l/m 7,3 km/h (2 Bft) O-NO 59 3 min 1,9 UV-I 484 W/m 14,5 C 24,5 C 16,1 km/h (3 Bft)
19.06.2023 18:36 24,8 C 28,9 C 53 % 1013,1 hPa 0,0 l/m 7,1 km/h (2 Bft) O 99 3 min 1,8 UV-I 482 W/m 14,6 C 24,6 C 14,5 km/h (3 Bft)
19.06.2023 18:39 24,9 C 28,3 C 53 % 1013,1 hPa 0,0 l/m 9,2 km/h (2 Bft) O 92 3 min 1,7 UV-I 436 W/m 14,6 C 24,2 C 16,1 km/h (3 Bft)
19.06.2023 18:42 24,8 C 27,8 C 52 % 1013,2 hPa 0,0 l/m 9,5 km/h (2 Bft) SO 136 3 min 1,5 UV-I 351 W/m 14,3 C 24,0 C 16,1 km/h (3 Bft)
19.06.2023 18:45 24,6 C 26,7 C 53 % 1013,1 hPa 0,0 l/m 9,2 km/h (2 Bft) SO 128 3 min 1,5 UV-I 388 W/m 14,4 C 23,9 C 14,5 km/h (3 Bft)
19.06.2023 18:48 24,4 C 26,7 C 54 % 1013,1 hPa 0,0 l/m 9,6 km/h (2 Bft) O-SO 116 3 min 1,3 UV-I 316 W/m 14,5 C 23,6 C 16,1 km/h (3 Bft)
19.06.2023 18:51 24,3 C 26,1 C 54 % 1013,0 hPa 0,0 l/m 8,5 km/h (2 Bft) O-SO 107 3 min 1,2 UV-I 261 W/m 14,4 C 23,7 C 12,9 km/h (3 Bft)
19.06.2023 18:54 24,3 C 25,6 C 53 % 1013,0 hPa 0,0 l/m 9,2 km/h (2 Bft) S-SO 159 3 min 1,0 UV-I 236 W/m 14,1 C 23,6 C 16,1 km/h (3 Bft)
19.06.2023 18:57 24,1 C 25,6 C 54 % 1013,0 hPa 0,0 l/m 9,2 km/h (2 Bft) SO 129 0 min 0,8 UV-I 148 W/m 14,2 C 23,4 C 16,1 km/h (3 Bft)
19.06.2023 19:00 24,1 C 25,0 C 54 % 1013,0 hPa 0,0 l/m 7,8 km/h (2 Bft) S-SO 150 0 min 0,7 UV-I 110 W/m 14,2 C 23,7 C 14,5 km/h (3 Bft)
19.06.2023 19:03 23,9 C 25,0 C 54 % 1013,0 hPa 0,0 l/m 7,8 km/h (2 Bft) O-SO 118 0 min 0,9 UV-I 152 W/m 14,0 C 23,5 C 14,5 km/h (3 Bft)
19.06.2023 19:07 23,7 C 25,0 C 54 % 1012,9 hPa 0,0 l/m 8,7 km/h (2 Bft) SO 142 0 min 0,9 UV-I 172 W/m 13,8 C 23,0 C 14,5 km/h (3 Bft)
19.06.2023 19:09 23,8 C 25,0 C 55 % 1013,0 hPa 0,0 l/m 8,3 km/h (2 Bft) SO 142 0 min 0,9 UV-I 152 W/m 14,2 C 23,3 C 12,9 km/h (3 Bft)
19.06.2023 19:12 23,7 C 24,4 C 54 % 1012,9 hPa 0,0 l/m 8,5 km/h (2 Bft) SO 125 0 min 0,9 UV-I 152 W/m 13,8 C 23,1 C 12,9 km/h (3 Bft)
19.06.2023 19:15 23,7 C 24,4 C 55 % 1013,0 hPa 0,0 l/m 6,3 km/h (2 Bft) S-SO 161 0 min 0,9 UV-I 145 W/m 14,1 C 23,7 C 12,9 km/h (3 Bft)
19.06.2023 19:18 23,7 C 24,4 C 55 % 1012,9 hPa 0,0 l/m 8,7 km/h (2 Bft) SO 130 0 min 0,9 UV-I 163 W/m 14,1 C 23,0 C 12,9 km/h (3 Bft)
19.06.2023 19:21 23,8 C 24,4 C 54 % 1013,0 hPa 0,0 l/m 8,0 km/h (2 Bft) S-SO 153 0 min 0,9 UV-I 161 W/m 13,9 C 23,3 C 12,9 km/h (3 Bft)
19.06.2023 19:24 23,8 C 24,4 C 55 % 1013,0 hPa 0,0 l/m 7,4 km/h (2 Bft) SO 142 0 min 0,9 UV-I 158 W/m 14,2 C 23,5 C 12,9 km/h (3 Bft)
19.06.2023 19:27 23,8 C 25,0 C 55 % 1013,0 hPa 0,0 l/m 5,0 km/h (1 Bft) SO 146 0 min 0,8 UV-I 158 W/m 14,2 C 23,8 C 8,0 km/h (2 Bft)
19.06.2023 19:30 23,7 C 24,4 C 54 % 1013,1 hPa 0,0 l/m 6,1 km/h (2 Bft) SO 143 0 min 0,8 UV-I 139 W/m 13,8 C 23,7 C 9,7 km/h (2 Bft)
19.06.2023 19:33 23,6 C 24,4 C 56 % 1013,1 hPa 0,0 l/m 6,3 km/h (2 Bft) SO 131 0 min 0,7 UV-I 129 W/m 14,3 C 23,6 C 12,9 km/h (3 Bft)
19.06.2023 19:36 23,6 C 23,9 C 54 % 1013,2 hPa 0,0 l/m 8,8 km/h (2 Bft) S 170 0 min 0,7 UV-I 121 W/m 13,7 C 22,9 C 12,9 km/h (3 Bft)
19.06.2023 19:39 23,6 C 23,9 C 55 % 1013,2 hPa 0,0 l/m 6,3 km/h (2 Bft) S-SO 152 0 min 0,7 UV-I 117 W/m 14,0 C 23,6 C 9,7 km/h (2 Bft)
19.06.2023 19:42 23,6 C 23,9 C 55 % 1013,1 hPa 0,0 l/m 4,2 km/h (1 Bft) S-SO 147 0 min 0,6 UV-I 119 W/m 14,0 C 23,6 C 6,4 km/h (2 Bft)
19.06.2023 19:45 23,5 C 23,9 C 55 % 1013,2 hPa 0,0 l/m 3,9 km/h (1 Bft) S-SO 155 0 min 0,6 UV-I 113 W/m 13,9 C 23,5 C 8,0 km/h (2 Bft)
19.06.2023 19:48 23,6 C 23,9 C 55 % 1013,2 hPa 0,0 l/m 6,1 km/h (2 Bft) S-SO 155 0 min 0,6 UV-I 100 W/m 14,0 C 23,6 C 9,7 km/h (2 Bft)
19.06.2023 19:51 23,5 C 23,3 C 55 % 1013,2 hPa 0,0 l/m 5,9 km/h (2 Bft) SO 138 0 min 0,5 UV-I 93 W/m 13,9 C 23,5 C 9,7 km/h (2 Bft)
19.06.2023 19:54 23,4 C 23,3 C 55 % 1013,3 hPa 0,0 l/m 5,1 km/h (1 Bft) S-SO 163 0 min 0,5 UV-I 90 W/m 13,8 C 23,4 C 8,0 km/h (2 Bft)
19.06.2023 19:57 23,4 C 23,3 C 54 % 1013,3 hPa 0,0 l/m 5,3 km/h (1 Bft) S 179 0 min 0,5 UV-I 86 W/m 13,6 C 23,4 C 11,3 km/h (2 Bft)
19.06.2023 20:00 23,4 C 23,3 C 55 % 1013,3 hPa 0,0 l/m 4,5 km/h (1 Bft) S 176 0 min 0,0 UV-I 80 W/m 13,8 C 23,4 C 8,0 km/h (2 Bft)
19.06.2023 20:03 23,4 C 23,3 C 55 % 1013,2 hPa 0,0 l/m 4,4 km/h (1 Bft) S 190 0 min 0,0 UV-I 72 W/m 13,8 C 23,4 C 8,0 km/h (2 Bft)
19.06.2023 20:06 23,3 C 23,3 C 55 % 1013,2 hPa 0,0 l/m 4,3 km/h (1 Bft) S-SO 162 0 min 0,0 UV-I 67 W/m 13,7 C 23,3 C 9,7 km/h (2 Bft)
19.06.2023 20:09 23,3 C 22,8 C 55 % 1013,3 hPa 0,0 l/m 4,3 km/h (1 Bft) S-SO 162 0 min 0,0 UV-I 66 W/m 13,7 C 23,3 C 8,0 km/h (2 Bft)
19.06.2023 20:12 23,2 C 22,8 C 55 % 1013,2 hPa 0,0 l/m 4,5 km/h (1 Bft) S-SO 155 0 min 0,0 UV-I 65 W/m 13,6 C 23,2 C 8,0 km/h (2 Bft)
19.06.2023 20:15 23,1 C 22,8 C 55 % 1013,2 hPa 0,0 l/m 4,1 km/h (1 Bft) S-SO 151 0 min 0,0 UV-I 65 W/m 13,6 C 23,1 C 6,4 km/h (2 Bft)
19.06.2023 20:18 23,1 C 22,8 C 56 % 1013,2 hPa 0,0 l/m 4,2 km/h (1 Bft) S-SO 150 0 min 0,0 UV-I 64 W/m 13,8 C 23,1 C 6,4 km/h (2 Bft)
19.06.2023 20:21 23,0 C 22,8 C 56 % 1013,1 hPa 0,0 l/m 4,0 km/h (1 Bft) SO 142 0 min 0,0 UV-I 62 W/m 13,7 C 23,0 C 9,7 km/h (2 Bft)
19.06.2023 20:24 22,9 C 22,2 C 56 % 1013,2 hPa 0,0 l/m 3,4 km/h (1 Bft) SO 126 0 min 0,0 UV-I 60 W/m 13,6 C 22,9 C 6,4 km/h (2 Bft)
19.06.2023 20:27 22,8 C 22,2 C 57 % 1013,2 hPa 0,0 l/m 3,0 km/h (1 Bft) SO 126 0 min 0,0 UV-I 55 W/m 13,8 C 22,8 C 4,8 km/h (1 Bft)
19.06.2023 20:30 22,8 C 22,2 C 57 % 1013,1 hPa 0,0 l/m 3,4 km/h (1 Bft) SO 127 0 min 0,0 UV-I 53 W/m 13,8 C 22,8 C 6,4 km/h (2 Bft)
19.06.2023 20:33 22,7 C 22,2 C 58 % 1013,1 hPa 0,0 l/m 4,2 km/h (1 Bft) SO 130 0 min 0,0 UV-I 48 W/m 14,0 C 22,7 C 6,4 km/h (2 Bft)
19.06.2023 20:36 22,7 C 22,2 C 57 % 1013,2 hPa 0,0 l/m 3,7 km/h (1 Bft) SO 130 0 min 0,0 UV-I 46 W/m 13,7 C 22,7 C 6,4 km/h (2 Bft)
19.06.2023 20:39 22,6 C 21,7 C 58 % 1013,2 hPa 0,0 l/m 4,3 km/h (1 Bft) SO 131 0 min 0,0 UV-I 42 W/m 13,9 C 22,6 C 6,4 km/h (2 Bft)
19.06.2023 20:42 22,5 C 21,7 C 58 % 1013,2 hPa 0,0 l/m 4,1 km/h (1 Bft) SO 141 0 min 0,0 UV-I 39 W/m 13,8 C 22,5 C 6,4 km/h (2 Bft)
19.06.2023 20:45 22,5 C 21,7 C 58 % 1013,2 hPa 0,0 l/m 4,9 km/h (1 Bft) SO 146 0 min 0,0 UV-I 35 W/m 13,8 C 22,5 C 12,9 km/h (3 Bft)
19.06.2023 20:48 22,4 C 21,7 C 58 % 1013,1 hPa 0,0 l/m 3,9 km/h (1 Bft) S 178 0 min 0,0 UV-I 32 W/m 13,7 C 22,4 C 8,0 km/h (2 Bft)
19.06.2023 20:51 22,3 C 21,7 C 58 % 1013,2 hPa 0,0 l/m 4,2 km/h (1 Bft) S 171 0 min 0,0 UV-I 28 W/m 13,6 C 22,3 C 8,0 km/h (2 Bft)
19.06.2023 20:54 22,2 C 21,1 C 59 % 1013,1 hPa 0,0 l/m 4,0 km/h (1 Bft) S 170 0 min 0,0 UV-I 26 W/m 13,8 C 22,2 C 6,4 km/h (2 Bft)
19.06.2023 20:57 22,1 C 21,1 C 60 % 1013,2 hPa 0,0 l/m 5,1 km/h (1 Bft) SO 134 0 min 0,0 UV-I 24 W/m 14,0 C 22,1 C 11,3 km/h (2 Bft)
19.06.2023 21:00 21,9 C 21,1 C 60 % 1013,2 hPa 0,0 l/m 3,2 km/h (1 Bft) SO 134 0 min 0,0 UV-I 21 W/m 13,8 C 21,9 C 4,8 km/h (1 Bft)
19.06.2023 21:03 21,9 C 20,6 C 61 % 1013,2 hPa 0,0 l/m 3,0 km/h (1 Bft) SO 134 0 min 0,0 UV-I 19 W/m 14,0 C 21,9 C 6,4 km/h (2 Bft)
19.06.2023 21:06 21,8 C 20,6 C 61 % 1013,2 hPa 0,0 l/m 3,0 km/h (1 Bft) S-SO 150 0 min 0,0 UV-I 18 W/m 13,9 C 21,8 C 6,4 km/h (2 Bft)
19.06.2023 21:09 21,7 C 20,6 C 61 % 1013,2 hPa 0,0 l/m 5,5 km/h (1 Bft) S-SO 163 0 min 0,0 UV-I 16 W/m 13,8 C 21,7 C 9,7 km/h (2 Bft)
19.06.2023 21:12 21,7 C 20,6 C 61 % 1013,2 hPa 0,0 l/m 4,0 km/h (1 Bft) S-SO 163 0 min 0,0 UV-I 13 W/m 13,8 C 21,7 C 8,0 km/h (2 Bft)
19.06.2023 21:15 21,7 C 20,6 C 62 % 1013,3 hPa 0,0 l/m 5,2 km/h (1 Bft) S-SO 163 0 min 0,0 UV-I 12 W/m 14,1 C 21,7 C 8,0 km/h (2 Bft)
19.06.2023 21:18 21,7 C 20,6 C 62 % 1013,2 hPa 0,0 l/m 4,7 km/h (1 Bft) S-SO 148 0 min 0,0 UV-I 10 W/m 14,1 C 21,7 C 8,0 km/h (2 Bft)
19.06.2023 21:21 21,6 C 20,6 C 62 % 1013,1 hPa 0,0 l/m 4,9 km/h (1 Bft) S-SO 154 0 min 0,0 UV-I 9 W/m 14,0 C 21,6 C 6,4 km/h (2 Bft)
19.06.2023 21:24 21,5 C 20,6 C 63 % 1013,1 hPa 0,0 l/m 3,0 km/h (1 Bft) S-SO 154 0 min 0,0 UV-I 7 W/m 14,2 C 21,5 C 4,8 km/h (1 Bft)
19.06.2023 21:27 21,3 C 20,0 C 63 % 1013,1 hPa 0,0 l/m 3,0 km/h (1 Bft) S-SO 154 0 min 0,0 UV-I 5 W/m 14,0 C 21,3 C 6,4 km/h (2 Bft)
19.06.2023 21:30 21,2 C 19,4 C 64 % 1013,1 hPa 0,0 l/m 2,1 km/h (1 Bft) S-SO 154 0 min 0,0 UV-I 3 W/m 14,1 C 21,2 C 4,8 km/h (1 Bft)
19.06.2023 21:33 21,1 C 19,4 C 64 % 1013,2 hPa 0,0 l/m 2,5 km/h (1 Bft) S-SO 154 0 min 0,0 UV-I 0 W/m 14,0 C 21,1 C 4,8 km/h (1 Bft)
19.06.2023 21:36 20,9 C 18,9 C 65 % 1013,2 hPa 0,0 l/m 2,8 km/h (1 Bft) S-SO 154 0 min 0,0 UV-I 0 W/m 14,1 C 20,9 C 4,8 km/h (1 Bft)
19.06.2023 21:39 20,7 C 18,9 C 66 % 1013,2 hPa 0,0 l/m 3,4 km/h (1 Bft) S-SO 154 0 min 0,0 UV-I 0 W/m 14,1 C 20,7 C 4,8 km/h (1 Bft)
19.06.2023 21:42 20,8 C 18,9 C 66 % 1013,4 hPa 0,0 l/m 2,6 km/h (1 Bft) S-SO 154 0 min 0,0 UV-I 0 W/m 14,2 C 20,8 C 4,8 km/h (1 Bft)
19.06.2023 21:45 20,6 C 18,9 C 66 % 1013,3 hPa 0,0 l/m 2,1 km/h (1 Bft) S-SO 154 0 min 0,0 UV-I 0 W/m 14,0 C 20,6 C 3,2 km/h (1 Bft)
19.06.2023 21:48 20,6 C 18,3 C 66 % 1013,3 hPa 0,0 l/m 1,2 km/h (1 Bft) S-SO 154 0 min 0,0 UV-I 0 W/m 14,0 C 20,6 C 3,2 km/h (1 Bft)
19.06.2023 21:51 20,6 C 18,9 C 67 % 1013,4 hPa 0,0 l/m 2,4 km/h (1 Bft) S-SO 154 0 min 0,0 UV-I 0 W/m 14,3 C 20,6 C 4,8 km/h (1 Bft)
19.06.2023 21:54 20,5 C 18,3 C 67 % 1013,4 hPa 0,0 l/m 1,0 km/h (0 Bft) S-SO 154 0 min 0,0 UV-I 0 W/m 14,2 C 20,5 C 3,2 km/h (1 Bft)
19.06.2023 21:57 20,4 C 18,3 C 67 % 1013,5 hPa 0,0 l/m 1,3 km/h (1 Bft) S-SO 154 0 min 0,0 UV-I 0 W/m 14,1 C 20,4 C 3,2 km/h (1 Bft)
19.06.2023 22:00 20,3 C 18,3 C 67 % 1013,6 hPa 0,0 l/m 1,3 km/h (1 Bft) S-SO 154 0 min 0,0 UV-I 0 W/m 14,0 C 20,3 C 3,2 km/h (1 Bft)
19.06.2023 22:03 20,3 C 18,3 C 67 % 1013,7 hPa 0,0 l/m 0,2 km/h (0 Bft) S-SO 154 0 min 0,0 UV-I 0 W/m 14,0 C 20,3 C 1,6 km/h (1 Bft)
19.06.2023 22:06 20,3 C 18,3 C 68 % 1013,7 hPa 0,0 l/m 0,6 km/h (0 Bft) S-SO 154 0 min 0,0 UV-I 0 W/m 14,2 C 20,3 C 1,6 km/h (1 Bft)
19.06.2023 22:09 20,2 C 17,8 C 68 % 1013,8 hPa 0,0 l/m 0,2 km/h (0 Bft) S-SO 154 0 min 0,0 UV-I 0 W/m 14,1 C 20,2 C 1,6 km/h (1 Bft)
19.06.2023 22:12 20,1 C 17,8 C 69 % 1013,9 hPa 0,0 l/m 1,4 km/h (1 Bft) S-SO 154 0 min 0,0 UV-I 0 W/m 14,2 C 20,1 C 3,2 km/h (1 Bft)
19.06.2023 22:15 19,8 C 17,8 C 70 % 1013,9 hPa 0,0 l/m 2,3 km/h (1 Bft) S-SO 154 0 min 0,0 UV-I 0 W/m 14,2 C 19,8 C 3,2 km/h (1 Bft)
19.06.2023 22:18 19,6 C 17,8 C 71 % 1013,9 hPa 0,0 l/m 2,1 km/h (1 Bft) S-SO 154 0 min 0,0 UV-I 0 W/m 14,2 C 19,6 C 3,2 km/h (1 Bft)
19.06.2023 22:21 19,4 C 17,8 C 71 % 1013,9 hPa 0,0 l/m 0,7 km/h (0 Bft) S-SO 154 0 min 0,0 UV-I 0 W/m 14,0 C 19,4 C 1,6 km/h (1 Bft)
19.06.2023 22:24 19,7 C 17,8 C 70 % 1013,9 hPa 0,0 l/m 0,0 km/h (0 Bft) S-SO 154 0 min 0,0 UV-I 0 W/m 14,1 C 19,7 C 0,0 km/h (0 Bft)
19.06.2023 22:27 19,7 C 17,8 C 70 % 1013,9 hPa 0,0 l/m 0,0 km/h (0 Bft) S-SO 154 0 min 0,0 UV-I 0 W/m 14,1 C 19,7 C 0,0 km/h (0 Bft)
19.06.2023 22:30 19,7 C 17,8 C 70 % 1013,8 hPa 0,0 l/m 0,0 km/h (0 Bft) S-SO 154 0 min 0,0 UV-I 0 W/m 14,1 C 19,7 C 0,0 km/h (0 Bft)
19.06.2023 22:33 19,7 C 17,8 C 70 % 1013,7 hPa 0,0 l/m 0,0 km/h (0 Bft) S-SO 154 0 min 0,0 UV-I 0 W/m 14,1 C 19,7 C 0,0 km/h (0 Bft)
19.06.2023 22:36 19,7 C 17,8 C 70 % 1013,8 hPa 0,0 l/m 0,0 km/h (0 Bft) S-SO 154 0 min 0,0 UV-I 0 W/m 14,1 C 19,7 C 0,0 km/h (0 Bft)
19.06.2023 22:39 19,6 C 17,2 C 71 % 1013,7 hPa 0,0 l/m 0,0 km/h (0 Bft) S-SO 154 0 min 0,0 UV-I 0 W/m 14,2 C 19,6 C 0,0 km/h (0 Bft)
19.06.2023 22:42 19,6 C 17,8 C 71 % 1013,7 hPa 0,0 l/m 0,0 km/h (0 Bft) S-SO 154 0 min 0,0 UV-I 0 W/m 14,2 C 19,6 C 0,0 km/h (0 Bft)
19.06.2023 22:45 19,5 C 17,2 C 71 % 1013,7 hPa 0,0 l/m 0,0 km/h (0 Bft) S-SO 154 0 min 0,0 UV-I 0 W/m 14,1 C 19,5 C 0,0 km/h (0 Bft)
19.06.2023 22:48 19,2 C 17,2 C 72 % 1013,7 hPa 0,0 l/m 0,0 km/h (0 Bft) S-SO 154 0 min 0,0 UV-I 0 W/m 14,0 C 19,2 C 0,0 km/h (0 Bft)
19.06.2023 22:51 19,0 C 17,2 C 73 % 1013,7 hPa 0,0 l/m 0,0 km/h (0 Bft) S-SO 154 0 min 0,0 UV-I 0 W/m 14,0 C 19,0 C 0,0 km/h (0 Bft)
19.06.2023 22:54 18,8 C 17,2 C 74 % 1013,7 hPa 0,0 l/m 0,0 km/h (0 Bft) S-SO 154 0 min 0,0 UV-I 0 W/m 14,1 C 18,8 C 0,0 km/h (0 Bft)
19.06.2023 22:57 18,7 C 17,2 C 74 % 1013,7 hPa 0,0 l/m 0,0 km/h (0 Bft) S-SO 154 0 min 0,0 UV-I 0 W/m 14,0 C 18,7 C 0,0 km/h (0 Bft)
19.06.2023 23:00 18,7 C 17,2 C 74 % 1013,7 hPa 0,0 l/m 0,3 km/h (0 Bft) S-SO 154 0 min 0,0 UV-I 0 W/m 14,0 C 18,7 C 3,2 km/h (1 Bft)
19.06.2023 23:03 18,7 C 17,2 C 74 % 1013,7 hPa 0,0 l/m 2,4 km/h (1 Bft) S-SO 154 0 min 0,0 UV-I 0 W/m 14,0 C 18,7 C 3,2 km/h (1 Bft)
19.06.2023 23:06 18,8 C 17,2 C 74 % 1013,7 hPa 0,0 l/m 2,2 km/h (1 Bft) S-SO 154 0 min 0,0 UV-I 0 W/m 14,1 C 18,8 C 3,2 km/h (1 Bft)
19.06.2023 23:09 18,8 C 17,2 C 74 % 1013,7 hPa 0,0 l/m 1,4 km/h (1 Bft) S-SO 154 0 min 0,0 UV-I 0 W/m 14,1 C 18,8 C 3,2 km/h (1 Bft)
19.06.2023 23:12 18,8 C 17,2 C 73 % 1013,8 hPa 0,0 l/m 1,4 km/h (1 Bft) S-SO 154 0 min 0,0 UV-I 0 W/m 13,9 C 18,8 C 3,2 km/h (1 Bft)
19.06.2023 23:15 18,7 C 17,2 C 74 % 1013,7 hPa 0,0 l/m 1,5 km/h (1 Bft) S-SO 154 0 min 0,0 UV-I 0 W/m 14,0 C 18,7 C 3,2 km/h (1 Bft)
19.06.2023 23:18 18,7 C 17,2 C 74 % 1013,7 hPa 0,0 l/m 1,9 km/h (1 Bft) S-SO 154 0 min 0,0 UV-I 0 W/m 14,0 C 18,7 C 3,2 km/h (1 Bft)
19.06.2023 23:21 18,7 C 17,2 C 74 % 1013,7 hPa 0,0 l/m 1,6 km/h (1 Bft) S-SO 154 0 min 0,0 UV-I 0 W/m 14,0 C 18,7 C 3,2 km/h (1 Bft)
19.06.2023 23:24 18,8 C 17,2 C 74 % 1013,7 hPa 0,0 l/m 2,1 km/h (1 Bft) S-SO 154 0 min 0,0 UV-I 0 W/m 14,1 C 18,8 C 3,2 km/h (1 Bft)
19.06.2023 23:27 18,8 C 17,2 C 73 % 1013,6 hPa 0,0 l/m 1,9 km/h (1 Bft) S-SO 154 0 min 0,0 UV-I 0 W/m 13,9 C 18,8 C 3,2 km/h (1 Bft)
19.06.2023 23:30 18,7 C 17,2 C 74 % 1013,7 hPa 0,0 l/m 1,5 km/h (1 Bft) S-SO 154 0 min 0,0 UV-I 0 W/m 14,0 C 18,7 C 3,2 km/h (1 Bft)
19.06.2023 23:33 18,7 C 17,2 C 74 % 1013,6 hPa 0,0 l/m 1,1 km/h (1 Bft) S-SO 154 0 min 0,0 UV-I 0 W/m 14,0 C 18,7 C 3,2 km/h (1 Bft)
19.06.2023 23:36 18,4 C 17,2 C 75 % 1013,7 hPa 0,0 l/m 1,7 km/h (1 Bft) S-SO 154 0 min 0,0 UV-I 0 W/m 13,9 C 18,4 C 3,2 km/h (1 Bft)
19.06.2023 23:39 18,3 C 17,2 C 75 % 1013,9 hPa 0,0 l/m 0,8 km/h (0 Bft) S-SO 154 0 min 0,0 UV-I 0 W/m 13,8 C 18,3 C 3,2 km/h (1 Bft)
19.06.2023 23:42 18,2 C 16,7 C 75 % 1013,7 hPa 0,0 l/m 0,1 km/h (0 Bft) S-SO 154 0 min 0,0 UV-I 0 W/m 13,7 C 18,2 C 1,6 km/h (1 Bft)
19.06.2023 23:45 18,2 C 16,7 C 75 % 1013,7 hPa 0,0 l/m 0,0 km/h (0 Bft) S-SO 154 0 min 0,0 UV-I 0 W/m 13,7 C 18,2 C 0,0 km/h (0 Bft)
19.06.2023 23:48 18,2 C 16,7 C 75 % 1013,8 hPa 0,0 l/m 0,2 km/h (0 Bft) S-SO 154 0 min 0,0 UV-I 0 W/m 13,7 C 18,2 C 1,6 km/h (1 Bft)
19.06.2023 23:51 18,2 C 16,7 C 76 % 1013,8 hPa 0,0 l/m 0,3 km/h (0 Bft) S-SO 154 0 min 0,0 UV-I 0 W/m 13,9 C 18,2 C 1,6 km/h (1 Bft)
19.06.2023 23:54 18,1 C 16,7 C 76 % 1013,7 hPa 0,0 l/m 0,2 km/h (0 Bft) S-SO 154 0 min 0,0 UV-I 0 W/m 13,8 C 18,1 C 1,6 km/h (1 Bft)
19.06.2023 23:57 18,1 C 16,7 C 76 % 1013,9 hPa 0,0 l/m 0,0 km/h (0 Bft) S-SO 154 0 min 0,0 UV-I 0 W/m 13,8 C 18,1 C 0,0 km/h (0 Bft)
19.06.2023 23:58 18,2 C 16,7 C 76 % 1013,9 hPa 0,0 l/m 0,0 km/h (0 Bft) N 0 0 min 0,0 UV-I 0 W/m 13,9 C 18,2 C 0,0 km/h (0 Bft)
19.06.2023 23:59 18,2 C 16,7 C 75 % 1013,8 hPa 0,0 l/m 0,0 km/h (0 Bft) N 0 0 min 0,0 UV-I 0 W/m 13,7 C 18,2 C 0,0 km/h (0 Bft)
_ Min-Zeit 03:45 03:40 15:57 01:56 - 03:31 - - - - - 03:40 05:44 22:24
Minimum _ 15,6 C 12,8 C 43 % 1011,2 hPa - 0,0 km/h (0 Bft) - - - - - 11,6 C 11,2 C 0,0 km/h (0 Bft)
_ Max-Zeit 15:54 15:57 06:27 11:51 00:00 05:44 - - 09:54 14:09 14:09 18:03 15:57 05:44
Maximum _ 26,3 C 36,1 C 89 % 1014,8 hPa 0,0 l/m 20,9 km/h
S-SW (4 Bft)
- - 3 min 7,3 UV-I 1061 W/m 14,8 C 25,8 C 33,8 km/h
S-SO (5 Bft)
Durchschnitt _ 20,5 C 22,1 C 66 % 1013,2 hPa #0,0 l/m 7,9 km/h (2 Bft) S - #7:54 h 3,5 UV-I 411 W/m 13,5 C 19,5 C 13,0 km/h (3 Bft)